Date StartTime U_cm/s V_cm/s W_cm/s Ustd_cm/s Vstd_cm/s Wstd_cm/s Uvar_(cm/s)^2 Vvar_(cm/s)^2 Wvar_(cm/s)^2 KE_(m/s)^2 TurbulentKE_(m/s)^2 HorizWindSpeed_cm/s FrictionSpeec_cm/s DragCoef SpeedOfSound_m/s SonicTemperature_C Pressure_mb 
04/14/2013  00:00:00     -115.959       50.456      -16.165       86.832       72.445       48.212     7539.870     5248.315     2324.364        1.568        0.756      126.461       49.239        0.152      337.519        9.547      856.102
04/14/2013  00:01:00     -158.111      -82.740       -0.406       93.151       89.772       47.158     8677.133     8058.973     2223.848        2.540        0.948      178.452       44.950        0.063      337.453        9.435      856.107
04/14/2013  00:02:00      -89.694       28.328       -5.019       73.004       62.403       35.073     5329.645     3894.098     1230.133        0.966        0.523       94.061       29.073        0.096      337.431        9.402      856.108
04/14/2013  00:03:00     -122.984      149.282      -10.171      117.511      129.109       67.035    13808.921    16669.182     4493.743        3.624        1.749      193.417       69.720        0.130      337.444        9.421      856.087
04/14/2013  00:04:00     -138.747       92.789       -9.824       95.882       94.118       45.233     9193.271     8858.143     2046.045        2.402        1.005      166.914       36.087        0.047      337.409        9.364      856.103
04/14/2013  00:05:00     -176.508       -4.590      -16.080       71.548       69.562       39.158     5119.088     4838.915     1533.319        2.146        0.575      176.568       28.931        0.027      337.456        9.440      856.100
04/14/2013  00:06:00     -186.896      -41.136       -1.255      101.293       81.716       46.079    10260.325     6677.501     2123.243        2.784        0.953      191.369       35.323        0.034      337.370        9.296      856.098
04/14/2013  00:07:00     -174.767      -12.863      -24.559       81.362       81.952       55.270     6619.696     6716.076     3054.751        2.385        0.820      175.239       40.672        0.054      337.307        9.191      856.135
04/14/2013  00:08:00     -169.861       64.207      -23.378       82.519       92.073       47.062     6809.334     8477.354     2214.796        2.551        0.875      181.591       34.823        0.037      337.294        9.169      856.139
04/14/2013  00:09:00     -159.195       26.722      -21.633       72.250       79.611       46.497     5220.002     6337.841     2161.938        2.012        0.686      161.422       36.996        0.053      337.292        9.167      856.136
04/14/2013  00:10:00     -109.978      -51.957       -5.590      119.685       63.562       58.941    14324.431     4040.076     3474.099        1.833        1.092      121.633       64.324        0.280      337.240        9.081      856.119
04/14/2013  00:11:00     -104.988      -14.404      -13.385       89.744       50.620       47.694     8054.052     2562.340     2274.739        1.215        0.645      105.971       40.234        0.144      337.235        9.071      856.119
04/14/2013  00:12:00     -100.385       -6.513      -17.102       65.338       41.573       32.492     4268.995     1728.288     1055.753        0.873        0.353      100.596       23.565        0.055      337.290        9.163      856.121
04/14/2013  00:13:00      -84.874       36.393       -5.277       63.172       79.916       35.961     3990.743     6386.576     1293.217        1.011        0.584       92.347       23.519        0.065      337.229        9.061      856.151
04/14/2013  00:14:00     -131.027       22.666      -24.344       60.234       55.395       31.754     3628.150     3068.563     1008.308        1.299        0.385      132.973       20.997        0.025      337.269        9.129      856.171
04/14/2013  00:15:00     -179.830      -39.436      -16.987      105.447       95.729       52.391    11119.163     9164.014     2744.842        2.860        1.151      184.103       50.281        0.075      337.219        9.045      856.181
04/14/2013  00:16:00     -151.512       57.746      -17.380       78.729       63.589       42.831     6198.295     4043.612     1834.486        1.933        0.604      162.144       26.879        0.027      337.224        9.053      856.189
04/14/2013  00:17:00     -182.299       75.095      -24.172      117.481       66.714       49.484    13801.774     4450.779     2448.658        3.008        1.035      197.161       52.009        0.070      337.198        9.008      856.185
04/14/2013  00:18:00      -74.846       67.655       -4.840       57.521       54.682       36.887     3308.680     2990.139     1360.632        0.893        0.383      100.892       33.266        0.109      337.184        8.987      856.172
04/14/2013  00:19:00     -103.721       71.364      -11.475       83.865       73.098       50.545     7033.377     5343.284     2554.793        1.545        0.747      125.900       44.579        0.125      337.182        8.982      856.191
04/14/2013  00:20:00     -212.150      169.591      -39.731      119.532       88.787       54.470    14288.017     7883.066     2967.007        5.024        1.257      271.604       51.125        0.035      337.116        8.869      856.180
04/14/2013  00:21:00     -175.013      111.868      -29.935       73.745       91.961       48.963     5438.355     8456.741     2397.411        3.016        0.815      207.711       44.536        0.046      337.107        8.855      856.169
04/14/2013  00:22:00     -103.944      123.001      -15.211       76.257      107.521       51.263     5815.055    11560.821     2627.905        2.308        1.000      161.039       50.588        0.099      337.090        8.826      856.153
04/14/2013  00:23:00     -167.078      174.138      -28.576       89.603      113.346       51.517     8028.666    12847.380     2654.004        4.129        1.177      241.328       58.397        0.059      337.052        8.762      856.138
04/14/2013  00:24:00     -174.580      122.108      -25.908       92.046       81.130       52.078     8472.427     6582.095     2712.136        3.191        0.888      213.046       47.029        0.049      337.077        8.805      856.158
04/14/2013  00:25:00     -150.672       96.723      -16.590       91.372      113.556       48.823     8348.861    12894.886     2383.712        2.798        1.181      179.045       45.727        0.065      337.127        8.890      856.157
04/14/2013  00:26:00     -135.393       37.646      -24.123       90.079      129.458       45.530     8114.233    16759.398     2072.959        2.363        1.347      140.529       35.363        0.063      337.143        8.916      856.139
04/14/2013  00:27:00      -95.981      179.820      -30.404       84.357       94.171       49.087     7116.110     8868.120     2409.516        3.043        0.920      203.832       34.358        0.028      337.097        8.839      856.110
04/14/2013  00:28:00     -132.529      211.541      -17.166       75.251      105.101       47.129     5662.785    11046.211     2221.137        4.077        0.947      249.627       31.847        0.016      337.041        8.743      856.099
04/14/2013  00:29:00     -190.480      152.827      -43.170       87.415       78.673       52.127     7641.453     6189.391     2717.173        3.902        0.827      244.211       44.269        0.033      337.044        8.749      856.126
04/14/2013  00:30:00     -144.858       85.171      -17.840       73.908       93.994       46.808     5462.437     8834.822     2190.982        2.252        0.824      168.042       42.150        0.063      337.021        8.711      856.133
04/14/2013  00:31:00     -179.039       66.921      -26.637       82.143       73.708       47.578     6747.519     5432.904     2263.640        2.584        0.722      191.137       41.699        0.048      337.056        8.768      856.111
04/14/2013  00:32:00     -104.279       91.532      -16.141       76.772       90.962       57.139     5893.962     8274.167     3264.828        1.847        0.872      138.753       52.791        0.145      337.065        8.786      856.120
04/14/2013  00:33:00     -124.401      129.315      -22.753       62.657       93.019       37.372     3925.895     8652.458     1396.686        2.334        0.699      179.438       31.078        0.030      337.041        8.744      856.099
04/14/2013  00:34:00     -133.603       57.535      -24.479       47.561       57.979       33.903     2262.085     3361.547     1149.411        1.427        0.339      145.465       25.603        0.031      337.058        8.774      856.095
04/14/2013  00:35:00     -188.046      222.626      -44.130       73.867      139.429       49.233     5456.352    19440.473     2423.872        5.709        1.366      291.417       40.158        0.019      337.020        8.709      856.110
04/14/2013  00:36:00     -185.579      204.932      -47.663       63.697      105.245       42.551     4057.321    11076.443     1810.609        4.782        0.847      276.472       43.462        0.025      337.047        8.752      856.106
04/14/2013  00:37:00     -180.813      236.365      -28.740      109.243      119.252       66.836    11933.973    14221.044     4467.085        6.000        1.531      297.594       47.021        0.025      337.026        8.719      856.108
04/14/2013  00:38:00     -205.237      226.547      -36.960      101.155       93.302       64.142    10232.410     8705.301     4114.201        5.893        1.153      305.689       57.978        0.036      336.998        8.671      856.099
04/14/2013  00:39:00     -163.302      213.755      -35.176       87.693      131.173       59.707     7690.140    17206.269     3564.975        5.102        1.423      268.996       61.954        0.053      337.014        8.700      856.075
04/14/2013  00:40:00     -147.292      183.011      -37.585       87.788       91.726       52.547     7706.791     8413.656     2761.190        3.774        0.944      234.921       51.776        0.049      337.064        8.783      856.066
04/14/2013  00:41:00     -159.347      120.226      -11.812      119.435       82.683       56.995    14264.732     6836.560     3248.390        3.216        1.217      199.614       55.922        0.078      337.044        8.751      856.062
04/14/2013  00:42:00     -140.574      264.209      -34.531       95.764       98.001       66.014     9170.796     9604.190     4357.856        5.694        1.157      299.279       58.566        0.038      337.072        8.796      856.045
04/14/2013  00:43:00     -155.249      305.925      -43.087      105.250      119.113       72.879    11077.628    14187.886     5311.410        7.506        1.529      343.063       60.657        0.031      337.082        8.811      856.013
04/14/2013  00:44:00     -171.365      208.662      -39.422       93.715      131.826       61.546     8782.497    17378.017     3787.879        5.220        1.497      270.010       66.413        0.060      337.089        8.824      856.006
04/14/2013  00:45:00     -138.072      155.517      -17.302       89.687      106.780       48.500     8043.718    11402.008     2352.218        3.267        1.090      207.965       32.565        0.025      337.154        8.934      855.991
04/14/2013  00:46:00     -176.231      169.175      -33.453      113.528       99.005       53.030    12888.669     9801.927     2812.205        4.315        1.275      244.290       56.959        0.054      337.163        8.951      855.957
04/14/2013  00:47:00     -217.284      157.763      -19.284      122.197      136.149       64.741    14932.127    18536.544     4191.453        5.506        1.883      268.518       61.045        0.052      337.088        8.824      855.964
04/14/2013  00:48:00     -204.168      204.462      -41.651       85.221       92.443       53.740     7262.552     8545.625     2888.014        5.196        0.935      288.945       54.453        0.036      337.039        8.740      855.965
04/14/2013  00:49:00     -192.150      177.673      -32.775       91.193      134.182       54.634     8316.168    18004.901     2984.837        4.943        1.465      261.705       51.818        0.039      337.041        8.744      855.954
04/14/2013  00:50:00     -136.970      156.204      -28.832      107.729      111.206       52.971    11605.616    12366.683     2805.929        3.538        1.339      207.751       62.918        0.092      337.036        8.735      855.948
04/14/2013  00:51:00     -112.764      114.670      -21.517       60.879       57.471       44.900     3706.311     3302.966     2015.968        1.768        0.451      160.826       32.159        0.040      337.052        8.762      855.967
04/14/2013  00:52:00     -216.888      149.394      -42.982      117.108       85.181       52.582    13714.186     7255.835     2764.878        4.747        1.187      263.361       53.700        0.042      337.106        8.852      855.967
04/14/2013  00:53:00     -139.026      164.164      -17.091       99.894      117.011       57.537     9978.880    13691.549     3310.533        3.677        1.349      215.123       56.154        0.068      337.042        8.746      855.979
04/14/2013  00:54:00     -202.796      149.547      -26.754       92.218      111.219       55.648     8504.198    12369.742     3096.687        4.408        1.199      251.973       57.123        0.051      337.093        8.834      855.981
04/14/2013  00:55:00     -251.816      122.349      -24.637      104.795       94.269       64.046    10981.939     8886.721     4101.931        5.148        1.199      279.965       51.436        0.034      337.054        8.765      855.970
04/14/2013  00:56:00     -234.090      159.792      -37.065      131.664      104.303       61.587    17335.449    10879.183     3793.008        5.685        1.600      283.428       66.741        0.055      337.033        8.731      855.958
04/14/2013  00:57:00     -219.323        2.052      -28.353      100.193       91.679       42.882    10038.732     8404.980     1838.860        3.459        1.014      219.332       23.393        0.011      337.056        8.769      855.952
04/14/2013  00:58:00     -258.084      -27.365      -21.756       94.916       68.661       51.763     9009.040     4714.269     2679.378        4.211        0.820      259.531       46.963        0.033      336.894        8.498      855.963
04/14/2013  00:59:00     -183.162      -80.645        7.667      128.698      104.283       56.870    16563.251    10874.915     3234.193        3.539        1.534      200.130       65.852        0.108      336.816        8.370      855.958
04/14/2013  01:00:00     -282.772      -49.550      -21.150      107.659      104.121       56.324    11590.548    10841.220     3172.356        5.423        1.280      287.080       44.295        0.024      336.776        8.302      855.965
04/14/2013  01:01:00     -236.828       25.691      -22.473      103.599      102.078       56.475    10732.742    10419.840     3189.421        4.079        1.217      238.217       50.283        0.045      336.764        8.282      855.991
04/14/2013  01:02:00     -188.665       49.848      -28.005       74.379       83.146       48.872     5532.279     6913.177     2388.514        2.685        0.742      195.139       35.563        0.033      336.817        8.369      855.970
04/14/2013  01:03:00     -203.273      -90.012       -3.808       83.002       96.809       54.781     6889.370     9371.910     3001.001        3.435        0.963      222.311       38.415        0.030      336.775        8.301      855.956
04/14/2013  01:04:00     -169.901       -5.415      -25.417      101.099       99.063       45.029    10221.091     9813.515     2027.630        2.580        1.103      169.988       31.646        0.035      336.737        8.239      855.964
04/14/2013  01:05:00     -164.418       54.457      -24.703      149.776       69.636       39.010    22432.936     4849.212     1521.742        2.970        1.440      173.202       55.970        0.104      336.792        8.333      855.970
04/14/2013  01:06:00     -152.803       94.909      -27.519       83.997       68.672       51.744     7055.468     4715.843     2677.464        2.378        0.722      179.879       38.900        0.047      336.811        8.360      855.974
04/14/2013  01:07:00     -216.689      -87.653      -10.573      166.360       86.031       53.281    27675.649     7401.303     2838.831        4.633        1.896      233.746       52.458        0.050      336.839        8.407      855.968
04/14/2013  01:08:00     -219.255       67.802      -29.900       78.433      123.602       67.469     6151.717    15277.492     4552.002        3.977        1.299      229.499       58.049        0.064      336.810        8.359      855.981
04/14/2013  01:09:00     -147.042       70.125       -7.470      150.377       56.516       57.310    22613.258     3194.027     3284.442        2.784        1.455      162.907       67.599        0.172      336.830        8.393      855.960
04/14/2013  01:10:00     -173.983      247.429      -40.251       97.804      114.854       62.633     9565.698    13191.513     3922.867        5.989        1.334      302.475       62.438        0.043      336.828        8.389      855.929
04/14/2013  01:11:00     -159.300      174.997      -33.416       74.305      125.107       60.352     5521.289    15651.751     3642.403        4.096        1.241      236.644       61.531        0.068      336.908        8.521      855.933
04/14/2013  01:12:00     -157.399       58.824      -31.647       75.139       92.598       47.695     5645.895     8574.425     2274.802        2.286        0.825      168.032       44.802        0.071      337.006        8.685      855.952
04/14/2013  01:13:00      -97.478       10.389      -16.392       79.751       66.238       28.125     6360.256     4387.474      791.017        1.071        0.577       98.030       32.020        0.107      336.955        8.603      855.944
04/14/2013  01:14:00     -120.919       36.364       -5.655      118.679       96.578       56.865    14084.599     9327.318     3233.607        2.131        1.332      126.269       62.629        0.246      336.972        8.628      855.943
04/14/2013  01:15:00     -151.126      148.524      -12.301      108.973      126.082       65.203    11875.118    15896.605     4251.444        3.853        1.601      211.893       66.521        0.099      336.937        8.571      855.950
04/14/2013  01:16:00     -194.801       96.769      -19.377      104.634       83.925       55.018    10948.189     7043.469     3026.931        3.435        1.051      217.513       57.178        0.069      336.895        8.500      855.944
04/14/2013  01:17:00     -154.063      134.067      -32.713       94.503       74.018       52.857     8930.875     5478.630     2793.851        2.999        0.860      204.229       58.118        0.081      336.878        8.473      855.950
04/14/2013  01:18:00     -184.666      148.675      -33.559       68.689       84.034       45.923     4718.201     7061.668     2108.899        3.561        0.694      237.078       35.708        0.023      336.828        8.388      855.945
04/14/2013  01:19:00     -124.675      158.641      -29.309       71.130       93.028       43.426     5059.507     8654.138     1885.849        2.858        0.780      201.769       39.561        0.038      336.821        8.378      855.930
04/14/2013  01:20:00     -140.963      229.698      -27.542       66.939      110.733       54.006     4480.880    12261.795     2916.681        4.652        0.983      269.503       51.675        0.037      336.790        8.326      855.943
04/14/2013  01:21:00     -152.244      191.783      -37.449       81.657       94.369       48.131     6667.855     8905.468     2316.557        3.962        0.894      244.865       50.265        0.042      336.786        8.319      855.909
04/14/2013  01:22:00     -179.776      203.557      -38.771      122.103       80.613       63.338    14909.190     6498.375     4011.643        5.033        1.271      271.578       68.784        0.064      336.803        8.346      855.880
04/14/2013  01:23:00     -189.111      279.165      -39.044       82.356      141.026       61.548     6782.548    19888.317     3788.169        7.283        1.523      337.189       66.349        0.039      336.800        8.341      855.903
04/14/2013  01:24:00     -178.546      224.320      -36.802      106.745      145.049       61.659    11394.487    21039.123     3801.771        5.989        1.812      286.703       81.642        0.081      336.783        8.314      855.916
04/14/2013  01:25:00     -130.370      238.432      -22.461      113.912      161.302       67.334    12975.884    26018.259     4533.926        5.893        2.176      271.747       79.874        0.086      336.777        8.304      855.927
04/14/2013  01:26:00     -181.225      256.321      -40.378       94.302      129.504       61.003     8892.891    16771.201     3721.356        6.477        1.469      313.916       56.821        0.033      336.785        8.316      855.940
04/14/2013  01:27:00     -208.937      247.435      -43.057       94.564      109.322       59.092     8942.434    11951.295     3491.829        6.556        1.219      323.850       58.351        0.032      336.797        8.337      855.940
04/14/2013  01:28:00     -166.362      227.296      -39.193      107.697      103.805       48.897    11598.565    10775.572     2390.945        5.282        1.238      281.673       54.970        0.038      336.779        8.306      855.881
04/14/2013  01:29:00     -128.387      170.658      -21.836       96.214      111.082       62.452     9257.098    12339.225     3900.255        3.579        1.275      213.559       55.842        0.068      336.798        8.340      855.826
04/14/2013  01:30:00     -164.580      135.825      -33.556       88.683      115.540       50.091     7864.756    13349.555     2509.122        3.519        1.186      213.389       38.962        0.033      336.791        8.327      855.815
04/14/2013  01:31:00     -165.732      134.661      -20.149       79.452      131.267       58.370     6312.639    17230.988     3407.106        3.647        1.348      213.543       34.318        0.026      336.831        8.395      855.801
04/14/2013  01:32:00     -104.755      180.986      -10.895       86.431       90.272       57.734     7470.240     8149.065     3333.224        3.140        0.948      209.116       47.178        0.051      336.806        8.352      855.777
04/14/2013  01:33:00     -145.896      299.760      -42.341      102.781      131.875       65.788    10563.996    17391.139     4328.036        7.260        1.614      333.379       58.792        0.031      336.824        8.381      855.797
04/14/2013  01:34:00     -177.761      284.643      -29.979      110.539      119.889       64.316    12218.819    14373.314     4136.575        7.212        1.536      335.590       57.951        0.030      336.789        8.323      855.784
04/14/2013  01:35:00     -161.252      252.282      -32.802      117.534       98.942       66.814    13814.284     9789.440     4464.121        5.939        1.403      299.414       62.956        0.044      336.799        8.340      855.763
04/14/2013  01:36:00     -157.944      200.608      -16.539      108.528       94.785       72.508    11778.415     8984.265     5257.447        4.574        1.301      255.323       59.827        0.055      336.762        8.279      855.783
04/14/2013  01:37:00      -93.143      134.992      -21.442       59.837      116.030       55.665     3580.498    13463.046     3098.641        2.375        1.007      164.008       50.863        0.096      336.751        8.263      855.801
04/14/2013  01:38:00      -94.326       24.500       -0.921       78.872       62.711       45.418     6220.839     3932.638     2062.828        1.086        0.611       97.456       25.079        0.066      336.785        8.319      855.783
04/14/2013  01:39:00      -95.833      -47.851      -15.830      138.162       66.148       43.784    19088.789     4375.606     1917.074        1.855        1.269      107.115       56.573        0.279      336.878        8.472      855.788
04/14/2013  01:40:00     -136.622      -83.391       -1.003       65.739       73.315       32.752     4321.579     5375.066     1072.685        1.819        0.538      160.061       30.616        0.037      336.849        8.424      855.830
04/14/2013  01:41:00     -132.667      -94.340        3.481       78.637       82.113       40.822     6183.769     6742.606     1666.457        2.055        0.730      162.790       39.759        0.060      336.898        8.506      855.844
04/14/2013  01:42:00     -160.404     -125.744       10.073      140.672       73.812       52.673    19788.752     5448.239     2774.460        3.482        1.401      203.816       43.190        0.045      337.014        8.699      855.849
04/14/2013  01:43:00      -39.922      -67.900       13.948       73.671       58.899       34.903     5427.444     3469.133     1218.236        0.826        0.506       78.766       33.674        0.183      337.095        8.836      855.838
04/14/2013  01:44:00      -88.309      -59.789        1.703       58.323       42.154       31.078     3401.580     1776.931      965.864        0.876        0.307      106.646       27.426        0.066      337.123        8.883      855.833
04/14/2013  01:45:00     -108.834      -15.832        0.528       51.259       29.622       24.232     2627.513      877.457      587.191        0.809        0.205      109.979       23.092        0.044      337.104        8.853      855.795
04/14/2013  01:46:00     -154.015       14.460       -7.978       76.284       71.617       34.782     5819.278     5128.939     1209.781        1.807        0.608      154.692       32.979        0.045      337.024        8.717      855.788
04/14/2013  01:47:00     -321.428       60.196      -26.657      158.576       95.712       51.516    25146.296     9160.765     2653.901        7.230        1.848      327.016       59.498        0.033      337.114        8.867      855.778
04/14/2013  01:48:00     -248.132      -15.410      -17.307      120.451      136.348       56.082    14508.456    18590.682     3145.156        4.917        1.812      248.610       31.006        0.016      337.207        9.023      855.768
04/14/2013  01:49:00     -183.659      111.657      -27.338       81.153       65.560       42.786     6585.842     4298.114     1830.631        2.983        0.636      214.937       43.352        0.041      337.370        9.297      855.746
04/14/2013  01:50:00     -120.042      181.262      -20.011       59.950      104.360       42.076     3593.953    10890.994     1770.367        3.196        0.813      217.407       21.273        0.010      337.370        9.296      855.724
04/14/2013  01:51:00     -128.599      229.585      -15.282       79.839      118.149       63.024     6374.275    13959.269     3971.978        4.689        1.215      263.148       58.093        0.049      337.328        9.225      855.723
04/14/2013  01:52:00     -141.251      155.909      -27.372       56.480       97.918       38.848     3190.045     9587.845     1509.137        2.965        0.714      210.379       28.814        0.019      337.313        9.199      855.749
04/14/2013  01:53:00     -121.983       93.175      -11.044       60.138       63.491       34.287     3616.544     4031.144     1175.611        1.625        0.441      153.497       25.924        0.029      337.220        9.046      855.771
04/14/2013  01:54:00      -53.182      101.444      -11.178       44.695       87.272       28.878     1997.666     7616.454      833.948        1.184        0.522      114.539       29.945        0.068      337.193        9.000      855.786
04/14/2013  01:55:00      -88.777      -39.180       -8.129       44.668       36.552       20.774     1995.259     1336.014      431.567        0.662        0.188       97.038       16.352        0.028      337.235        9.072      855.784
04/14/2013  01:56:00      -85.916      -62.874        4.206       68.003       46.638       29.585     4624.466     2175.063      875.298        0.951        0.384      106.464       33.276        0.098      337.110        8.862      855.812
04/14/2013  01:57:00     -179.076      -11.473        0.818       64.135       43.412       33.516     4113.310     1884.584     1123.322        1.966        0.356      179.443       34.606        0.037      336.896        8.502      855.858
04/14/2013  01:58:00     -124.729      -81.828       -2.077       54.478       55.564       36.501     2967.887     3087.333     1332.310        1.482        0.369      149.175       27.747        0.035      336.904        8.516      855.879
04/14/2013  01:59:00      -81.220      -80.495        4.843       57.170       44.554       30.909     3268.434     1985.053      955.366        0.965        0.310      114.351       30.175        0.070      336.833        8.400      855.848
04/14/2013  02:00:00     -133.360      -65.630       -9.673       52.073       37.449       23.956     2711.569     1402.426      573.904        1.344        0.234      148.634       13.913        0.009      336.874        8.469      855.843
04/14/2013  02:01:00     -108.832      -28.751       -7.233       39.234       43.931       24.534     1539.288     1929.932      601.896        0.840        0.204      112.566       18.365        0.027      336.840        8.410      855.851
04/14/2013  02:02:00     -136.515        5.956       -9.788       41.328       34.291       23.170     1707.991     1175.883      536.856        1.109        0.171      136.644       21.790        0.025      336.717        8.208      855.836
04/14/2013  02:03:00     -125.653       13.826      -16.407       31.886       24.558       18.808     1016.747      603.111      353.733        0.911        0.099      126.412       15.987        0.016      336.713        8.202      855.794
04/14/2013  02:04:00      -20.878      153.680       -4.350       70.437       85.713       39.089     4961.366     7346.754     1527.961        1.895        0.692      155.092       32.574        0.044      336.781        8.313      855.785
04/14/2013  02:05:00      -92.067      194.802      -22.350       61.619       62.595       37.646     3796.863     3918.122     1417.222        2.803        0.457      215.462       37.990        0.031      336.819        8.373      855.774
04/14/2013  02:06:00      -12.256      215.762      -18.678       39.194       63.979       26.414     1536.203     4093.266      697.693        2.669        0.316      216.110       24.003        0.012      336.747        8.253      855.769
04/14/2013  02:07:00      -39.201       94.446        0.769       37.962       59.760       28.580     1441.083     3571.298      816.792        0.814        0.291      102.259       24.485        0.057      336.751        8.263      855.761
04/14/2013  02:08:00      -92.756       49.131       11.006       74.235       35.508       37.862     5510.872     1260.851     1433.498        0.967        0.410      104.964       22.371        0.045      336.836        8.405      855.769
04/14/2013  02:09:00     -191.233       26.627      -15.514       54.844       26.427       16.387     3007.876      698.403      268.539        2.075        0.199      193.078        4.023        0.000      336.751        8.261      855.785
04/14/2013  02:10:00     -130.532      -24.517       -5.086       72.071       37.962       30.600     5194.171     1441.093      936.337        1.262        0.379      132.815       31.874        0.058      336.630        8.062      855.802
04/14/2013  02:11:00      -55.232       -5.961        3.097       28.796       37.136       22.293      829.197     1379.076      496.972        0.290        0.135       55.553       17.906        0.104      336.627        8.055      855.790
04/14/2013  02:12:00      -28.133      -33.725      -11.917       14.839       14.782       11.561      220.193      218.495      133.663        0.132        0.029       43.919        6.934        0.025      336.660        8.112      855.758
04/14/2013  02:13:00       10.203       -4.681       25.807       14.811       34.599       11.448      219.380     1197.106      131.049        0.117        0.077       11.225        8.472        0.570      336.676        8.137      855.736
04/14/2013  02:14:00      -32.059        7.932       -2.826       43.594       36.025       15.710     1900.415     1297.767      246.809        0.227        0.172       33.026       17.324        0.275      336.621        8.046      855.734
04/14/2013  02:15:00      -85.982       15.465      -11.982       17.374       16.979        9.868      301.865      288.287       97.369        0.423        0.034       87.362        5.737        0.004      336.621        8.045      855.729
04/14/2013  02:16:00      -88.184       29.719      -17.001       32.940       25.563       12.179     1085.040      653.462      148.327        0.542        0.094       93.058       12.616        0.018      336.643        8.084      855.730
04/14/2013  02:17:00     -153.731       33.586      -21.127       89.858      120.688       39.747     8074.387    14565.578     1579.791        2.471        1.211      157.357       48.379        0.095      336.702        8.179      855.722
04/14/2013  02:18:00     -101.699      160.485      -27.715      101.438       60.018       43.604    10289.715     3602.125     1901.313        2.633        0.790      189.995       47.388        0.062      336.666        8.120      855.703
04/14/2013  02:19:00       11.501      161.856      -26.032       44.900      103.703       40.487     2015.966    10754.262     1639.186        2.071        0.720      162.264       44.002        0.074      336.596        8.003      855.666
04/14/2013  02:20:00       10.409       89.810        5.527       42.232       63.094       35.761     1783.578     3980.837     1278.862        0.762        0.352       90.411       36.449        0.163      336.483        7.815      855.665
04/14/2013  02:21:00      -55.369      116.170       -6.193       66.960       95.192       26.531     4483.687     9061.542      703.916        1.542        0.712      128.690       32.088        0.062      336.560        7.945      855.684
04/14/2013  02:22:00     -231.072      -42.961       -1.119       93.766       72.640       35.310     8792.120     5276.547     1246.763        3.528        0.766      235.032       26.704        0.013      336.433        7.727      855.718
04/14/2013  02:23:00      -49.399      -22.533       10.329       62.072       39.091       33.037     3852.898     1528.069     1091.474        0.476        0.324       54.296       35.669        0.432      336.394        7.666      855.731
04/14/2013  02:24:00      -67.383      -23.671        1.000       47.794       34.343       25.676     2284.279     1179.411      659.250        0.461        0.206       71.420       21.022        0.087      336.360        7.610      855.741
04/14/2013  02:25:00      -59.473       -2.746       -2.246       50.548       21.668       21.635     2555.071      469.504      468.056        0.352        0.175       59.537       30.594        0.264      336.284        7.482      855.748
04/14/2013  02:26:00     -114.562       42.600       -7.095       37.086       19.859       16.328     1375.379      394.381      266.602        0.851        0.102      122.226       11.604        0.009      336.243        7.415      855.764
04/14/2013  02:27:00      -56.043       19.914       -8.636       23.681       36.126       22.246      560.799     1305.105      494.888        0.299        0.118       59.476       13.127        0.049      336.255        7.433      855.749
04/14/2013  02:28:00      -61.563       -7.898       -4.398       46.901       30.564       21.191     2199.698      934.146      449.040        0.373        0.179       62.067       23.745        0.146      336.301        7.511      855.723
04/14/2013  02:29:00      -82.269      -25.289       -5.114       36.263       26.769       20.288     1315.029      716.555      411.621        0.494        0.122       86.068       15.786        0.034      336.267        7.453      855.720
04/14/2013  02:30:00      -60.840      -33.784        7.706       36.323       25.524       15.155     1319.394      651.461      229.663        0.355        0.110       69.591       14.047        0.041      336.301        7.510      855.710
04/14/2013  02:31:00      -79.536      -21.293        0.765       33.101       23.620       20.432     1095.696      557.925      417.451        0.443        0.104       82.336       18.169        0.049      336.343        7.580      855.715
04/14/2013  02:32:00     -119.074       -7.992       -8.831       33.434       30.244       14.914     1117.854      914.689      222.430        0.829        0.113      119.342        9.916        0.007      336.349        7.592      855.733
04/14/2013  02:33:00     -151.925      -20.125      -11.196       46.120       34.943       24.615     2127.031     1220.996      605.903        1.378        0.198      153.252       21.506        0.020      336.233        7.396      855.753
04/14/2013  02:34:00     -137.488      -77.360      -18.395       27.936       34.944       22.335      780.421     1221.107      498.853        1.386        0.125      157.757       10.791        0.005      336.256        7.435      855.764
04/14/2013  02:35:00      -58.573      -28.985        6.517       60.714       37.672       22.241     3686.141     1419.155      494.669        0.496        0.280       65.352       27.956        0.183      336.248        7.422      855.792
04/14/2013  02:36:00     -208.431      -44.667      -15.141       38.691       30.338       25.149     1496.987      920.399      632.481        2.436        0.152      213.164       14.131        0.004      336.209        7.356      855.827
04/14/2013  02:37:00     -165.765      -59.901      -16.563       70.289       38.536       32.550     4940.518     1485.026     1059.531        1.941        0.374      176.256       23.987        0.019      336.158        7.271      855.841
04/14/2013  02:38:00     -101.467      -53.580      -16.344       64.862       50.669       31.852     4207.102     2567.335     1014.520        1.061        0.389      114.745       32.707        0.081      336.200        7.341      855.823
04/14/2013  02:39:00     -113.935      -32.191       -3.727       55.604       53.155       25.551     3091.780     2825.431      652.870        1.030        0.329      118.396       25.933        0.048      336.226        7.386      855.790
04/14/2013  02:40:00      -85.588       16.766       -1.645       30.762       23.777       12.796      946.297      565.343      163.731        0.464        0.084       87.215       11.609        0.018      336.237        7.405      855.755
04/14/2013  02:41:00      -93.220       43.696      -14.786       31.399       29.017       16.897      985.901      841.958      285.519        0.647        0.106      102.953       10.817        0.011      336.248        7.422      855.773
04/14/2013  02:42:00     -104.252       46.041      -17.776       26.509       26.422       16.687      702.730      698.100      278.462        0.749        0.084      113.967       14.676        0.017      336.226        7.386      855.802
04/14/2013  02:43:00      -93.576       11.657      -13.049       17.861       21.898       15.568      318.999      479.505      242.358        0.505        0.052       94.299        9.328        0.010      336.277        7.470      855.801
04/14/2013  02:44:00      -74.374        2.241       -9.458       31.246       25.355       14.932      976.285      642.883      222.960        0.373        0.092       74.408       15.251        0.042      336.177        7.304      855.796
04/14/2013  02:45:00      -82.320       54.729      -11.427       25.915       20.936       14.443      671.566      438.299      208.587        0.561        0.066       98.853       13.009        0.017      336.149        7.257      855.787
04/14/2013  02:46:00      -59.135       84.023      -16.320       44.198       22.083       17.080     1953.494      487.658      291.741        0.678        0.137      102.747       22.111        0.046      336.311        7.528      855.794
04/14/2013  02:47:00      -44.490       48.589        1.371       28.706       28.469       17.716      824.042      810.467      313.854        0.314        0.097       65.881       17.447        0.070      336.279        7.474      855.811
04/14/2013  02:48:00      -79.605       51.855      -14.806       19.716       26.502       13.271      388.709      702.352      176.125        0.526        0.063       95.005       12.594        0.018      336.307        7.522      855.838
04/14/2013  02:49:00      -64.617       31.719      -16.782       16.174       13.225       10.755      261.599      174.909      115.680        0.301        0.028       71.982        3.578        0.002      336.336        7.570      855.853
04/14/2013  02:50:00      -21.835       29.850      -13.651       17.468       21.293       16.270      305.121      453.374      264.697        0.129        0.051       36.984        6.505        0.031      336.401        7.676      855.853
04/14/2013  02:51:00       -6.036        7.271       10.543       15.070        9.474        9.681      227.118       89.766       93.713        0.031        0.021        9.450        9.420        0.994      336.299        7.507      855.843
04/14/2013  02:52:00       12.861       32.251       -2.996       15.377       10.218        9.574      236.437      104.404       91.652        0.082        0.022       34.721        7.268        0.044      336.283        7.481      855.844
04/14/2013  02:53:00      -55.387       17.875       -2.552       36.777       27.351       15.018     1352.516      748.080      225.555        0.286        0.116       58.200       16.704        0.082      336.269        7.458      855.874
04/14/2013  02:54:00      -96.343      -11.215       -7.816       13.256       15.555       11.067      175.711      241.962      122.487        0.500        0.027       96.993        7.780        0.006      336.367        7.620      855.901
04/14/2013  02:55:00      -86.865      -23.167       -6.594       14.946       15.632        8.225      223.376      244.344       67.648        0.433        0.027       89.901        6.213        0.005      336.324        7.549      855.898
04/14/2013  02:56:00      -44.036       39.377       -8.496       15.194       28.042       14.252      230.858      786.360      203.123        0.239        0.061       59.074       10.417        0.031      336.308        7.522      855.869
04/14/2013  02:57:00      -50.626       22.749      -11.844       19.352       11.160        9.022      374.494      124.537       81.388        0.190        0.029       55.503        9.132        0.027      336.297        7.505      855.848
04/14/2013  02:58:00      -82.192        9.370       -4.189       16.658       18.324       10.389      277.475      335.766      107.926        0.379        0.036       82.724        7.458        0.008      336.313        7.531      855.846
04/14/2013  02:59:00      -86.466       13.996      -10.451       25.365       15.223       10.753      643.363      231.731      115.625        0.439        0.050       87.591        6.829        0.006      336.259        7.441      855.842
04/14/2013  03:00:00      -33.408       24.445       -3.916       15.275       14.171        9.475      233.312      200.816       89.772        0.113        0.026       41.396        5.546        0.018      336.188        7.322      855.800
04/14/2013  03:01:00      -43.017       22.331       -2.066       15.377       12.439       10.406      236.449      154.726      108.276        0.143        0.025       48.468        7.268        0.022      336.173        7.297      855.752
04/14/2013  03:02:00      -78.493       37.291      -10.120       28.309       20.700       17.399      801.413      428.486      302.731        0.459        0.077       86.901       16.311        0.035      336.161        7.277      855.737
04/14/2013  03:03:00      -77.890       46.129      -10.530       25.283       22.997       16.283      639.225      528.865      265.152        0.487        0.072       90.525       12.763        0.020      336.099        7.174      855.732
04/14/2013  03:04:00      -89.338       83.916      -21.857       27.112       36.406       19.218      735.065     1325.400      369.333        0.896        0.121      122.569       19.719        0.026      336.062        7.109      855.730
04/14/2013  03:05:00      -74.751       99.258      -15.999       26.587       38.162       17.582      706.888     1456.330      309.121        0.908        0.124      124.257       17.527        0.020      336.125        7.217      855.719
04/14/2013  03:06:00      -58.848       54.353      -17.970       20.949       22.596       13.396      438.849      510.562      179.442        0.393        0.056       80.108       13.096        0.027      336.116        7.201      855.718
04/14/2013  03:07:00      -79.283       34.743      -10.358       28.878       21.803       16.337      833.941      475.364      266.890        0.459        0.079       86.561       15.507        0.032      336.185        7.318      855.717
04/14/2013  03:08:00     -124.648       -0.170      -18.681       47.728       27.243       21.651     2278.003      742.197      468.756        0.969        0.174      124.648       25.255        0.041      336.000        7.007      855.730
04/14/2013  03:09:00     -163.441       -3.674      -11.214       32.165       34.237       17.652     1034.583     1172.162      311.590        1.468        0.126      163.483       13.883        0.007      335.769        6.623      855.732
04/14/2013  03:10:00     -100.084       -3.443       -4.488       31.521       29.494       21.876      993.581      869.889      478.576        0.619        0.117      100.143       16.001        0.026      335.676        6.468      855.720
04/14/2013  03:11:00      -61.185       17.374       -7.002       29.231       28.801       20.888      854.449      829.503      436.310        0.311        0.106       63.604        4.933        0.006      335.853        6.762      855.696
04/14/2013  03:12:00      -73.786       11.873      -11.026       42.176       22.105       15.805     1778.839      488.628      249.805        0.411        0.126       74.735       18.139        0.059      335.884        6.817      855.660
04/14/2013  03:13:00      -65.777       99.903      -17.841       30.616       38.865       27.043      937.342     1510.470      731.338        0.890        0.159      119.613       17.549        0.022      335.801        6.677      855.638
04/14/2013  03:14:00      -39.021      127.137      -17.168       40.832       23.777       20.934     1667.286      565.363      438.220        1.033        0.134      132.990        9.523        0.005      335.936        6.902      855.623
04/14/2013  03:15:00       -7.888      172.653      -25.182       16.694       21.279       10.445      278.678      452.790      109.108        1.567        0.042      172.833        5.875        0.001      336.002        7.009      855.616
04/14/2013  03:16:00      -54.889       64.479       -8.808       38.678       45.302       21.402     1495.971     2052.252      458.039        0.563        0.200       84.678       21.635        0.065      336.114        7.198      855.602
04/14/2013  03:17:00      -18.254       76.266      -15.607       29.294       59.070       23.885      858.157     3489.315      570.513        0.565        0.246       78.420       32.199        0.169      336.030        7.057      855.588
04/14/2013  03:18:00      -16.396       86.117      -14.702       49.069       58.056       29.784     2407.728     3370.464      887.085        0.728        0.333       87.664       31.884        0.132      335.933        6.895      855.573
04/14/2013  03:19:00       14.371      170.305      -11.794       56.007       78.332       40.450     3136.820     6135.905     1636.181        2.013        0.545      170.910       41.406        0.059      335.884        6.812      855.567
04/14/2013  03:20:00      -13.552      188.480       -5.546       71.835       79.739       50.483     5160.217     6358.320     2548.582        2.490        0.703      188.967       46.227        0.060      335.798        6.670      855.583
04/14/2013  03:21:00      -26.255      216.999      -21.261       55.845       64.111       35.832     3118.618     4110.266     1283.929        2.837        0.426      218.581       34.753        0.025      335.812        6.692      855.606
04/14/2013  03:22:00      -24.575      207.497      -22.743       43.380       43.472       29.968     1881.849     1889.855      898.066        2.442        0.233      208.947       22.700        0.012      335.790        6.654      855.619
04/14/2013  03:23:00      -14.005      177.786      -18.901       58.257       59.159       37.063     3393.840     3499.732     1373.663        2.021        0.413      178.337       34.393        0.037      335.853        6.760      855.638
04/14/2013  03:24:00       30.017      165.396       -8.279       53.300       79.226       50.245     2840.930     6276.727     2524.524        1.998        0.582      168.098       46.607        0.077      335.788        6.651      855.623
04/14/2013  03:25:00       50.321      144.780      -14.414       58.253       79.239       50.384     3393.416     6278.803     2538.559        1.795        0.611      153.276       52.673        0.118      335.752        6.593      855.605
04/14/2013  03:26:00       54.218       88.647       16.957       65.469       94.888       58.373     4286.202     9003.720     3407.431        1.389        0.835      103.913       60.065        0.334      335.705        6.516      855.579
04/14/2013  03:27:00       38.136       80.773        0.481       45.262       45.520       40.338     2048.631     2072.091     1627.138        0.686        0.287       89.323       28.592        0.102      335.672        6.462      855.584
04/14/2013  03:28:00       36.938       72.395       -2.594       31.275       52.660       29.491      978.109     2773.121      869.711        0.562        0.231       81.274       27.925        0.118      335.587        6.319      855.587
04/14/2013  03:29:00       17.122      112.950       -5.712       33.717       38.887       29.994     1136.839     1512.174      899.654        0.832        0.177      114.240       25.143        0.048      335.538        6.239      855.602
04/14/2013  03:30:00       13.946      128.406       -5.815       43.027       76.785       37.053     1851.347     5895.965     1372.945        1.292        0.456      129.161       43.239        0.112      335.522        6.212      855.624
04/14/2013  03:31:00       25.511      149.366      -21.008       36.040       60.181       31.629     1298.916     3621.719     1000.385        1.466        0.296      151.529       28.881        0.036      335.504        6.181      855.607
04/14/2013  03:32:00      -35.107      222.538      -20.767       37.942       41.384       26.986     1439.607     1712.599      728.243        2.753        0.194      225.290       19.766        0.008      335.554        6.262      855.587
04/14/2013  03:33:00       -3.658      227.210      -20.601       43.236       53.468       28.465     1869.342     2858.873      810.228        2.880        0.277      227.239       23.325        0.011      335.662        6.441      855.586
04/14/2013  03:34:00        0.039      234.963      -33.358       39.651       44.031       29.555     1572.180     1938.767      873.487        3.035        0.219      234.963       19.953        0.007      335.784        6.645      855.568
04/14/2013  03:35:00      -12.687      150.851      -17.796       51.505       65.967       25.818     2652.749     4351.581      666.587        1.545        0.384      151.383       28.982        0.037      335.681        6.475      855.550
04/14/2013  03:36:00      -29.550      157.141       -6.027       54.601       65.798       37.884     2981.250     4329.378     1435.226        1.717        0.437      159.896       36.360        0.052      335.823        6.712      855.569
04/14/2013  03:37:00      -70.147       75.857      -15.608       66.051       50.667       29.975     4362.671     2567.174      898.475        0.937        0.391      103.319       26.115        0.064      335.811        6.693      855.597
04/14/2013  03:38:00     -162.117      107.048      -20.537       60.461       53.865       33.712     3655.535     2901.441     1136.494        2.293        0.385      194.271       27.097        0.019      335.801        6.674      855.616
04/14/2013  03:39:00      -65.449      210.668      -25.201       69.026       69.897       40.752     4764.532     4885.557     1660.724        3.030        0.566      220.600       42.027        0.036      335.963        6.944      855.610
04/14/2013  03:40:00      -48.425      272.878      -28.688       64.168       97.718       35.925     4117.580     9548.774     1290.627        4.629        0.748      277.142       38.593        0.019      335.951        6.923      855.584
04/14/2013  03:41:00      -35.019      223.660      -25.606       42.018       63.524       28.492     1765.506     4035.281      811.814        2.926        0.331      226.384       23.063        0.010      335.982        6.973      855.592
04/14/2013  03:42:00      -12.983      234.970      -26.507       54.117       80.746       39.230     2928.698     6519.901     1538.979        3.353        0.549      235.328       38.505        0.027      335.956        6.930      855.595
04/14/2013  03:43:00       14.637      262.932      -26.839       63.193       69.832       40.870     3993.318     4876.490     1670.347        4.030        0.527      263.339       40.921        0.024      335.894        6.828      855.590
04/14/2013  03:44:00       31.343      196.492      -29.469       52.180       52.081       39.030     2722.758     2712.429     1523.309        2.371        0.348      198.977       30.544        0.024      335.807        6.685      855.583
04/14/2013  03:45:00       12.015      265.283      -39.633       60.632       91.954       38.913     3676.248     8455.554     1514.253        4.287        0.682      265.555       39.222        0.022      335.781        6.640      855.569
04/14/2013  03:46:00       -7.319      196.733      -18.444       57.076       81.782       39.103     3257.653     6688.375     1529.036        2.528        0.574      196.869       40.430        0.042      335.709        6.521      855.550
04/14/2013  03:47:00       -1.589      229.815      -25.669       66.698       79.541       41.896     4448.599     6326.805     1755.305        3.300        0.627      229.821       42.535        0.034      335.664        6.444      855.556
04/14/2013  03:48:00       41.264       99.005       -2.053       38.474       77.997       37.526     1480.238     6083.470     1408.211        1.024        0.449      107.260       39.632        0.137      335.559        6.273      855.553
04/14/2013  03:49:00       60.556       85.131        4.087       54.290       36.245       29.953     2947.424     1313.693      897.169        0.804        0.258      104.471       23.413        0.050      335.484        6.149      855.565
04/14/2013  03:50:00       51.799      110.361        1.609       45.562       54.449       41.212     2075.895     2964.652     1698.422        1.080        0.337      121.913       33.578        0.076      335.475        6.134      855.615
04/14/2013  03:51:00       61.855      115.799      -17.216       48.750       55.393       39.380     2376.551     3068.332     1550.762        1.226        0.350      131.284       35.195        0.072      335.452        6.093      855.637
04/14/2013  03:52:00       78.438       68.113       -2.337       67.492       35.692       36.843     4555.237     1273.923     1357.391        0.899        0.359      103.884       24.509        0.056      335.470        6.124      855.659
04/14/2013  03:53:00      120.349       75.781       16.448       56.719       42.476       38.479     3217.010     1804.224     1480.653        1.350        0.325      142.221       31.706        0.050      335.452        6.095      855.664
04/14/2013  03:54:00      127.814       89.651       18.539       60.502       41.611       37.283     3660.524     1731.489     1390.027        1.575        0.339      156.121       28.903        0.034      335.382        5.978      855.654
04/14/2013  03:55:00      102.958      119.439       -1.800       56.480       69.422       47.298     3190.043     4819.436     2237.113        1.756        0.512      157.689       42.802        0.074      335.338        5.902      855.663
04/14/2013  03:56:00      102.716      102.536       -1.931       68.690       49.167       38.891     4718.282     2417.394     1512.477        1.486        0.432      145.135       24.445        0.028      335.311        5.858      855.676
04/14/2013  03:57:00      142.608       93.002       11.268       45.173       45.819       34.141     2040.584     2099.354     1165.575        1.721        0.265      170.254       23.624        0.019      335.292        5.828      855.692
04/14/2013  03:58:00      173.612      120.384       11.325       58.609       54.238       37.927     3434.990     2941.744     1438.459        2.629        0.391      211.266       30.055        0.020      335.291        5.825      855.698
04/14/2013  03:59:00      125.095      101.859       18.176       90.107       60.630       43.316     8119.360     3675.946     1876.250        2.001        0.684      161.320       41.468        0.066      335.310        5.856      855.683
04/14/2013  04:00:00      138.675      117.730        9.003       86.482       64.743       57.747     7479.128     4191.705     3334.747        2.409        0.750      181.910       35.177        0.037      335.282        5.808      855.697
04/14/2013  04:01:00      123.484       89.113       18.345       83.233       58.352       51.289     6927.717     3404.973     2630.600        1.824        0.648      152.281       30.613        0.040      335.250        5.757      855.667
04/14/2013  04:02:00       84.585      160.254       -8.475       58.890       99.131       63.731     3467.996     9826.910     4061.603        2.513        0.868      181.207       65.172        0.129      335.222        5.709      855.653
04/14/2013  04:03:00      122.738      104.936        3.874       80.934       59.733       55.467     6550.311     3568.070     3076.534        1.964        0.660      161.481       35.776        0.049      335.207        5.687      855.650
04/14/2013  04:04:00      130.140      106.529       11.033       68.586       52.575       53.878     4704.003     2764.168     2902.893        1.939        0.519      168.181       34.852        0.043      335.275        5.798      855.648
04/14/2013  04:05:00      129.255       88.657       18.468       67.717       55.061       55.688     4585.618     3031.713     3101.148        1.781        0.536      156.738       38.309        0.060      335.218        5.703      855.637
04/14/2013  04:06:00      110.020       86.232       11.578       87.868       51.312       54.355     7720.760     2632.961     2954.455        1.649        0.665      139.787       37.324        0.071      335.107        5.522      855.667
04/14/2013  04:07:00       84.088      111.326       -1.201       78.264       64.350       52.067     6125.286     4140.878     2710.969        1.622        0.649      139.515       34.816        0.062      335.101        5.513      855.705
04/14/2013  04:08:00       29.373      190.674      -10.847       55.826       75.822       64.437     3116.514     5749.009     4152.181        2.518        0.651      192.924       55.816        0.084      335.144        5.582      855.722
04/14/2013  04:09:00      118.294      143.040       13.829      101.682       93.255       79.484    10339.151     8696.517     6317.639        2.999        1.268      185.618       62.570        0.114      335.142        5.578      855.753
04/14/2013  04:10:00      149.284      147.476       17.506      116.619       79.053       75.015    13599.953     6249.444     5627.241        3.490        1.274      209.844       47.465        0.051      335.115        5.533      855.767
04/14/2013  04:11:00      146.406      111.397       21.972       72.581       53.962       63.170     5268.037     2911.933     3990.473        2.325        0.609      183.967       43.267        0.055      335.086        5.487      855.784
04/14/2013  04:12:00       60.875      124.723        7.258       91.037       69.286       67.587     8287.748     4800.499     4568.029        1.848        0.883      138.786       51.843        0.140      335.030        5.393      855.818
04/14/2013  04:13:00       65.116      132.446       -1.896       64.830       79.044       55.651     4202.992     6248.024     3096.995        1.766        0.677      147.587       53.500        0.131      335.008        5.357      855.826
04/14/2013  04:14:00       75.535      141.169        1.129       72.512       88.089       66.332     5257.980     7759.731     4399.903        2.152        0.871      160.107       60.881        0.145      335.067        5.455      855.826
04/14/2013  04:15:00       65.273       95.874       19.057       74.822       70.480       61.536     5598.403     4967.413     3786.717        1.408        0.718      115.985       50.884        0.192      335.059        5.443      855.835
04/14/2013  04:16:00       69.741       83.441        5.002       77.505       53.777       45.244     6006.973     2891.971     2047.043        1.140        0.547      108.748       38.112        0.123      335.079        5.476      855.852
04/14/2013  04:17:00       52.303      119.402       -4.701       56.159       68.972       39.684     3153.859     4757.164     1574.788        1.325        0.474      130.355       39.486        0.092      335.049        5.425      855.864
04/14/2013  04:18:00       22.126      103.099       -8.083       33.620       50.799       34.458     1130.336     2580.508     1187.321        0.804        0.245      105.446       29.278        0.077      335.025        5.386      855.870
04/14/2013  04:19:00       48.879      125.823       -6.465       52.959       81.574       51.903     2804.639     6654.373     2693.966        1.521        0.608      134.983       50.482        0.140      335.067        5.454      855.859
04/14/2013  04:20:00       41.636      133.238       -8.845       50.745       60.682       46.895     2575.084     3682.272     2199.143        1.401        0.423      139.592       38.281        0.075      335.089        5.493      855.850
04/14/2013  04:21:00       45.209      157.086      -24.768       51.084       74.504       40.019     2609.531     5550.887     1601.550        1.855        0.488      163.462       42.790        0.069      335.095        5.500      855.852
04/14/2013  04:22:00       21.851      150.831      -12.365       52.738       66.575       45.982     2781.291     4432.223     2114.327        1.635        0.466      152.406       44.195        0.084      335.053        5.434      855.857
04/14/2013  04:23:00       28.142      105.957      -10.654       47.667       61.944       26.873     2272.181     3837.023      722.154        0.948        0.342      109.630       30.547        0.078      335.005        5.353      855.853
04/14/2013  04:24:00       46.239       46.819       11.955       51.667       34.838       34.493     2669.465     1213.695     1189.773        0.477        0.254       65.803       19.346        0.086      335.006        5.354      855.840
04/14/2013  04:25:00       39.674       79.212       -4.075       40.135       41.683       26.855     1610.797     1737.504      721.187        0.597        0.203       88.592       22.563        0.065      334.985        5.321      855.832
04/14/2013  04:26:00       22.794      111.008      -17.665       26.933       44.185       27.778      725.369     1952.302      771.600        0.830        0.172      113.324       26.587        0.055      335.002        5.347      855.823
04/14/2013  04:27:00       13.499      148.441      -13.675       33.677       36.965       21.625     1134.137     1366.409      467.640        1.269        0.148      149.053       18.301        0.015      334.993        5.333      855.824
04/14/2013  04:28:00       12.524      112.513      -12.947       29.812       41.840       24.043      888.743     1750.608      578.068        0.810        0.161      113.208       23.366        0.043      335.032        5.397      855.830
04/14/2013  04:29:00       -3.186      154.626      -12.427       25.026       28.963       22.284      626.309      838.847      496.580        1.302        0.098      154.659       15.792        0.010      335.060        5.443      855.818
04/14/2013  04:30:00        0.952      120.613       -3.976       37.525       63.963       31.640     1408.130     4091.253     1001.106        1.053        0.325      120.617       33.990        0.079      335.044        5.417      855.811
04/14/2013  04:31:00       -7.186       86.840      -21.521       22.962       24.632       17.488      527.249      606.728      305.819        0.475        0.072       87.137       10.330        0.014      335.007        5.357      855.811
04/14/2013  04:32:00        6.344       74.859       -4.985       24.670       49.707       22.739      608.605     2470.800      517.063        0.463        0.180       75.127       25.992        0.120      335.000        5.344      855.816
04/14/2013  04:33:00      -44.143      141.938      -16.201       58.338       64.495       32.363     3403.302     4159.577     1047.356        1.548        0.431      148.644       23.588        0.025      335.093        5.498      855.848
04/14/2013  04:34:00     -101.699       95.499      -15.860       62.680       83.490       38.101     3928.734     6970.551     1451.674        1.603        0.618      139.508       34.730        0.062      335.227        5.720      855.892
04/14/2013  04:35:00      -81.150      132.841      -21.410       67.783       57.554       26.008     4594.540     3312.446      676.409        1.664        0.429      155.667       22.300        0.021      335.211        5.692      855.910
04/14/2013  04:36:00       -4.118       81.853        3.282       41.517       95.719       39.347     1723.670     9162.118     1548.222        0.958        0.622       81.957       48.762        0.354      335.225        5.716      855.901
04/14/2013  04:37:00      -59.342      225.704      -21.117       65.563       74.351       45.207     4298.478     5528.070     2043.664        3.339        0.594      233.375       43.091        0.034      335.221        5.709      855.907
04/14/2013  04:38:00      -17.595      239.937      -24.875       70.721       83.944       44.336     5001.476     7046.663     1965.712        3.625        0.701      240.581       33.742        0.020      335.248        5.752      855.901
04/14/2013  04:39:00      -56.539      171.258      -12.030       55.969       59.176       42.439     3132.488     3501.831     1801.070        2.055        0.422      180.350       33.887        0.035      335.271        5.794      855.893
04/14/2013  04:40:00      -99.054      214.981      -27.831       62.126       73.949       39.814     3859.620     5468.455     1585.128        3.386        0.546      236.703       23.967        0.010      335.215        5.698      855.917
04/14/2013  04:41:00      -81.822      170.887      -13.518       72.567       82.780       47.668     5266.008     6852.446     2272.250        2.523        0.720      189.466       44.381        0.055      335.200        5.672      855.931
04/14/2013  04:42:00       -5.074      181.538      -11.090       50.478       83.863       39.125     2548.044     7033.002     1530.744        2.211        0.556      181.609       43.953        0.059      335.160        5.608      855.929
04/14/2013  04:43:00      -57.636       53.989       -6.637       65.161       65.806       42.105     4245.984     4330.451     1772.793        0.831        0.517       78.973       45.056        0.326      335.152        5.597      855.911
04/14/2013  04:44:00      -57.858      191.798      -26.393      136.639       92.366       49.722    18670.352     8531.562     2472.287        3.525        1.484      200.335       53.964        0.073      335.205        5.681      855.912
04/14/2013  04:45:00     -144.612      220.659      -20.934       85.064      131.823       53.529     7235.887    17377.183     2865.407        4.876        1.374      263.824       66.114        0.063      335.116        5.535      855.933
04/14/2013  04:46:00      -75.113      213.681      -20.999       73.276       99.969       48.866     5369.425     9993.811     2387.883        3.474        0.888      226.499       54.677        0.058      335.114        5.531      855.942
04/14/2013  04:47:00      -17.781      160.130      -20.828       49.719       45.624       30.910     2472.002     2081.526      955.430        1.595        0.275      161.114       27.740        0.030      335.147        5.587      855.929
04/14/2013  04:48:00      -31.638      101.364      -11.782       42.766       59.499       27.138     1828.911     3540.128      736.470        0.876        0.305      106.186       32.974        0.096      335.090        5.493      855.912
04/14/2013  04:49:00      -39.005      187.098      -25.235       57.882       61.259       35.368     3350.373     3752.605     1250.880        2.276        0.418      191.120       28.994        0.023      335.043        5.414      855.914
04/14/2013  04:50:00     -140.781      146.176      -32.256       42.829       53.703       29.734     1834.289     2883.991      884.101        2.391        0.280      202.945       20.556        0.010      335.047        5.421      855.916
04/14/2013  04:51:00      -25.112      151.047      -15.011       55.336       72.146       37.762     3062.092     5205.058     1425.938        1.668        0.485      153.120       33.301        0.047      335.054        5.433      855.929
04/14/2013  04:52:00        6.206      120.220       -9.217       46.590       63.375       32.369     2170.584     4016.423     1047.742        1.090        0.362      120.380       34.614        0.083      335.016        5.370      855.929
04/14/2013  04:53:00       18.094      171.206      -22.321       32.028       85.225       38.025     1025.812     7263.269     1445.932        1.993        0.487      172.159       47.881        0.077      334.960        5.276      855.939
04/14/2013  04:54:00       45.085       76.997       -4.340       40.760       52.469       35.253     1661.413     2753.022     1242.795        0.682        0.283       89.226       27.582        0.096      334.923        5.217      855.919
04/14/2013  04:55:00       56.689       88.392       -4.614       41.470       46.291       30.449     1719.798     2142.832      927.123        0.792        0.239      105.009       24.533        0.055      334.939        5.241      855.880
04/14/2013  04:56:00       77.152       59.263        6.996       44.375       30.806       31.313     1969.130      948.990      980.533        0.671        0.195       97.286       17.074        0.031      334.930        5.227      855.851
04/14/2013  04:57:00      -19.798       93.579      -11.140       58.883       58.259       37.326     3467.159     3394.166     1393.259        0.876        0.413       95.651       36.557        0.146      334.919        5.210      855.830
04/14/2013  04:58:00        9.718      199.018      -29.833       39.093       57.393       27.023     1528.257     3294.005      730.256        2.307        0.278      199.255       27.355        0.019      334.894        5.166      855.797
04/14/2013  04:59:00     -103.529      289.378      -42.818      107.611       78.168       44.251    11580.046     6110.273     1958.191        5.797        0.982      307.340       39.743        0.017      335.016        5.369      855.783
04/14/2013  05:00:00      -84.802      130.964      -17.131       60.458       57.320       39.559     3655.166     3285.529     1564.887        1.657        0.425      156.023       42.638        0.075      334.947        5.257      855.751
04/14/2013  05:01:00      -50.008      127.941      -19.319       37.173       46.935       22.786     1381.827     2202.858      519.188        1.167        0.205      137.367       23.222        0.029      334.987        5.323      855.711
04/14/2013  05:02:00      -66.318      194.123      -35.220       86.570       63.873       43.076     7494.435     4079.754     1855.519        2.837        0.671      205.139       50.686        0.061      334.914        5.199      855.680
04/14/2013  05:03:00     -176.689      156.271      -35.496       74.558       56.032       43.002     5558.906     3139.533     1849.141        3.372        0.527      235.881       40.169        0.029      334.885        5.149      855.654
04/14/2013  05:04:00     -151.946      168.775      -23.652       75.651       90.550       51.774     5723.079     8199.298     2680.543        3.436        0.830      227.096       57.250        0.064      334.868        5.121      855.655
04/14/2013  05:05:00     -156.531      300.838      -50.434       85.078       87.561       47.748     7238.234     7666.923     2279.824        6.736        0.859      339.125       46.835        0.019      334.904        5.180      855.658
04/14/2013  05:06:00     -159.194      165.712      -34.572       70.876       88.127       38.864     5023.459     7766.360     1510.410        3.415        0.715      229.790       35.717        0.024      334.824        5.047      855.650
04/14/2013  05:07:00     -126.317      201.818      -24.996       66.908       90.401       51.171     4476.720     8172.293     2618.448        3.629        0.763      238.090       48.939        0.042      334.795        5.001      855.671
04/14/2013  05:08:00     -132.898      203.971      -22.589       85.002       76.827       47.350     7225.377     5902.419     2242.067        3.757        0.768      243.446       43.288        0.032      334.816        5.034      855.717
04/14/2013  05:09:00      -98.370      209.444      -27.409       57.523       69.937       33.266     3308.926     4891.179     1106.660        3.180        0.465      231.394       40.289        0.030      334.791        4.993      855.739
04/14/2013  05:10:00      -91.911      195.611      -17.593       88.239       76.558       51.679     7786.047     5861.136     2670.733        3.167        0.816      216.128       47.464        0.048      334.837        5.071      855.741
04/14/2013  05:11:00      -66.582      180.824      -14.407       67.330       60.859       39.735     4533.383     3703.761     1578.889        2.358        0.491      192.693       39.298        0.042      334.835        5.068      855.737
04/14/2013  05:12:00      -26.338      171.669      -15.383       56.202       65.860       35.681     3158.648     4337.564     1273.111        1.958        0.438      173.678       33.028        0.036      334.825        5.052      855.716
04/14/2013  05:13:00      -35.470      153.451       -2.487       42.424       83.292       33.847     1799.767     6937.637     1145.590        1.735        0.494      157.497       34.712        0.049      334.821        5.043      855.703
04/14/2013  05:14:00      -95.752       69.021       -6.627       48.612       33.842       27.039     2363.147     1145.289      731.099        0.911        0.212      118.035       19.897        0.028      334.820        5.044      855.719
04/14/2013  05:15:00     -124.116       64.349      -23.354       30.162       34.713       23.849      909.763     1204.972      568.794        1.139        0.134      139.805       19.376        0.019      334.782        4.982      855.740
04/14/2013  05:16:00     -119.337      128.443      -26.469       52.025       68.475       36.466     2706.584     4688.857     1329.746        2.008        0.436      175.325       31.264        0.032      334.778        4.973      855.773
04/14/2013  05:17:00      -98.916      143.628      -20.987       64.053       66.892       45.092     4102.785     4474.493     2033.256        2.073        0.531      174.395       38.174        0.048      334.780        4.976      855.781
04/14/2013  05:18:00      -34.055      149.243      -19.423       60.499       56.837       29.858     3660.145     3230.412      891.513        1.579        0.389      153.079       22.277        0.021      334.799        5.010      855.753
04/14/2013  05:19:00      -36.754      119.441       -6.383       58.029       44.096       32.878     3367.315     1944.416     1080.977        1.102        0.320      124.968       25.863        0.043      334.790        4.995      855.729
04/14/2013  05:20:00       13.305       98.552       -7.573       38.297       45.641       27.876     1466.681     2083.060      777.083        0.714        0.216       99.446       27.149        0.075      334.728        4.893      855.711
04/14/2013  05:21:00       90.600       40.712       11.572       43.251       39.373       34.865     1870.685     1550.222     1215.542        0.732        0.232       99.327       24.246        0.060      334.649        4.761      855.692
04/14/2013  05:22:00      128.880       90.248       14.814       44.042       26.252       34.011     1939.728      689.166     1156.716        1.438        0.189      157.337       21.240        0.018      334.539        4.577      855.675
04/14/2013  05:23:00       78.881       81.661       34.579       40.685       29.928       32.672     1655.289      895.686     1067.432        0.885        0.181      113.537       30.426        0.072      334.493        4.502      855.671
04/14/2013  05:24:00       95.170       66.666       26.036       42.660       24.685       23.292     1819.890      609.333      542.511        0.858        0.149      116.197       10.629        0.008      334.450        4.431      855.658
04/14/2013  05:25:00       89.035       50.377       19.537       38.447       39.002       23.422     1478.187     1521.182      548.611        0.720        0.177      102.299       12.568        0.015      334.412        4.366      855.625
04/14/2013  05:26:00       79.076        4.015        7.032       49.946       35.666       29.148     2494.587     1272.069      849.618        0.547        0.231       79.178       24.322        0.094      334.331        4.234      855.580
04/14/2013  05:27:00       54.652       15.421        6.442       44.061       35.007       31.952     1941.353     1225.459     1020.952        0.373        0.209       56.786       23.888        0.177      334.385        4.324      855.556
04/14/2013  05:28:00       72.439       20.431        8.468       33.479       25.730       22.575     1120.845      662.047      509.648        0.401        0.115       75.265       12.721        0.029      334.373        4.303      855.560
04/14/2013  05:29:00       34.512       32.996       14.286       21.942       28.796       20.257      481.459      829.183      410.337        0.210        0.086       47.747        9.531        0.040      334.419        4.379      855.557
04/14/2013  05:30:00       60.704       46.115       28.810       18.148       13.086       13.057      329.353      171.256      170.494        0.366        0.034       76.233        9.056        0.014      334.417        4.377      855.551
04/14/2013  05:31:00       35.689       44.803       24.534       29.532       21.143       18.861      872.121      447.043      355.720        0.278        0.084       57.280       10.701        0.035      334.438        4.410      855.538
04/14/2013  05:32:00       54.188       53.545       24.293       22.648       16.824       20.821      512.945      283.040      433.533        0.381        0.061       76.181        4.421        0.003      334.491        4.498      855.535
04/14/2013  05:33:00       51.152       36.316        7.531       15.503       17.824       13.113      240.339      317.700      171.952        0.236        0.036       62.733        8.589        0.019      334.404        4.355      855.535
04/14/2013  05:34:00       34.649       24.094        9.854       34.093       19.745       18.878     1162.361      389.857      356.394        0.189        0.095       42.203       13.237        0.098      334.477        4.475      855.540
04/14/2013  05:35:00       59.224       47.747        4.347       54.495       50.603       36.335     2969.666     2560.676     1320.214        0.633        0.343       76.074       28.817        0.143      334.459        4.446      855.550
04/14/2013  05:36:00       26.542      122.056      -10.431       49.119       46.235       33.558     2412.628     2137.713     1126.145        1.069        0.284      124.908       23.269        0.035      334.540        4.579      855.530
04/14/2013  05:37:00       75.219       53.551        2.139       34.869       28.019       19.526     1215.878      785.053      381.273        0.546        0.119       92.334       12.236        0.018      334.513        4.535      855.486
04/14/2013  05:38:00       77.604       33.314        4.815       20.687       22.992       20.414      427.964      528.619      416.714        0.426        0.069       84.453       13.130        0.024      334.512        4.533      855.453
04/14/2013  05:39:00       15.912       48.275       52.937       20.567       29.824       28.138      423.020      889.469      791.725        0.374        0.105       50.830       21.300        0.176      334.539        4.577      855.420
04/14/2013  05:40:00       44.457       37.993       68.797       57.875       51.295       39.975     3349.545     2631.165     1597.996        0.786        0.379       58.480       37.510        0.411      334.509        4.527      855.393
04/14/2013  05:41:00      126.423       52.354       27.366       65.251       49.972       48.277     4257.755     2497.218     2330.664        1.428        0.454      136.835       25.523        0.035      334.446        4.425      855.358
04/14/2013  05:42:00      122.547       73.453       50.580       69.181       49.125       52.949     4786.018     2413.303     2803.569        1.649        0.500      142.874       36.554        0.065      334.436        4.407      855.311
04/14/2013  05:43:00       87.194       68.812       67.608       55.611       54.546       53.159     3092.535     2975.298     2825.830        1.290        0.445      111.076       44.427        0.160      334.479        4.478      855.270
04/14/2013  05:44:00      117.774       78.048       56.503       49.486       41.181       34.447     2448.885     1695.863     1186.585        1.424        0.267      141.288       27.970        0.039      334.449        4.430      855.256
04/14/2013  05:45:00      195.527       99.909       19.981       49.568       40.406       42.619     2456.944     1632.682     1816.345        2.726        0.295      219.574       19.362        0.008      334.465        4.453      855.279
04/14/2013  05:46:00      116.722       72.877       32.287       54.580       59.995       36.636     2978.953     3599.361     1342.167        1.395        0.396      137.605       23.324        0.029      334.469        4.462      855.307
04/14/2013  05:47:00      171.471      104.043       24.661       70.576       49.302       45.683     4981.016     2430.697     2086.953        2.517        0.475      200.567       25.305        0.016      334.469        4.459      855.323
04/14/2013  05:48:00      159.663       97.512       15.882       45.301       37.752       35.659     2052.205     1425.190     1271.593        2.000        0.237      187.085       16.522        0.008      334.457        4.440      855.346
04/14/2013  05:49:00      164.525       93.770        6.660       49.089       36.549       27.570     2409.757     1335.796      760.093        2.020        0.225      189.370       12.752        0.005      334.337        4.241      855.390
04/14/2013  05:50:00      144.585       88.262       11.068       42.255       37.565       24.866     1785.485     1411.144      618.326        1.632        0.191      169.396       16.958        0.010      334.309        4.196      855.413
04/14/2013  05:51:00      152.041       58.874       10.240       54.224       54.240       36.060     2940.235     2942.029     1300.309        1.693        0.359      163.042       17.541        0.012      334.296        4.175      855.404
04/14/2013  05:52:00      116.762       54.204        9.856       55.576       40.737       41.555     3088.662     1659.489     1726.787        1.157        0.324      128.730       23.226        0.033      334.244        4.089      855.387
04/14/2013  05:53:00       95.359       84.736        6.061       59.080       44.555       30.662     3490.447     1985.126      940.152        1.136        0.321      127.568       25.973        0.041      334.243        4.086      855.356
04/14/2013  05:54:00       76.816      104.372        0.646       61.944       59.360       39.695     3837.033     3523.619     1575.668        1.286        0.447      129.593       37.857        0.085      334.242        4.086      855.358
04/14/2013  05:55:00        6.193      175.896      -13.541       47.633       49.332       40.014     2268.934     2433.637     1601.095        1.873        0.315      176.005       32.617        0.034      334.272        4.134      855.389
04/14/2013  05:56:00      -26.864      150.554      -10.458       65.503       83.943       37.803     4290.593     7046.502     1429.065        1.813        0.638      152.931       46.909        0.094      334.333        4.234      855.442
04/14/2013  05:57:00      -43.934      167.312      -16.722       42.306       58.167       31.879     1789.809     3383.450     1016.268        1.820        0.309      172.984       29.090        0.028      334.451        4.430      855.491
04/14/2013  05:58:00      -89.191      135.664      -13.546       55.737       81.478       34.721     3106.615     6638.633     1205.516        1.875        0.548      162.357       27.802        0.029      334.650        4.760      855.518
04/14/2013  05:59:00      -74.248      101.601      -13.779       48.878       65.093       31.381     2389.070     4237.162      984.740        1.182        0.381      125.839       27.521        0.048      334.577        4.641      855.560
04/14/2013  06:00:00      -92.558       74.566      -21.537       57.935       68.958       37.794     3356.440     4755.248     1428.367        1.206        0.477      118.858       34.476        0.084      334.635        4.736      855.563
04/14/2013  06:01:00      -75.533      159.400      -16.254       48.376       71.104       36.910     2340.269     5055.846     1362.324        2.007        0.438      176.390       35.762        0.041      334.606        4.687      855.563
04/14/2013  06:02:00      -87.218      115.937      -15.734       46.467       67.161       36.759     2159.206     4510.567     1351.187        1.466        0.401      145.081       33.850        0.054      334.617        4.707      855.564
04/14/2013  06:03:00     -109.965      115.236      -21.772       51.953       49.768       30.687     2699.113     2476.899      941.698        1.598        0.306      159.284       30.312        0.036      334.631        4.729      855.573
04/14/2013  06:04:00      -84.718      152.153      -24.495       42.375       63.958       29.687     1795.682     4090.605      881.324        1.885        0.338      174.148       26.551        0.023      334.632        4.730      855.563
04/14/2013  06:05:00     -129.695      133.038      -21.475       63.645       78.984       35.440     4050.699     6238.486     1255.990        2.326        0.577      185.795       36.192        0.038      334.614        4.699      855.550
04/14/2013  06:06:00     -117.623      120.933      -21.044       45.735       46.713       30.856     2091.692     2182.086      952.086        1.706        0.261      168.701       20.498        0.015      334.571        4.631      855.558
04/14/2013  06:07:00     -108.418      156.720      -29.231       42.299       74.685       33.959     1789.164     5577.846     1153.181        2.284        0.426      190.567       21.103        0.012      334.558        4.606      855.565
04/14/2013  06:08:00      -59.837      104.201      -10.237       37.153       70.227       30.452     1380.311     4931.822      927.333        1.089        0.362      120.160       30.712        0.065      334.572        4.632      855.554
04/14/2013  06:09:00      -63.186      158.107      -18.810       44.522       57.237       29.121     1982.190     3276.111      848.017        1.772        0.305      170.265       28.417        0.028      334.546        4.588      855.540
04/14/2013  06:10:00      -98.585      100.791      -21.565       54.115       90.304       30.650     2928.412     8154.784      939.422        1.618        0.601      140.989       35.888        0.065      334.566        4.621      855.540
04/14/2013  06:11:00      -43.244       70.213      -10.438       35.111       44.496       26.064     1232.797     1979.921      679.322        0.540        0.195       82.462       26.457        0.103      334.525        4.556      855.562
04/14/2013  06:12:00      -50.899      112.724      -13.559       39.122       78.975       26.949     1530.513     6237.126      726.259        1.199        0.425      123.683       34.696        0.079      334.576        4.638      855.582
04/14/2013  06:13:00      -72.702      103.594      -17.758       53.086       50.234       29.352     2818.162     2523.419      861.537        1.127        0.310      126.559       31.720        0.063      334.582        4.649      855.588
04/14/2013  06:14:00      -87.764       78.039      -21.170       41.763       52.935       25.931     1744.167     2802.065      672.404        0.973        0.261      117.442       20.003        0.029      334.552        4.600      855.612
04/14/2013  06:15:00      -64.979      160.223      -15.359       68.649       59.481       36.703     4712.714     3537.965     1347.120        1.986        0.480      172.897       36.792        0.045      334.528        4.558      855.635
04/14/2013  06:16:00      -77.401      118.994      -15.438       34.676       58.871       25.105     1202.429     3465.760      630.249        1.284        0.265      141.952       28.918        0.042      334.538        4.576      855.641
04/14/2013  06:17:00      -61.287       56.789      -17.439       36.273       41.118       22.424     1315.749     1690.694      502.852        0.540        0.175       83.552       18.935        0.051      334.564        4.620      855.638
04/14/2013  06:18:00      -72.988       89.266      -21.725       38.493       44.921       25.504     1481.729     2017.853      650.478        0.896        0.208      115.307       17.571        0.023      334.503        4.519      855.638
04/14/2013  06:19:00      -82.971       75.249       -3.167       62.525       66.158       34.059     3909.424     4376.841     1160.049        1.100        0.472      112.012       39.298        0.123      334.540        4.579      855.646
04/14/2013  06:20:00      -51.102      173.558      -24.223       43.191       64.585       35.365     1865.500     4171.190     1250.704        2.030        0.364      180.925       25.770        0.020      334.555        4.601      855.654
04/14/2013  06:21:00      -59.194      149.345      -14.867       67.458       62.291       36.533     4550.556     3880.167     1334.643        1.790        0.488      160.648       37.990        0.056      334.573        4.632      855.641
04/14/2013  06:22:00      -29.915      124.597      -11.335       49.235       58.701       26.251     2424.086     3445.784      689.096        1.155        0.328      128.138       23.442        0.033      334.577        4.641      855.602
04/14/2013  06:23:00      -69.357      128.306      -17.897       48.772       51.537       35.101     2378.722     2656.056     1232.066        1.393        0.313      145.852       24.386        0.028      334.561        4.613      855.592
04/14/2013  06:24:00     -101.241      134.963      -29.896       56.956       61.046       29.901     3243.969     3726.556      894.079        1.861        0.393      168.715       34.007        0.041      334.613        4.700      855.572
04/14/2013  06:25:00     -121.669      156.638      -25.737       57.593       92.126       38.890     3316.995     8487.194     1512.461        2.666        0.666      198.340       37.419        0.036      334.597        4.672      855.569
04/14/2013  06:26:00     -125.791      149.115      -31.637       60.126       64.120       35.496     3615.076     4111.386     1259.970        2.402        0.449      195.086       31.376        0.026      334.553        4.598      855.562
04/14/2013  06:27:00      -93.001       92.812      -18.139       52.795       45.623       33.672     2787.300     2081.488     1133.817        1.180        0.300      131.390       31.015        0.056      334.539        4.577      855.554
04/14/2013  06:28:00     -123.084      170.006      -30.044       67.104       68.008       45.910     4502.915     4625.080     2107.697        2.809        0.562      209.884       44.792        0.046      334.563        4.614      855.551
04/14/2013  06:29:00     -147.880      131.143      -36.132       73.068       60.210       30.630     5338.862     3625.301      938.223        2.514        0.495      197.653       34.712        0.031      334.566        4.621      855.543
04/14/2013  06:30:00     -101.394      153.386      -27.692       74.427       84.523       44.150     5539.398     7144.187     1949.209        2.460        0.732      183.870       40.986        0.050      334.582        4.648      855.545
04/14/2013  06:31:00     -124.609      157.045      -30.684       70.060       66.001       36.585     4908.449     4356.144     1338.448        2.587        0.530      200.476       41.350        0.043      334.540        4.576      855.526
04/14/2013  06:32:00      -97.912      150.948      -20.185       69.873       69.859       44.144     4882.248     4880.291     1948.680        2.224        0.586      179.922       42.435        0.056      334.613        4.697      855.519
04/14/2013  06:33:00     -111.429      169.820      -25.310       62.582       80.290       33.575     3916.516     6446.542     1127.273        2.669        0.575      203.114       23.904        0.014      334.584        4.648      855.520
04/14/2013  06:34:00      -66.907      201.053      -15.163       59.778       78.956       37.516     3573.418     6234.119     1407.473        2.817        0.561      211.894       32.933        0.024      334.574        4.631      855.541
04/14/2013  06:35:00      -58.013       87.736      -10.908       52.483       66.556       36.597     2754.438     4429.642     1339.373        0.985        0.426      105.181       33.768        0.103      334.622        4.715      855.563
04/14/2013  06:36:00      -36.662      133.981       -7.303       46.960      105.822       33.524     2205.268    11198.342     1123.881        1.694        0.726      138.907       44.117        0.101      334.641        4.748      855.582
04/14/2013  06:37:00      -53.895      209.532      -20.388       36.430       53.709       30.072     1327.133     2884.691      904.322        2.617        0.256      216.352       21.935        0.010      334.591        4.661      855.584
04/14/2013  06:38:00      -48.146      105.631       -3.691       51.616       66.832       42.646     2664.228     4466.460     1818.662        1.122        0.447      116.086       44.191        0.145      334.614        4.703      855.587
04/14/2013  06:39:00      -45.423      140.820      -11.124       51.977       63.935       40.091     2701.647     4087.622     1607.301        1.521        0.420      147.965       37.551        0.064      334.584        4.651      855.577
04/14/2013  06:40:00       -7.416      220.095      -32.311       39.516       58.529       24.747     1561.492     3425.635      612.412        2.757        0.280      220.220       19.995        0.008      334.549        4.590      855.568
04/14/2013  06:41:00      -49.586      240.968      -29.545       42.821       50.884       27.722     1833.618     2589.203      768.523        3.329        0.260      246.017       21.987        0.008      334.526        4.551      855.572
04/14/2013  06:42:00      -32.010      220.738      -29.069       47.977       51.059       24.571     2301.770     2607.023      603.756        2.805        0.276      223.047       20.976        0.009      334.522        4.547      855.580
04/14/2013  06:43:00      -32.745      136.303      -11.036       60.884       59.013       36.550     3706.880     3482.523     1335.881        1.415        0.426      140.181       38.110        0.074      334.557        4.608      855.600
04/14/2013  06:44:00      -44.995      140.911      -15.258       35.884       60.338       21.524     1287.689     3640.689      463.292        1.375        0.270      147.920       20.505        0.019      334.550        4.596      855.621
04/14/2013  06:45:00     -109.747       80.735      -13.907       77.415       73.538       35.957     5993.027     5407.772     1292.926        1.572        0.635      136.245       32.048        0.055      334.631        4.730      855.640
04/14/2013  06:46:00     -107.558      122.684      -23.101       72.903       63.640       42.742     5314.796     4050.007     1826.917        1.917        0.560      163.157       43.924        0.072      334.607        4.689      855.652
04/14/2013  06:47:00      -92.651      125.378      -19.059       50.136       67.532       31.629     2513.663     4560.615     1000.416        1.637        0.404      155.897       30.689        0.039      334.569        4.627      855.643
04/14/2013  06:48:00      -89.290      157.779      -26.990       54.346       71.537       39.060     2953.466     5117.569     1525.671        2.159        0.480      181.292       41.829        0.053      334.538        4.575      855.632
04/14/2013  06:49:00      -74.961      159.994      -14.676       36.183       68.444       29.082     1309.208     4684.613      845.755        1.914        0.342      176.684       24.789        0.020      334.568        4.624      855.607
04/14/2013  06:50:00      -54.320      145.301       -9.126       44.415       64.814       35.830     1972.689     4200.835     1283.778        1.580        0.373      155.123       27.225        0.031      334.595        4.670      855.583
04/14/2013  06:51:00      -63.268       80.539       -2.951       63.915       71.786       28.563     4085.079     5153.300      815.829        1.027        0.503      102.418       27.239        0.071      334.614        4.701      855.566
04/14/2013  06:52:00      -40.425      181.968      -14.806       39.974       93.884       27.430     1597.901     8814.121      752.420        2.306        0.558      186.404       16.401        0.008      334.561        4.611      855.562
04/14/2013  06:53:00      -50.010      136.462       -7.777       31.109       56.860       29.486      967.791     3233.039      869.404        1.313        0.254      145.337       29.543        0.041      334.609        4.693      855.570
04/14/2013  06:54:00      -36.360      104.674      -12.567       33.833       51.521       25.252     1144.667     2654.372      637.680        0.844        0.222      110.809       20.626        0.035      334.676        4.805      855.570
04/14/2013  06:55:00      -43.289       99.067      -10.422       32.753       51.317       23.951     1072.739     2633.473      573.659        0.804        0.214      108.112       23.504        0.047      334.686        4.821      855.554
04/14/2013  06:56:00      -42.099      116.290       -9.578       27.813       52.231       27.263      773.565     2728.049      743.296        0.982        0.212      123.676       24.546        0.039      334.686        4.822      855.538
04/14/2013  06:57:00      -50.857       31.336        0.745       36.537       65.031       22.779     1334.951     4228.982      518.886        0.482        0.304       59.736       27.241        0.208      334.797        5.007      855.518
04/14/2013  06:58:00        8.244       65.652        7.683       32.075       61.750       33.054     1028.797     3813.004     1092.592        0.518        0.297       66.168       24.838        0.141      334.803        5.016      855.498
04/14/2013  06:59:00      -13.467      107.071       -8.176       21.925       42.696       25.357      480.704     1822.950      642.993        0.733        0.147      107.914       22.005        0.042      334.714        4.869      855.487
04/14/2013  07:00:00      -19.239       73.665       -2.086       42.695       55.779       25.200     1822.896     3111.261      635.041        0.568        0.278       76.136       27.098        0.127      334.791        4.998      855.489
04/14/2013  07:01:00      -44.080       55.573       -5.653       31.304       43.870       18.636      979.964     1924.549      347.306        0.416        0.163       70.933       21.263        0.090      334.852        5.097      855.478
04/14/2013  07:02:00      -63.446       29.201        1.445       40.319       24.561       23.218     1625.593      603.223      539.071        0.382        0.138       69.843       22.111        0.100      334.807        5.023      855.475
04/14/2013  07:03:00       11.422      113.190       -6.401       31.637       58.604       22.341     1000.870     3434.457      499.104        0.896        0.247      113.765       24.661        0.047      334.768        4.957      855.473
04/14/2013  07:04:00      -18.149       52.125        8.799       29.708       37.917       19.897      882.544     1437.737      395.885        0.292        0.136       55.194       16.253        0.087      334.867        5.124      855.473
04/14/2013  07:05:00      -61.429       27.593      -10.298       15.583       25.896       12.579      242.844      670.585      158.234        0.286        0.054       67.342        8.906        0.017      334.828        5.057      855.465
04/14/2013  07:06:00       -5.209       34.901       14.569       49.662       17.019       23.742     2466.353      289.655      563.695        0.239        0.166       35.287       28.559        0.655      334.992        5.331      855.458
04/14/2013  07:07:00       64.254       53.339        3.496       22.479       16.788       24.272      505.297      281.846      589.109        0.418        0.069       83.508        9.980        0.014      334.891        5.162      855.429
04/14/2013  07:08:00       66.980       39.602        0.041       30.478       27.237       29.287      928.907      741.866      857.756        0.429        0.126       77.812       15.515        0.040      334.935        5.234      855.411
04/14/2013  07:09:00       82.336       83.608        3.955       48.971       31.192       34.795     2398.194      972.921     1210.697        0.918        0.229      117.344       21.126        0.032      334.837        5.072      855.404
04/14/2013  07:10:00      101.022       73.061       11.237       50.832       37.020       27.825     2583.924     1370.517      774.238        1.020        0.236      124.673       21.044        0.028      334.843        5.082      855.414
04/14/2013  07:11:00       93.697       55.443       16.788       29.355       28.175       32.521      861.693      793.809     1057.625        0.742        0.136      108.872       11.734        0.012      334.804        5.016      855.425
04/14/2013  07:12:00       46.874       41.186       12.450       35.644       28.717       24.416     1270.523      824.682      596.137        0.337        0.135       62.397       15.686        0.063      334.948        5.257      855.444
04/14/2013  07:13:00       67.189       27.959       13.637       45.369       33.121       28.499     2058.367     1096.997      812.203        0.472        0.198       72.774       18.196        0.063      334.977        5.306      855.461
04/14/2013  07:14:00       63.534       43.123        3.268       62.534       33.631       26.284     3910.537     1131.061      690.870        0.582        0.287       76.786       22.932        0.089      334.891        5.163      855.459
04/14/2013  07:15:00       62.223       42.703       14.573       34.785       22.015       19.146     1210.023      484.668      366.572        0.398        0.103       75.467       16.421        0.047      334.956        5.270      855.456
04/14/2013  07:16:00       63.986       60.341        2.701       28.125       27.398       26.551      791.006      750.653      704.973        0.499        0.112       87.951        9.970        0.013      334.808        5.025      855.464
04/14/2013  07:17:00       42.436       60.579       37.101       21.278       22.723       27.593      452.745      516.336      761.397        0.429        0.087       73.964       17.774        0.058      334.863        5.117      855.458
04/14/2013  07:18:00       28.397       22.123       13.296       21.380       21.108       19.644      457.098      445.560      385.904        0.138        0.064       35.998       13.588        0.142      335.041        5.412      855.450
04/14/2013  07:19:00       35.041       62.890       13.674       35.917       32.673       23.895     1290.007     1067.521      570.988        0.415        0.146       71.993       19.409        0.073      335.071        5.462      855.458
04/14/2013  07:20:00       46.287       74.954       12.028       34.287       55.393       34.495     1175.627     3068.393     1189.925        0.667        0.272       88.094       31.727        0.130      334.932        5.232      855.470
04/14/2013  07:21:00      -18.322      126.853       -8.166       34.300       61.988       29.054     1176.483     3842.517      844.142        1.118        0.293      128.169       33.489        0.068      334.848        5.091      855.468
04/14/2013  07:22:00      -70.864       69.765       -0.818       39.752       53.365       32.439     1580.220     2847.789     1052.303        0.768        0.274       99.443       24.072        0.059      334.869        5.125      855.461
04/14/2013  07:23:00      -21.648       98.449       -3.586       40.279       61.511       29.579     1622.372     3783.562      874.889        0.823        0.314      100.801       21.712        0.046      335.009        5.358      855.445
04/14/2013  07:24:00        4.511       89.587       -8.665       23.226       48.423       25.620      539.449     2344.791      656.369        0.583        0.177       89.700       26.530        0.087      334.942        5.248      855.414
04/14/2013  07:25:00      -12.955      160.922       -7.044       47.502       55.067       40.329     2256.404     3032.393     1626.429        1.651        0.346      161.442       35.140        0.047      334.928        5.223      855.396
04/14/2013  07:26:00      -27.215      207.222      -22.757       36.578       47.811       24.911     1337.986     2285.878      620.583        2.422        0.212      209.002       17.164        0.007      334.780        4.974      855.390
04/14/2013  07:27:00        2.090       95.788        8.462       31.889       87.498       32.258     1016.938     7655.862     1040.585        0.948        0.486       95.811       42.713        0.199      335.066        5.452      855.369
04/14/2013  07:28:00        9.290      119.492      -15.372       36.648       47.324       27.582     1343.110     2239.533      760.792        0.947        0.217      119.852       24.750        0.043      334.976        5.305      855.345
04/14/2013  07:29:00      -39.785      177.736      -24.210       44.667       34.315       23.617     1995.180     1177.550      557.771        1.874        0.187      182.135       16.978        0.009      334.780        4.978      855.332
04/14/2013  07:30:00      -36.729      180.356      -17.462       47.101       49.626       30.979     2218.491     2462.714      959.678        1.991        0.282      184.058       25.534        0.019      334.834        5.067      855.328
04/14/2013  07:31:00      -11.076      152.120      -14.554       28.544       60.070       28.744      814.735     3608.456      826.212        1.436        0.262      152.523       32.393        0.045      335.077        5.471      855.336
04/14/2013  07:32:00       41.550       76.204        6.608       40.703       48.327       41.229     1656.745     2335.458     1699.831        0.663        0.285       86.795       33.607        0.150      335.294        5.833      855.342
04/14/2013  07:33:00      -24.716      143.069      -14.752       48.450       49.621       29.837     2347.361     2462.275      890.218        1.350        0.285      145.188       26.401        0.033      335.077        5.472      855.343
04/14/2013  07:34:00      -32.490      155.324      -12.140       60.832       50.110       33.218     3700.581     2511.000     1103.419        1.632        0.366      158.685       33.283        0.044      334.942        5.245      855.344
04/14/2013  07:35:00       26.541       45.398        4.042       26.257       40.134       28.628      689.421     1610.712      819.575        0.295        0.156       52.587       23.872        0.206      335.405        6.017      855.355
04/14/2013  07:36:00       72.656       59.636       10.415       38.610       25.663       27.450     1490.718      658.600      753.480        0.592        0.145       93.996       20.910        0.049      335.192        5.661      855.374
04/14/2013  07:37:00       -0.335       38.380       10.135       33.502       26.555       22.289     1122.366      705.187      496.809        0.195        0.116       38.382       18.288        0.227      335.409        6.024      855.404
04/14/2013  07:38:00      -22.989       59.835       -1.321       64.031       33.924       26.510     4099.980     1150.819      702.763        0.503        0.298       64.099       26.204        0.167      335.231        5.727      855.428
04/14/2013  07:39:00        1.908      161.482       -8.590       40.176       87.894       33.068     1614.089     7725.281     1093.460        1.829        0.522      161.493       42.749        0.070      335.218        5.706      855.465
04/14/2013  07:40:00      -65.196      206.909      -16.456       37.734       54.228       30.044     1423.848     2940.641      902.627        2.630        0.263      216.937       25.050        0.013      335.019        5.374      855.483
04/14/2013  07:41:00      -73.262      185.153      -14.154       38.391       53.999       32.944     1473.900     2915.927     1085.313        2.266        0.274      199.120       27.555        0.019      335.076        5.469      855.495
04/14/2013  07:42:00      -15.419      178.977      -12.921       38.335       83.500       37.194     1469.588     6972.171     1383.400        2.113        0.491      179.640       46.207        0.066      335.132        5.562      855.490
04/14/2013  07:43:00      -96.202      137.269      -18.556       46.995       48.543       30.489     2208.492     2356.417      929.566        1.697        0.275      167.623       32.199        0.037      335.007        5.354      855.476
04/14/2013  07:44:00      -31.342       51.573        7.515       52.561       40.168       31.615     2762.610     1613.492      999.492        0.454        0.269       60.350       30.191        0.250      335.430        6.058      855.471
04/14/2013  07:45:00       -6.537       86.319       -5.632       45.093       48.331       29.265     2033.415     2335.893      856.435        0.637        0.261       86.566       26.475        0.094      335.350        5.926      855.474
04/14/2013  07:46:00      -34.627      143.033      -11.325       59.722       55.415       32.966     3566.670     3070.868     1086.740        1.475        0.386      147.165       26.521        0.032      335.227        5.720      855.472
04/14/2013  07:47:00      -14.592      220.213      -19.265       36.595       58.947       33.418     1339.190     3474.768     1116.736        2.750        0.297      220.696       30.703        0.019      335.146        5.583      855.474
04/14/2013  07:48:00      -51.653      203.018       -9.920       51.957       68.708       43.454     2699.491     4720.821     1888.275        2.664        0.465      209.486       35.077        0.028      335.305        5.848      855.455
04/14/2013  07:49:00      -17.404      157.612       -8.430       53.392       55.164       34.158     2850.721     3043.105     1166.784        1.614        0.353      158.570       28.693        0.033      335.455        6.101      855.451
04/14/2013  07:50:00      -13.446      226.901      -19.033       23.477       52.848       31.150      551.167     2792.872      970.317        2.817        0.216      227.299       29.784        0.017      335.141        5.576      855.450
04/14/2013  07:51:00      -27.235      239.426      -26.632       34.622       43.167       24.801     1198.685     1863.410      615.069        3.123        0.184      240.970       20.590        0.007      335.046        5.416      855.462
04/14/2013  07:52:00      -43.609      184.998      -13.202       48.590       57.497       30.148     2361.017     3305.919      908.884        2.144        0.329      190.068       23.188        0.015      335.332        5.896      855.475
04/14/2013  07:53:00     -104.366      224.402      -28.663       61.132       58.265       39.092     3737.110     3394.787     1528.220        3.536        0.433      247.484       33.798        0.019      335.103        5.514      855.493
04/14/2013  07:54:00      -75.056      135.615      -12.760       61.471       65.570       45.794     3778.647     4299.363     2097.069        1.718        0.509      154.999       40.048        0.067      335.220        5.710      855.501
04/14/2013  07:55:00      -38.998      179.737      -12.932       38.885       85.855       32.175     1512.024     7371.062     1035.216        2.195        0.496      183.920       40.142        0.048      335.314        5.865      855.495
04/14/2013  07:56:00      -25.474       62.819        8.908       42.754       74.459       35.054     1827.917     5544.094     1228.789        0.664        0.430       67.787       37.535        0.307      335.552        6.263      855.479
04/14/2013  07:57:00        9.833      112.881      -21.848       35.264      100.720       31.269     1243.516    10144.525      977.757        1.284        0.618      113.308       43.656        0.148      335.292        5.829      855.477
04/14/2013  07:58:00       57.499       79.368       18.506       68.973       63.270       49.924     4757.325     4003.111     2492.437        1.060        0.563       98.007       40.991        0.175      335.453        6.098      855.468
04/14/2013  07:59:00       33.003      102.145       -0.443       60.984       78.072       35.660     3719.025     6095.294     1271.644        1.130        0.554      107.344       40.891        0.145      335.483        6.147      855.448
04/14/2013  08:00:00       50.382       92.802        0.868       41.447       67.192       42.801     1717.842     4514.824     1831.931        0.961        0.403      105.597       42.262        0.160      335.497        6.170      855.439
04/14/2013  08:01:00      -10.700      114.451       -0.544       35.462       55.642       33.540     1257.560     3096.005     1124.951        0.935        0.274      114.950       33.066        0.083      335.539        6.239      855.428
04/14/2013  08:02:00      -24.629      223.355      -19.332       32.972       31.735       19.476     1087.130     1007.092      379.309        2.667        0.124      224.709       19.474        0.008      335.113        5.529      855.412
04/14/2013  08:03:00      -25.990      150.166      -11.978       23.675       33.099       23.882      560.509     1095.562      570.358        1.280        0.111      152.399       15.222        0.010      335.266        5.787      855.388
04/14/2013  08:04:00       28.633       70.314       -1.286       31.385       46.627       29.822      985.037     2174.071      889.365        0.491        0.202       75.920       24.272        0.102      335.603        6.347      855.360
04/14/2013  08:05:00      -12.271      103.559       -4.091       32.479       59.012       33.542     1054.898     3482.398     1125.087        0.828        0.283      104.284       38.548        0.137      335.456        6.101      855.350
04/14/2013  08:06:00      -18.837       50.858        3.432       24.393       55.947       28.239      595.020     3130.055      797.459        0.374        0.226       54.234       33.180        0.374      335.790        6.660      855.352
04/14/2013  08:07:00        4.344       95.956        2.543       42.506       52.277       36.573     1806.787     2732.919     1337.551        0.755        0.294       96.055       36.118        0.141      335.671        6.461      855.360
04/14/2013  08:08:00        7.670       63.056       12.838       32.900       34.429       35.570     1082.436     1185.351     1265.241        0.387        0.177       63.520       26.028        0.168      335.962        6.946      855.356
04/14/2013  08:09:00       35.846      116.576      -11.435       32.100       74.525       31.310     1030.437     5553.997      980.324        1.128        0.378      121.962       37.497        0.095      335.594        6.331      855.355
04/14/2013  08:10:00       46.503       78.648       -1.410       30.170       45.344       27.991      910.241     2056.084      783.497        0.605        0.187       91.368       24.967        0.075      335.583        6.314      855.334
04/14/2013  08:11:00       50.383       51.471        9.058       52.015       34.949       31.102     2705.536     1221.450      967.346        0.508        0.245       72.026       23.636        0.108      335.808        6.690      855.322
04/14/2013  08:12:00      143.048       77.468       17.058       42.533       45.316       38.539     1809.020     2053.537     1485.246        1.605        0.267      162.677       27.007        0.028      335.513        6.197      855.313
04/14/2013  08:13:00      122.181       98.968       54.089       84.770       51.160       70.898     7185.910     2617.378     5026.564        2.124        0.741      157.235       65.988        0.176      335.590        6.323      855.286
04/14/2013  08:14:00      146.641      127.097      110.530       86.996       73.652       68.049     7568.269     5424.592     4630.667        3.375        0.881      194.055       60.891        0.098      335.380        5.973      855.243
04/14/2013  08:15:00      118.020      119.224       91.472       85.842       71.180       61.662     7368.875     5066.556     3802.178        2.637        0.812      167.759       53.751        0.103      335.577        6.301      855.223
04/14/2013  08:16:00       74.829      158.432      -19.759      101.375       53.228       40.489    10276.802     2833.217     1639.379        2.292        0.737      175.215       34.712        0.039      335.589        6.322      855.209
04/14/2013  08:17:00       83.743       59.072       18.693       55.724       47.144       29.044     3105.177     2222.516      843.527        0.851        0.309      102.481       20.458        0.040      335.898        6.838      855.197
04/14/2013  08:18:00      188.257      100.510       18.163       68.012       59.589       45.888     4625.664     3550.790     2105.730        2.808        0.514      213.408       34.235        0.026      335.694        6.496      855.200
04/14/2013  08:19:00      178.628       88.609       29.855      100.333       72.981       68.387    10066.687     5326.221     4676.736        3.036        1.003      199.397       51.917        0.068      335.557        6.267      855.214
04/14/2013  08:20:00      141.535       96.519       16.408       83.818       63.890       50.758     7025.493     4081.989     2576.356        2.165        0.684      171.313       46.247        0.073      335.618        6.371      855.243
04/14/2013  08:21:00       76.726       82.242        7.995       67.210       44.432       41.351     4517.171     1974.237     1709.871        1.046        0.410      112.475       29.125        0.067      335.548        6.255      855.248
04/14/2013  08:22:00       98.183       72.602       45.902       70.260       48.706       44.489     4936.510     2372.244     1979.306        1.315        0.464      122.110       35.638        0.085      335.702        6.511      855.230
04/14/2013  08:23:00       29.565       60.456       20.525       43.497       69.546       46.875     1892.013     4836.643     2197.267        0.694        0.446       67.298       28.912        0.185      335.860        6.774      855.231
04/14/2013  08:24:00       61.327      109.549        4.930       62.687       85.422       49.578     3929.674     7296.968     2457.990        1.473        0.684      125.547       51.808        0.170      335.906        6.850      855.244
04/14/2013  08:25:00       62.737       39.963       18.595       76.357       55.831       42.515     5830.433     3117.064     1807.556        0.832        0.538       74.384       18.601        0.063      336.040        7.075      855.253
04/14/2013  08:26:00       81.469      109.882        6.941       64.262       72.756       61.924     4129.612     5293.448     3834.561        1.601        0.663      136.789       55.017        0.162      335.956        6.933      855.241
04/14/2013  08:27:00       72.429      132.475       -8.310       63.770       79.713       49.009     4066.623     6354.130     2401.908        1.784        0.641      150.982       44.231        0.086      335.656        6.435      855.242
04/14/2013  08:28:00       -0.073       90.858       -3.887       35.130       83.313       29.809     1234.120     6941.001      888.574        0.867        0.453       90.858       40.793        0.202      335.669        6.457      855.246
04/14/2013  08:29:00       66.822       50.124       20.095       60.583       31.550       29.685     3670.250      995.413      881.180        0.646        0.277       83.533       24.531        0.086      336.076        7.136      855.271
04/14/2013  08:30:00       85.040       79.362       10.055       58.280       45.440       33.320     3396.518     2064.799     1110.249        1.010        0.329      116.319       26.516        0.052      336.281        7.477      855.335
04/14/2013  08:31:00       77.265      122.498       -0.774       57.383       81.964       55.546     3292.753     6718.168     3085.319        1.703        0.655      144.830       50.265        0.120      336.177        7.304      855.381
04/14/2013  08:32:00      106.830      118.778        9.465       80.838       79.882       62.171     6534.852     6381.123     3865.263        2.119        0.839      159.752       48.461        0.092      335.796        6.665      855.414
04/14/2013  08:33:00      135.656      105.988        7.633       71.107       49.193       45.497     5056.259     2419.931     2069.960        1.962        0.477      172.151       25.536        0.022      335.706        6.517      855.431
04/14/2013  08:34:00       64.757      114.519       -1.866       81.706       73.566       56.142     6675.839     5411.886     3151.926        1.627        0.762      131.560       50.309        0.146      335.834        6.732      855.439
04/14/2013  08:35:00       54.493       57.414       12.951       66.604       58.544       38.652     4436.046     3427.359     1493.979        0.789        0.468       79.158       39.055        0.243      336.234        7.399      855.426
04/14/2013  08:36:00      123.619       95.792       17.598       80.548       75.795       58.125     6487.931     5744.911     3378.499        2.019        0.781      156.390       41.405        0.070      336.219        7.371      855.393
04/14/2013  08:37:00      136.417      113.591        5.294       80.442       65.559       48.267     6470.920     4298.014     2329.661        2.232        0.655      177.517       34.191        0.037      335.770        6.623      855.356
04/14/2013  08:38:00       71.979      101.560       90.645       67.614       67.883       66.734     4571.674     4608.158     4453.390        1.867        0.682      124.480       52.377        0.177      336.267        7.454      855.317
04/14/2013  08:39:00       30.315       68.113      100.928      109.669      102.188       86.900    12027.319    10442.372     7551.531        2.288        1.501       74.555       68.909        0.854      336.250        7.424      855.291
04/14/2013  08:40:00      167.131      124.921       12.931      105.942       82.851       56.856    11223.629     6864.326     3232.609        3.251        1.066      208.658       46.356        0.049      336.262        7.443      855.310
04/14/2013  08:41:00       70.581       97.060        3.634       65.028       65.086       49.260     4228.576     4236.163     2426.512        1.265        0.545      120.010       38.877        0.105      336.220        7.375      855.347
04/14/2013  08:42:00       44.652       81.811       -1.984       52.500       43.240       40.259     2756.251     1869.719     1620.785        0.747        0.312       93.203       27.739        0.089      336.472        7.797      855.341
04/14/2013  08:43:00       86.517      115.278       13.827      102.503      108.698       69.935    10506.915    11815.315     4890.837        2.408        1.361      144.133       63.753        0.196      336.296        7.501      855.317
04/14/2013  08:44:00      135.593      133.839       -2.674      106.101       83.085       68.716    11257.355     6903.101     4721.847        2.959        1.144      190.521       45.303        0.057      335.961        6.941      855.317
04/14/2013  08:45:00       66.025      138.439        2.542       83.861      101.935       71.977     7032.689    10390.802     5180.703        2.306        1.130      153.377       61.864        0.163      335.982        6.976      855.330
04/14/2013  08:46:00       89.585      144.395       11.201      121.700      119.640       71.999    14810.855    14313.771     5183.885        3.165        1.715      169.927       67.640        0.158      336.104        7.180      855.336
04/14/2013  08:47:00      196.697      129.176       31.449       88.723       63.036       54.927     7871.848     3973.550     3017.001        3.561        0.743      235.321       35.197        0.022      336.017        7.034      855.343
04/14/2013  08:48:00       89.302      143.108       -2.306       73.870       97.131       52.195     5456.753     9434.468     2724.345        2.303        0.881      168.686       46.719        0.077      336.075        7.132      855.332
04/14/2013  08:49:00      124.499       60.534       47.287      158.274       90.841       50.404    25050.612     8252.016     2540.562        2.862        1.792      138.436       24.152        0.030      336.165        7.283      855.308
04/14/2013  08:50:00      150.225      125.631       23.873       86.445       77.860       62.330     7472.758     6062.238     3884.985        2.817        0.871      195.833       20.240        0.011      336.271        7.456      855.290
04/14/2013  08:51:00       48.466      133.204       -1.523       86.647      106.739       65.408     7507.778    11393.279     4278.264        2.163        1.159      141.747       61.458        0.188      336.181        7.309      855.258
04/14/2013  08:52:00       88.802      116.247        4.486       90.716       93.158       55.899     8229.425     8678.481     3124.662        2.072        1.002      146.285       42.054        0.083      336.470        7.791      855.225
04/14/2013  08:53:00       85.107      103.547       -6.681       78.160       82.378       58.460     6109.037     6786.082     3417.588        1.716        0.816      134.034       50.658        0.143      336.305        7.517      855.221
04/14/2013  08:54:00      168.464      129.508       20.363       79.478       65.313       63.915     6316.830     4265.748     4085.097        3.011        0.733      212.491       38.035        0.032      335.934        6.897      855.207
04/14/2013  08:55:00      257.560      151.510       11.752       90.278       57.806       56.935     8150.033     3341.481     3241.628        5.208        0.737      298.819       27.921        0.009      335.772        6.625      855.174
04/14/2013  08:56:00      203.941      119.322       11.813      134.380       92.780       62.254    18057.904     8608.143     3875.503        4.325        1.527      236.283       36.559        0.024      336.119        7.204      855.148
04/14/2013  08:57:00      226.079      136.123       26.965      102.173       73.173       63.306    10439.376     5354.237     4007.659        4.508        0.990      263.896       34.198        0.017      335.994        6.996      855.126
04/14/2013  08:58:00      274.947      175.203       28.550       98.205       78.296       72.833     9644.150     6130.212     5304.649        6.409        1.054      326.025       52.798        0.026      335.927        6.883      855.143
04/14/2013  08:59:00      191.413      115.423       34.874      103.923       78.759       55.129    10799.960     6202.946     3039.213        3.561        1.002      223.520       41.133        0.034      336.046        7.083      855.175
04/14/2013  09:00:00      101.486       78.370       35.915      110.542       81.831       67.664    12219.471     6696.271     4578.452        2.061        1.175      128.224       51.525        0.161      336.302        7.511      855.193
04/14/2013  09:01:00      220.928      121.440       39.999       95.018       66.795       61.018     9028.497     4461.524     3723.255        4.118        0.861      252.105       48.857        0.038      336.190        7.322      855.200
04/14/2013  09:02:00      172.148      125.568       15.882       82.671       63.905       58.699     6834.546     4083.861     3445.598        3.001        0.718      213.078       43.527        0.042      336.108        7.186      855.200
04/14/2013  09:03:00      259.582      150.878       13.575      122.683       84.128       64.790    15051.117     7077.484     4197.764        5.832        1.316      300.245       58.578        0.038      336.060        7.105      855.201
04/14/2013  09:04:00      266.701      191.070       14.397       78.977       64.454       63.957     6237.299     4154.270     4090.477        6.116        0.724      328.081       41.687        0.016      335.866        6.781      855.213
04/14/2013  09:05:00      177.876      123.358       17.210       63.353       59.068       46.443     4013.615     3489.060     2156.956        2.840        0.483      216.464       21.862        0.010      335.975        6.965      855.211
04/14/2013  09:06:00      121.015      111.477       11.217       73.167       51.783       48.394     5353.462     2681.455     2342.022        1.879        0.519      164.535       28.166        0.029      336.022        7.043      855.194
04/14/2013  09:07:00      112.048      107.687       89.462       86.993       67.696       76.165     7567.749     4582.771     5801.050        2.505        0.898      155.406       66.624        0.184      336.254        7.431      855.152
04/14/2013  09:08:00      163.648      138.951       48.811       90.720       44.800       71.045     8230.129     2007.005     5047.360        3.187        0.764      214.681       54.917        0.065      336.168        7.286      855.143
04/14/2013  09:09:00       89.402       67.617        9.294       67.315       61.407       48.326     4531.295     3770.879     2335.444        1.164        0.532      112.093       35.061        0.098      336.729        8.226      855.142
04/14/2013  09:10:00      108.985      117.174       94.221      116.053       73.218       65.022    13468.260     5360.811     4227.912        2.877        1.153      160.024       64.182        0.161      336.526        7.886      855.166
04/14/2013  09:11:00      261.942      181.687       32.160       66.369       59.808       61.402     4404.895     3577.010     3770.181        5.720        0.588      318.784       47.255        0.022      336.053        7.093      855.181
04/14/2013  09:12:00      232.383      119.204       17.245       60.586       60.757       45.250     3670.663     3691.381     2047.554        3.896        0.470      261.173       25.907        0.010      336.141        7.240      855.214
04/14/2013  09:13:00       92.126       46.408       11.339       63.220       49.400       36.559     3996.815     2440.384     1336.544        0.927        0.389      103.155       20.981        0.041      336.525        7.886      855.226
04/14/2013  09:14:00       98.844       99.333       75.840      116.445       70.588       62.915    13559.364     4982.730     3958.357        2.394        1.125      140.133       58.858        0.176      336.548        7.921      855.217
04/14/2013  09:15:00      110.919       98.214       99.169       62.834       66.624       58.272     3948.146     4438.707     3395.626        2.178        0.589      148.152       45.974        0.096      336.309        7.522      855.225
04/14/2013  09:16:00       97.574       95.933       97.995       87.596       58.504       53.636     7673.004     3422.724     2876.837        2.115        0.699      136.835       49.939        0.133      336.398        7.671      855.215
04/14/2013  09:17:00       -1.699       72.952       94.497       34.417       69.268       45.195     1184.559     4798.021     2042.553        1.114        0.401       72.972       43.479        0.355      336.905        8.520      855.221
04/14/2013  09:18:00       93.865       83.408       25.455       96.768       70.066       54.147     9364.050     4909.252     2931.893        1.681        0.860      125.569       48.365        0.148      336.510        7.859      855.225
04/14/2013  09:19:00      142.638      107.900        2.528       88.910       76.785       58.991     7905.063     5895.948     3479.960        2.463        0.864      178.852       48.126        0.072      336.517        7.869      855.208
04/14/2013  09:20:00      150.758      107.816        3.999       48.998       49.356       45.092     2400.801     2436.032     2033.320        2.062        0.344      185.344       20.454        0.012      336.343        7.579      855.213
04/14/2013  09:21:00       43.245       44.180       -5.312       40.007       30.755       28.406     1600.532      945.876      806.879        0.360        0.168       61.823       19.817        0.103      336.484        7.816      855.197
04/14/2013  09:22:00       73.128       48.716       12.836       71.811       45.198       36.523     5156.816     2042.871     1333.905        0.821        0.427       87.869       17.545        0.040      336.797        8.339      855.201
04/14/2013  09:23:00       63.237       25.592       19.714       86.888       45.035       36.432     7549.556     2028.129     1327.326        0.797        0.545       68.219       30.773        0.203      336.876        8.473      855.189
04/14/2013  09:24:00       43.661       19.927       69.147       69.888       79.009       58.036     4884.280     6242.412     3368.135        1.079        0.725       47.993       50.540        1.109      336.817        8.373      855.165
04/14/2013  09:25:00       56.944       74.753       84.780       69.521       90.477       64.897     4833.104     8186.086     4211.683        1.662        0.862       93.971       47.779        0.259      336.990        8.661      855.123
04/14/2013  09:26:00      141.334      126.161       44.249      116.022       54.300       76.912    13461.117     2948.490     5915.384        3.008        1.116      189.452       77.398        0.167      336.716        8.203      855.110
04/14/2013  09:27:00      182.479      120.226       27.830       64.039       72.222       52.417     4100.976     5215.962     2747.549        3.029        0.603      218.524       24.172        0.012      336.368        7.619      855.100
04/14/2013  09:28:00       76.328      142.949       -7.098       82.578       81.039       55.735     6819.151     6567.331     3106.404        2.140        0.825      162.050       44.451        0.075      336.220        7.372      855.124
04/14/2013  09:29:00      -17.277      177.188       -8.254       28.572       65.610       31.298      816.369     4304.686      979.551        1.893        0.305      178.028       27.256        0.023      336.389        7.656      855.118
04/14/2013  09:30:00       85.418       96.996       48.394       80.277       81.629       66.358     6444.338     6663.365     4403.447        1.828        0.876      129.246       16.520        0.016      337.035        8.737      855.106
04/14/2013  09:31:00       57.871      122.111      128.145       75.664       66.969       52.247     5725.058     4484.846     2729.794        2.381        0.647      135.130       43.539        0.104      336.599        8.007      855.073
04/14/2013  09:32:00       42.596      115.120      148.901       59.459       93.162       63.743     3535.426     8679.211     4063.141        2.676        0.814      122.748       57.052        0.216      336.574        7.964      855.088
04/14/2013  09:33:00       50.459       50.804       88.855       52.049       86.229       71.452     2709.094     7435.460     5105.442        1.413        0.762       71.605       70.194        0.961      336.311        7.526      855.098
04/14/2013  09:34:00       70.021     -120.258       -2.896       51.746       65.167       49.116     2677.632     4246.794     2412.380        1.435        0.467      139.158       39.581        0.081      336.559        7.942      855.069
04/14/2013  09:35:00      102.778       20.248       78.924       91.582       87.722       70.149     8387.261     7695.068     4920.855        1.910        1.050      104.754       72.832        0.483      336.848        8.424      855.029
04/14/2013  09:36:00      157.084      142.805      115.231      121.183       78.024       72.388    14685.277     6087.800     5240.054        4.218        1.301      212.294       79.972        0.142      336.471        7.792      854.991
04/14/2013  09:37:00      126.676       98.887       90.216       91.377       70.099       52.104     8349.725     4913.845     2714.830        2.497        0.799      160.703       45.560        0.080      336.659        8.107      854.986
04/14/2013  09:38:00       64.677       81.642      114.082       90.990       78.471       64.711     8279.267     6157.694     4187.575        2.124        0.931      104.156       35.808        0.118      337.041        8.745      854.979
04/14/2013  09:39:00      137.627       79.666      113.280      104.007       83.255       69.830    10817.377     6931.313     4876.293        3.037        1.131      159.021       62.910        0.157      336.760        8.277      854.963
04/14/2013  09:40:00      171.920       97.679       15.235       76.845       62.418       53.348     5905.108     3896.045     2845.989        2.599        0.632      197.731       28.582        0.021      336.443        7.745      854.941
04/14/2013  09:41:00       42.139        4.900       73.679       44.829       83.723       48.336     2009.614     7009.507     2336.340        0.929        0.568       42.423       47.376        1.247      336.937        8.574      854.943
04/14/2013  09:42:00      111.995      -99.029       21.791      102.096      115.413       65.889    10423.599    13320.235     4341.309        2.545        1.404      149.498       75.082        0.252      336.958        8.608      854.915
04/14/2013  09:43:00      179.732     -137.404        3.242      119.364      150.774       80.243    14247.840    22732.760     6438.937        4.730        2.171      226.237      100.108        0.196      336.730        8.225      854.866
04/14/2013  09:44:00      162.061      -52.403       62.020      121.372      179.160       99.171    14731.094    32098.267     9834.982        4.475        2.833      170.322      128.902        0.573      336.741        8.244      854.832
04/14/2013  09:45:00       98.521      -49.093       42.473       87.568       81.296       56.928     7668.179     6609.026     3240.775        1.572        0.876      110.075       59.484        0.292      336.880        8.479      854.835
04/14/2013  09:46:00       28.223       13.522       62.679       57.709       61.405       51.682     3330.278     3770.566     2671.051        0.734        0.489       31.295       36.178        1.336      337.261        9.116      854.840
04/14/2013  09:47:00      120.118       62.982        6.180       87.160       74.017       52.883     7596.803     5478.565     2796.568        1.715        0.794      135.628       16.622        0.015      336.830        8.394      854.851
04/14/2013  09:48:00       13.405      161.305      -16.487       37.169       52.284       33.658     1381.553     2733.599     1132.855        1.586        0.262      161.861       26.964        0.028      336.528        7.890      854.860
04/14/2013  09:49:00       33.825       62.028        3.189       49.130       73.137       37.247     2413.802     5349.086     1387.306        0.707        0.458       70.652       30.431        0.186      337.113        8.867      854.832
04/14/2013  09:50:00       90.121       77.181       63.658       80.688       69.340       78.213     6510.569     4807.972     6117.349        1.778        0.872      118.654       18.346        0.024      337.120        8.878      854.771
04/14/2013  09:51:00      128.326      122.643      106.259       98.650      106.676       84.566     9731.810    11379.801     7151.445        3.553        1.413      177.508       80.878        0.208      336.731        8.227      854.727
04/14/2013  09:52:00      144.936      111.467      102.925      101.279       93.173       74.213    10257.380     8681.231     5507.578        3.423        1.222      182.843       62.172        0.116      336.768        8.288      854.714
04/14/2013  09:53:00       51.929       47.778       86.187       80.186       86.228       54.331     6429.856     7435.278     2951.911        1.461        0.841       70.564       50.143        0.505      337.183        8.985      854.700
04/14/2013  09:54:00      173.469      -92.952       32.225      127.573      152.615       77.455    16274.854    23291.443     5999.288        4.266        2.278      196.803       97.793        0.247      336.913        8.532      854.677
04/14/2013  09:55:00       89.856     -102.202       38.253      100.985      186.804       86.143    10197.965    34895.683     7420.550        3.624        2.626      136.086      119.135        0.766      337.174        8.968      854.695
04/14/2013  09:56:00       47.742       35.829       97.087       76.739       88.047       58.444     5888.918     7752.204     3415.675        1.502        0.853       59.691       60.956        1.043      337.437        9.409      854.696
04/14/2013  09:57:00       75.196       39.745       72.537       69.071       58.352       44.201     4770.814     3404.906     1953.748        1.131        0.506       85.054       31.539        0.138      337.003        8.684      854.715
04/14/2013  09:58:00       24.918        4.097       65.557       59.218       67.613       43.237     3506.791     4571.551     1869.455        0.744        0.497       25.253       26.905        1.135      337.673        9.807      854.724
04/14/2013  09:59:00       72.160       20.319       36.704       74.764       78.636       52.938     5589.628     6183.684     2802.405        1.077        0.729       74.966       42.013        0.314      337.329        9.231      854.701
04/14/2013  10:00:00       83.192       51.323       41.207       75.442       97.363       68.782     5691.470     9479.600     4730.899        1.557        0.995       97.749       41.113        0.177      337.285        9.155      854.679
04/14/2013  10:01:00      155.615       71.197       12.183       59.887       67.435       49.575     3586.489     4547.450     2457.652        2.001        0.530      171.129       25.822        0.023      336.693        8.166      854.694
04/14/2013  10:02:00       23.350       -5.717       37.048       64.497       73.749       46.091     4159.823     5438.982     2124.357        0.683        0.586       24.040       37.502        2.434      337.263        9.121      854.673
04/14/2013  10:03:00       45.738       98.832      110.650       65.050       59.128       64.163     4231.456     3496.101     4116.950        1.797        0.592      108.903       56.538        0.270      336.803        8.348      854.687
04/14/2013  10:04:00       50.019       49.627       41.326       28.368       26.524       31.609      804.729      703.512      999.134        0.459        0.125       70.461       16.627        0.056      336.654        8.100      854.699
04/14/2013  10:05:00       34.184       40.758       55.120       53.422       54.935       50.777     2853.912     3017.904     2578.344        0.716        0.423       53.195       31.717        0.356      337.187        8.993      854.698
04/14/2013  10:06:00       64.776        9.290       56.813       69.858       84.846       45.213     4880.071     7198.801     2044.209        1.081        0.706       65.439       56.191        0.737      337.108        8.861      854.712
04/14/2013  10:07:00       79.378       57.240       68.515      106.306       47.264       43.135    11301.063     2233.912     1860.634        1.483        0.770       97.864       54.845        0.314      337.282        9.150      854.715
04/14/2013  10:08:00      142.249      118.308       71.632       85.579       74.715       69.933     7323.793     5582.337     4890.659        2.858        0.890      185.018       61.761        0.111      336.898        8.504      854.708
04/14/2013  10:09:00       57.332       64.098       26.933       71.188       55.067       38.322     5067.778     3032.325     1468.588        0.884        0.478       85.997       26.114        0.092      337.154        8.938      854.697
04/14/2013  10:10:00       55.279       85.338       76.131       67.307       52.883       40.198     4530.249     2796.571     1615.864        1.254        0.447      101.677       33.472        0.108      337.760        9.952      854.671
04/14/2013  10:11:00       53.772       95.144       76.185       87.329       70.344       72.776     7626.427     4948.244     5296.370        1.781        0.894      109.288       59.323        0.295      337.915       10.212      854.643
04/14/2013  10:12:00       86.054       73.527       60.212       77.708       56.319       64.634     6038.500     3171.791     4177.536        1.491        0.669      113.188       23.971        0.045      337.405        9.356      854.669
04/14/2013  10:13:00       76.424      132.577      126.195       75.378       52.813       43.309     5681.894     2789.198     1875.628        2.484        0.517      153.027       32.040        0.044      336.996        8.670      854.642
04/14/2013  10:14:00       95.719       59.337       80.184       70.315       73.959       54.956     4944.193     5469.921     3020.122        1.627        0.672      112.619       47.771        0.180      337.089        8.827      854.620
04/14/2013  10:15:00       63.432       53.665       42.981       71.092       54.991       58.315     5054.035     3023.974     3400.590        1.011        0.574       83.088       49.332        0.353      337.065        8.788      854.580
04/14/2013  10:16:00       97.682       57.177       92.127       87.862       59.858       52.498     7719.714     3582.929     2756.010        1.768        0.703      113.185       43.688        0.149      337.165        8.953      854.559
04/14/2013  10:17:00      118.181      105.888       62.245      115.231       75.483       52.395    13278.245     5697.643     2745.231        2.538        1.086      158.679       36.254        0.052      337.035        8.736      854.530
04/14/2013  10:18:00      102.245       63.498       37.896       59.146       68.160       49.892     3498.221     4645.836     2489.237        1.328        0.532      120.358       25.704        0.046      337.147        8.925      854.533
04/14/2013  10:19:00       82.355       72.659       62.681       52.679       54.775       45.195     2775.124     3000.321     2042.617        1.190        0.391      109.826       31.458        0.082      337.319        9.213      854.532
04/14/2013  10:20:00       64.107       40.627       31.924       46.536       38.299       39.341     2165.592     1466.779     1547.692        0.598        0.259       75.897       29.290        0.149      337.113        8.870      854.512
04/14/2013  10:21:00       29.543       95.602       99.658       68.521       63.156       75.826     4695.164     3988.636     5749.568        1.719        0.722      100.063       70.838        0.501      337.550        9.600      854.489
04/14/2013  10:22:00       45.996      111.373      151.523       90.464      103.255       77.976     8183.690    10661.503     6080.255        3.120        1.246      120.497       81.089        0.453      337.210        9.027      854.456
04/14/2013  10:23:00       40.894       50.673       93.133       62.123       81.659       89.706     3859.281     6668.202     8047.151        1.574        0.929       65.116       71.635        1.210      337.510        9.533      854.480
04/14/2013  10:24:00      -43.712        7.126       11.209       42.046       45.080       28.355     1767.861     2032.180      803.982        0.334        0.230       44.289       29.463        0.443      337.011        8.697      854.459
04/14/2013  10:25:00       31.918       22.446       22.220       47.994       66.951       37.367     2303.435     4482.488     1396.329        0.510        0.409       39.020       21.491        0.303      337.725        9.893      854.474
04/14/2013  10:26:00        9.704       44.905       14.362       42.782       60.365       37.458     1830.313     3643.909     1403.099        0.460        0.344       45.941       37.900        0.681      337.920       10.220      854.501
04/14/2013  10:27:00      134.619       68.887       14.567      108.593       63.715       48.850    11792.496     4059.663     2386.306        2.066        0.912      151.220       27.264        0.033      337.725        9.891      854.495
04/14/2013  10:28:00      216.526      136.781       20.081      105.870       71.159       45.914    11208.375     5063.551     2108.055        4.218        0.919      256.110       26.176        0.010      336.915        8.535      854.510
04/14/2013  10:29:00      159.773       98.818       23.745       73.541       62.388       44.400     5408.207     3892.316     1971.331        2.356        0.564      187.862       22.641        0.015      337.166        8.955      854.506
04/14/2013  10:30:00      255.445      168.678       27.001       70.304       68.281       64.355     4942.602     4662.306     4141.507        5.409        0.687      306.111       46.194        0.023      337.180        8.975      854.483
04/14/2013  10:31:00      175.153      114.929       35.599       73.023       52.875       45.039     5332.358     2795.762     2028.509        2.765        0.508      209.493       22.940        0.012      336.946        8.588      854.474
04/14/2013  10:32:00      163.980      129.960       19.135       64.179       57.964       53.133     4118.890     3359.862     2823.142        2.722        0.515      209.234       26.562        0.016      336.862        8.447      854.445
04/14/2013  10:33:00      130.876       75.360       29.066       69.898       65.197       53.316     4885.696     4250.643     2842.597        1.781        0.599      151.023       37.181        0.061      337.414        9.372      854.405
04/14/2013  10:34:00       78.732       82.141       66.843       65.132       71.498       66.257     4242.218     5111.917     4390.023        1.558        0.687      113.780       55.273        0.236      337.774        9.975      854.376
04/14/2013  10:35:00      106.898      129.269       85.180       88.075       53.404       63.198     7757.149     2851.973     3993.937        2.500        0.730      167.743       53.682        0.102      337.699        9.846      854.356
04/14/2013  10:36:00      143.785       20.901        3.901       58.313       50.172       41.836     3400.452     2517.218     1750.293        1.440        0.383      145.297       21.645        0.022      336.899        8.510      854.374
04/14/2013  10:37:00       27.214      -16.684       17.072       33.187       39.136       30.445     1101.362     1531.657      926.911        0.243        0.178       31.921       24.677        0.598      337.684        9.826      854.346
04/14/2013  10:38:00      -19.510       37.556       -3.508       28.092       45.980       26.164      789.152     2114.127      684.529        0.270        0.179       42.321       21.593        0.260      337.959       10.287      854.295
04/14/2013  10:39:00       84.567       71.061       67.481       96.216       65.525       61.484     9257.604     4293.479     3780.305        1.704        0.867      110.460       58.430        0.280      337.813       10.040      854.254
04/14/2013  10:40:00       45.409      -38.315       25.708       72.462       94.433       50.377     5250.727     8917.529     2537.799        1.045        0.835       59.414       47.274        0.633      338.025       10.396      854.201
04/14/2013  10:41:00       96.851     -202.166      -20.690       75.078       71.946       44.995     5636.685     5176.291     2024.542        3.176        0.642      224.168       32.295        0.021      337.613        9.703      854.160
04/14/2013  10:42:00       81.693       41.914       74.282       91.435       92.563       65.952     8360.410     8567.882     4349.655        1.761        1.064       91.818       66.268        0.521      338.132       10.576      854.150
04/14/2013  10:43:00       69.092      134.080       -2.281       83.590       66.469       61.569     6987.208     4418.065     3790.722        1.897        0.760      150.834       47.994        0.101      337.824       10.058      854.159
04/14/2013  10:44:00      -28.621      254.345      -21.744       64.054       82.647       46.059     4102.907     6830.578     2121.438        3.952        0.653      255.951       42.254        0.027      337.599        9.677      854.185
04/14/2013  10:45:00      -19.928      132.932        2.967       39.357       74.926       34.255     1549.009     5613.910     1173.392        1.321        0.417      134.418       32.281        0.058      337.961       10.290      854.178
04/14/2013  10:46:00       28.302       75.965       18.020       63.874       62.392       42.833     4079.925     3892.773     1834.687        0.835        0.490       81.067       39.004        0.231      338.183       10.662      854.153
04/14/2013  10:47:00        0.726       42.494       13.931       23.515       38.638       25.631      552.950     1492.921      656.928        0.235        0.135       42.500       23.218        0.298      338.370       10.976      854.133
04/14/2013  10:48:00      -26.247       13.606       17.386       32.121       33.743       39.701     1031.746     1138.611     1576.177        0.246        0.187       29.564       22.702        0.590      338.477       11.156      854.069
04/14/2013  10:49:00        0.539       24.566       39.444       36.506       34.875       42.657     1332.696     1216.261     1819.589        0.326        0.218       24.572       30.130        1.504      338.689       11.511      854.025
04/14/2013  10:50:00        5.721        8.012       49.248       35.952       42.572       32.931     1292.529     1812.392     1084.466        0.336        0.209        9.845       28.995        8.675      339.087       12.181      853.977
04/14/2013  10:51:00      113.169      124.423      109.689       97.097       79.019       65.971     9427.910     6243.971     4352.200        3.017        1.001      168.191       44.966        0.071      338.218       10.719      853.932
04/14/2013  10:52:00       97.375      204.606      195.879      128.989      121.724       90.265    16638.135    14816.688     8147.684        6.465        1.980      226.596       79.207        0.122      337.997       10.346      853.869
04/14/2013  10:53:00      105.033      164.631      171.880      116.078      113.175       75.771    13474.131    12808.481     5741.232        4.985        1.601      195.283       68.106        0.122      337.960       10.284      853.868
04/14/2013  10:54:00      238.851      148.699       63.492       96.777       66.297       75.700     9365.772     4395.244     5730.428        5.134        0.975      281.356       35.603        0.016      337.436        9.405      853.880
04/14/2013  10:55:00       78.774       35.414       22.825       70.235       51.559       40.794     4932.904     2658.314     1664.158        0.862        0.463       86.368       27.433        0.101      338.222       10.726      853.881
04/14/2013  10:56:00       98.510      112.307      103.403      114.114       79.853       62.405    13021.905     6376.537     3894.381        2.815        1.165      149.389       51.923        0.121      338.016       10.380      853.870
04/14/2013  10:57:00       82.755       95.501       75.033       74.981       62.161       52.256     5622.180     3864.011     2730.654        1.691        0.611      126.367       37.483        0.088      337.961       10.288      853.874
04/14/2013  10:58:00       54.120       81.192       13.170       57.358       55.302       41.215     3289.934     3058.340     1698.703        0.887        0.402       97.576       38.041        0.152      337.987       10.334      853.867
04/14/2013  10:59:00       85.755      137.183      -27.660       73.887       62.874       45.299     5459.304     3953.078     2052.030        1.920        0.573      161.781       35.419        0.048      337.635        9.742      853.840
04/14/2013  11:00:00       95.372       91.659       39.838       90.750       67.517       59.679     8235.499     4558.509     3561.613        1.772        0.818      132.277       46.789        0.125      337.963       10.292      853.836
04/14/2013  11:01:00       58.739       47.511       63.923       56.842       59.112       47.926     3231.001     3494.263     2296.870        0.941        0.451       75.548       28.267        0.140      338.271       10.809      853.820
04/14/2013  11:02:00       71.194       98.202       89.601       92.744       74.193       64.019     8601.396     5504.618     4098.444        2.047        0.910      121.294       62.684        0.267      337.907       10.195      853.810
04/14/2013  11:03:00      202.171      110.779       41.546       90.916       62.068       60.956     8265.665     3852.375     3715.676        3.535        0.792      230.532       40.939        0.032      337.720        9.882      853.785
04/14/2013  11:04:00       61.612       73.743       86.035       68.458       86.421       48.148     4686.439     7468.511     2318.221        1.555        0.724       96.094       46.857        0.238      338.150       10.607      853.766
04/14/2013  11:05:00      121.319       62.760       28.970       53.215       47.171       44.264     2831.854     2225.142     1959.274        1.326        0.351      136.591       30.878        0.051      337.674        9.807      853.744
04/14/2013  11:06:00       41.507       -4.538        7.591       37.252       70.890       40.779     1387.716     5025.358     1662.961        0.494        0.404       41.754       27.878        0.446      338.190       10.673      853.690
04/14/2013  11:07:00       37.125      -92.204       -2.382       57.043       74.861       38.437     3253.924     5604.224     1477.382        1.011        0.517       99.397       36.141        0.132      338.181       10.660      853.647
04/14/2013  11:08:00     -125.920     -128.928      -21.150       73.107       59.925       39.705     5344.652     3590.971     1576.466        2.172        0.526      180.218       21.186        0.014      337.875       10.143      853.616
04/14/2013  11:09:00       29.555       16.253       63.588       67.256       94.907       53.386     4523.385     9007.345     2850.032        1.078        0.819       33.729       46.472        1.898      338.177       10.652      853.580
04/14/2013  11:10:00       69.906      139.073      128.525       69.417       74.946       58.436     4818.697     5616.967     3414.816        2.730        0.693      155.654       43.846        0.079      338.286       10.832      853.524
04/14/2013  11:11:00       75.481       80.070       78.197       55.811       85.545       54.058     3114.850     7317.982     2922.247        1.579        0.668      110.039       55.842        0.258      338.267       10.801      853.487
04/14/2013  11:12:00      -28.333      -45.645       10.808       31.622       74.424       33.578      999.947     5538.965     1127.495        0.533        0.383       53.724       31.715        0.348      338.466       11.137      853.467
04/14/2013  11:13:00       66.111       38.573      105.221       80.281       98.716       54.452     6445.070     9744.812     2964.995        1.804        0.958       76.541       57.036        0.555      338.471       11.144      853.436
04/14/2013  11:14:00      203.825       98.587       22.103       82.245       71.999       66.242     6764.210     5183.893     4388.022        3.404        0.817      226.416       19.180        0.007      337.892       10.169      853.408
04/14/2013  11:15:00      188.254      140.097       14.808       97.871       84.449       65.023     9578.804     7131.707     4227.999        3.811        1.047      234.663       46.685        0.040      337.971       10.303      853.388
04/14/2013  11:16:00      225.599      112.573       31.563       92.821       94.736       72.376     8615.801     8974.861     5238.255        4.369        1.141      252.127       41.940        0.028      337.922       10.221      853.358
04/14/2013  11:17:00      214.824      129.358       41.357      133.625      106.586       66.729    17855.527    11360.483     4452.748        4.913        1.683      250.764       47.745        0.036      338.248       10.768      853.311
04/14/2013  11:18:00      146.288      127.034       81.807      130.409       68.693       77.488    17006.604     4718.721     6004.340        3.598        1.386      193.747       81.740        0.178      338.183       10.659      853.287
04/14/2013  11:19:00      155.156      114.642       65.553       91.756       87.904       73.936     8419.196     7727.091     5466.501        3.156        1.081      192.915       62.216        0.104      337.998       10.347      853.282
04/14/2013  11:20:00       88.540       70.645       -6.053       70.897       42.133       30.796     5026.415     1775.223      948.404        1.031        0.388      113.270       19.742        0.030      337.999       10.354      853.283
04/14/2013  11:21:00       64.334       64.106       16.258       50.119       39.931       35.083     2511.872     1594.460     1230.835        0.692        0.267       90.821       24.807        0.075      338.334       10.916      853.276
04/14/2013  11:22:00       56.445       71.168        8.074       66.540       47.646       39.258     4427.622     2270.104     1541.206        0.828        0.412       90.835       30.605        0.114      338.521       11.230      853.254
04/14/2013  11:23:00      109.119       80.488       10.690       58.419       46.508       36.166     3412.724     2162.960     1308.009        1.269        0.344      135.592       31.659        0.055      338.206       10.701      853.232
04/14/2013  11:24:00       35.757       10.904       16.532       54.995       26.710       31.700     3024.403      713.428     1004.871        0.321        0.237       37.383       37.774        1.021      338.833       11.755      853.244
04/14/2013  11:25:00       37.830       53.228       22.454       63.434       46.121       35.755     4023.855     2127.123     1278.441        0.610        0.371       65.302       29.537        0.205      338.788       11.678      853.254
04/14/2013  11:26:00       57.534       42.274        8.518       40.848       26.989       32.272     1668.536      728.432     1041.468        0.430        0.172       71.395       20.499        0.082      338.448       11.107      853.242
04/14/2013  11:27:00       24.237       53.726       62.041       50.678       59.388       45.306     2568.292     3526.987     2052.651        0.773        0.407       58.940       31.086        0.278      339.027       12.080      853.241
04/14/2013  11:28:00      105.887      107.272       67.171      134.072      110.311       93.583    17975.338    12168.591     8757.776        3.306        1.945      150.729       89.416        0.352      338.761       11.630      853.215
04/14/2013  11:29:00      126.791       39.051       17.899      111.586       73.928       58.250    12451.470     5465.303     3393.115        1.961        1.065      132.669       44.379        0.112      338.159       10.621      853.235
04/14/2013  11:30:00       92.330       54.140       55.895       49.050       78.258       58.440     2405.888     6124.311     3415.178        1.326        0.597      107.032       48.776        0.208      338.367       10.970      853.237
04/14/2013  11:31:00       35.139       11.788       80.144       72.022       87.043       65.084     5187.177     7576.442     4235.960        1.240        0.850       37.064       61.254        2.731      338.964       11.973      853.223
04/14/2013  11:32:00       56.323      -14.389       89.164       75.172       97.753       69.024     5650.794     9555.598     4764.247        1.565        0.999       58.132       58.028        0.996      338.926       11.909      853.222
04/14/2013  11:33:00       94.962       34.813       82.238       45.620       76.826       49.760     2081.141     5902.268     2476.047        1.372        0.523      101.142       51.651        0.261      338.435       11.085      853.239
04/14/2013  11:34:00       64.171       49.224       88.001       65.889       53.466       56.905     4341.347     2858.585     3238.192        1.236        0.522       80.875       37.480        0.215      338.733       11.583      853.230
04/14/2013  11:35:00       23.369       20.610       49.697       32.042       53.203       28.778     1026.682     2830.515      828.166        0.406        0.234       31.159       26.223        0.708      338.552       11.282      853.226
04/14/2013  11:36:00       13.906        8.855       46.589       30.733       34.619       22.987      944.488     1198.485      528.412        0.256        0.134       16.486       22.229        1.818      338.946       11.944      853.185
04/14/2013  11:37:00       25.902      -12.424       54.694       30.236       37.795       19.849      914.224     1428.438      393.992        0.328        0.137       28.728       15.594        0.295      339.117       12.231      853.181
04/14/2013  11:38:00       96.664       41.087       48.080       99.069       79.672       41.718     9814.621     6347.606     1740.425        1.562        0.895      105.034       24.640        0.055      339.007       12.046      853.181
04/14/2013  11:39:00       83.013       72.952       87.496       94.570       66.594       54.091     8943.487     4434.807     2925.876        1.808        0.815      110.514       41.688        0.142      338.839       11.763      853.169
04/14/2013  11:40:00       31.935       45.048       93.410       74.592       92.310       66.105     5563.967     8521.211     4369.847        1.511        0.923       55.219       57.526        1.085      339.289       12.520      853.138
04/14/2013  11:41:00       29.593       36.172       77.008       70.467       70.074       45.496     4965.667     4910.407     2069.859        1.003        0.597       46.735       26.173        0.314      339.343       12.612      853.144
04/14/2013  11:42:00       20.872       26.462       68.784       50.840       86.837       56.724     2584.709     7540.750     3217.556        0.960        0.667       33.703       45.529        1.825      339.627       13.090      853.136
04/14/2013  11:43:00        3.469       31.145       72.880       44.395       45.962       25.893     1970.898     2112.534      670.436        0.552        0.238       31.338       17.431        0.309      339.839       13.446      853.143
04/14/2013  11:44:00      167.069       70.267       49.007       77.705       64.462       60.866     6038.006     4155.319     3704.622        2.457        0.695      181.244       36.066        0.040      339.231       12.421      853.142
04/14/2013  11:45:00      134.336       72.742       36.215       93.161       75.211       50.661     8678.997     5656.677     2566.543        2.077        0.845      152.766       28.038        0.034      338.909       11.881      853.147
04/14/2013  11:46:00      243.554      125.961       26.791      111.392       73.284       64.507    12408.103     5370.511     4161.147        4.892        1.097      274.198       50.454        0.034      338.689       11.510      853.136
04/14/2013  11:47:00      146.431       67.589       44.185       81.703       72.344       61.820     6675.431     5233.652     3821.734        2.184        0.787      161.277       27.815        0.030      338.807       11.707      853.140
04/14/2013  11:48:00      141.787       88.394        4.994       67.846       37.230       40.294     4603.110     1386.086     1623.617        1.778        0.381      167.084       23.825        0.020      338.393       11.012      853.136
04/14/2013  11:49:00       42.456       41.652       -1.732       29.710       29.615       25.551      882.672      877.064      652.832        0.298        0.121       59.476       14.811        0.062      338.671       11.481      853.109
04/14/2013  11:50:00       35.383       88.229      108.004       53.388       75.928       61.681     2850.276     5765.005     3804.487        1.656        0.621       95.060       58.344        0.377      338.961       11.968      853.060
04/14/2013  11:51:00      141.401      119.965       65.662       80.473       61.206       85.256     6475.924     3746.116     7268.569        2.809        0.875      185.434       72.330        0.152      338.452       11.109      853.054
04/14/2013  11:52:00       58.958       36.450       -8.894       65.730       39.925       36.417     4320.423     1594.041     1326.195        0.606        0.362       69.315       30.020        0.188      338.585       11.337      853.053
04/14/2013  11:53:00       21.245       32.866        1.021       29.842       30.285       31.537      890.526      917.151      994.590        0.217        0.140       39.135       14.965        0.146      339.517       12.906      853.035
04/14/2013  11:54:00       39.692       95.366        5.813       56.789       63.907       41.443     3225.010     4084.144     1717.561        0.986        0.451      103.296       40.747        0.156      339.233       12.428      852.994
04/14/2013  11:55:00       58.676       37.802        4.954       64.130       48.931       37.443     4112.661     2394.242     1401.948        0.640        0.395       69.799       37.816        0.294      339.287       12.518      852.963
04/14/2013  11:56:00       26.707       28.537       23.516       42.670       38.491       33.378     1820.765     1481.594     1114.101        0.325        0.221       39.085       17.655        0.204      339.635       13.103      852.930
04/14/2013  11:57:00       35.591       40.380        7.896       44.454       34.896       38.714     1976.132     1217.744     1498.752        0.383        0.235       53.826       27.411        0.259      339.359       12.640      852.900
04/14/2013  11:58:00      -57.880       41.473      -27.608       46.735       44.711       41.099     2184.170     1999.075     1689.093        0.585        0.294       71.205       32.417        0.207      338.774       11.654      852.874
04/14/2013  11:59:00      -47.164        7.466      -15.372       29.581       18.809       17.173      875.042      353.794      294.904        0.202        0.076       47.751        6.543        0.019      338.714       11.552      852.867
04/14/2013  12:00:00      -14.222       -2.712       16.587       31.427       15.918       13.764      987.639      253.396      189.458        0.096        0.072       14.479       11.716        0.655      339.565       12.986      852.861
04/14/2013  12:01:00        9.060       11.288       11.726       40.026       48.344       22.381     1602.048     2337.102      500.896        0.239        0.222       14.475       14.738        1.037      339.798       13.378      852.841
04/14/2013  12:02:00       -7.702       23.263       68.520       37.064       44.958       35.760     1373.731     2021.194     1278.775        0.498        0.234       24.505       33.388        1.856      340.233       14.114      852.786
04/14/2013  12:03:00       28.143      -85.931        8.430       35.873       75.100       58.728     1286.878     5639.953     3449.016        0.931        0.519       90.422       49.400        0.298      339.233       12.426      852.724
04/14/2013  12:04:00      -84.287       32.637      -41.021       27.778       70.875       22.245      771.607     5023.275      494.834        0.807        0.314       90.385       11.414        0.016      338.648       11.442      852.679
04/14/2013  12:05:00        3.852       31.911       11.755       64.259       43.104       42.148     4129.214     1857.920     1776.420        0.447        0.388       32.143       39.978        1.547      339.195       12.363      852.631
04/14/2013  12:06:00        6.819       44.919       11.690       60.561       32.218       34.686     3667.637     1038.006     1203.134        0.405        0.295       45.434       27.716        0.372      339.718       13.244      852.598
04/14/2013  12:07:00        9.775       64.522      -13.424       48.206       52.555       36.876     2323.831     2762.039     1359.869        0.544        0.322       65.258       28.343        0.189      339.875       13.507      852.603
04/14/2013  12:08:00      -22.181      -82.636        3.278       30.374       49.774       24.020      922.599     2477.496      576.944        0.565        0.199       85.561        7.187        0.007      339.658       13.143      852.619
04/14/2013  12:09:00       16.088      -47.577       25.633       35.272      103.111       36.791     1244.141    10631.885     1353.594        0.820        0.661       50.223       29.358        0.342      339.551       12.962      852.610
04/14/2013  12:10:00       -2.842      -18.916       15.042       47.248       57.149       41.313     2232.345     3266.055     1706.729        0.390        0.360       19.128       37.403        3.824      339.683       13.185      852.568
04/14/2013  12:11:00       17.795      -69.694       23.636       37.089       59.625       45.023     1375.611     3555.160     2027.045        0.634        0.348       71.930       36.391        0.256      339.990       13.702      852.521
04/14/2013  12:12:00        3.375      -19.201       31.883       20.518       53.283       40.273      421.002     2839.070     1621.935        0.314        0.244       19.495       42.560        4.766      339.898       13.547      852.467
04/14/2013  12:13:00       -7.545       41.821       55.193       27.907       40.193       44.578      778.808     1615.483     1987.232        0.462        0.219       42.496       27.310        0.413      340.527       14.608      852.407
04/14/2013  12:14:00       82.018       50.688       43.118       91.640       73.626       63.933     8397.860     5420.821     4087.447        1.453        0.895       96.417       45.736        0.225      340.151       13.974      852.381
04/14/2013  12:15:00       44.002        9.966       14.900       46.313       46.162       32.181     2144.909     2130.972     1035.638        0.378        0.266       45.117       19.630        0.189      340.290       14.210      852.382
04/14/2013  12:16:00       97.421       60.707       37.613       83.352       58.026       48.218     6947.593     3366.999     2325.004        1.361        0.632      114.788       43.632        0.144      340.071       13.837      852.403
04/14/2013  12:17:00      174.561       75.119       40.398       89.532       58.876       62.858     8016.027     3466.432     3951.156        2.659        0.772      190.038       42.437        0.050      339.453       12.795      852.414
04/14/2013  12:18:00      110.632      100.170       16.030       68.961       78.349       64.232     4755.668     6138.492     4125.690        1.877        0.751      149.243       44.484        0.089      339.409       12.720      852.388
04/14/2013  12:19:00       52.041       72.674       15.534       67.419       61.943       55.199     4545.342     3836.941     3046.929        0.983        0.571       89.386       38.217        0.183      339.669       13.159      852.341
04/14/2013  12:20:00       39.472       79.188       -5.194       58.079       65.110       45.540     3373.188     4239.366     2073.899        0.877        0.484       88.480       33.345        0.142      339.858       13.480      852.296
04/14/2013  12:21:00       48.360       63.472        3.641       64.311       67.481       51.033     4135.930     4553.626     2604.395        0.884        0.565       79.796       24.699        0.096      339.787       13.359      852.288
04/14/2013  12:22:00       40.531       76.826      -13.081       38.702       65.987       40.258     1497.881     4354.342     1620.724        0.759        0.374       86.862       39.970        0.212      339.470       12.826      852.314
04/14/2013  12:23:00      -10.816       45.443      -10.432       27.301       20.829       25.366      745.349      433.863      643.443        0.206        0.091       46.713       15.449        0.109      339.451       12.795      852.317
04/14/2013  12:24:00      -26.999       51.589      -31.118       29.304       28.383       32.873      858.750      805.614     1080.665        0.355        0.137       58.227       18.839        0.105      339.313       12.563      852.301
04/14/2013  12:25:00       33.903       71.968      -17.281       54.840       33.929       27.319     3007.407     1151.183      746.305        0.577        0.245       79.554       25.218        0.100      339.245       12.448      852.236
04/14/2013  12:26:00      136.102      108.711       33.110       39.063       25.612       33.261     1525.895      655.999     1106.261        1.736        0.164      174.189       17.952        0.011      338.991       12.018      852.125
04/14/2013  12:27:00       -1.925       74.284       -0.068       73.737       38.411       37.839     5437.178     1475.417     1431.787        0.693        0.417       74.309       41.586        0.313      339.192       12.357      852.019
04/14/2013  12:28:00        2.478        1.721       25.015       30.054       23.880       19.235      903.226      570.268      369.989        0.124        0.092        3.016       19.041       39.849      340.334       14.283      851.964
04/14/2013  12:29:00       63.888       52.497       31.701       96.174       68.702       66.241     9249.511     4720.013     4387.877        1.310        0.918       82.690       49.373        0.357      340.243       14.128      851.950
04/14/2013  12:30:00       12.163       78.653        1.501       82.568       71.345       46.322     6817.481     5090.163     2145.767        1.019        0.703       79.587       42.313        0.283      340.105       13.896      851.963
04/14/2013  12:31:00        6.739      109.477      -13.118       42.831       82.792       34.571     1834.479     6854.468     1195.132        1.104        0.494      109.684       37.794        0.119      339.816       13.409      851.967
04/14/2013  12:32:00     -118.257       58.708       -2.784       44.412       43.308       30.578     1972.456     1875.587      935.036        1.111        0.239      132.028       18.762        0.020      339.548       12.958      851.974
04/14/2013  12:33:00      -21.123        7.297       14.198       41.046       26.067       19.759     1684.738      679.487      390.423        0.173        0.138       22.348       12.208        0.298      340.036       13.780      851.954
04/14/2013  12:34:00      -36.154       23.262       16.635       56.542       35.451       37.174     3196.987     1256.782     1381.890        0.398        0.292       42.991       37.034        0.742      339.736       13.273      851.911
04/14/2013  12:35:00       98.982      116.772       18.128       62.518       48.307       60.614     3908.510     2333.586     3674.095        1.684        0.496      153.079       47.421        0.096      339.432       12.761      851.839
04/14/2013  12:36:00       98.595       86.007       10.167       50.819       45.123       43.730     2582.580     2036.110     1912.343        1.188        0.327      130.837       22.404        0.029      339.443       12.780      851.772
04/14/2013  12:37:00       12.067       58.872       -6.758       25.239       25.170       27.051      637.027      633.523      731.777        0.283        0.100       60.096       14.177        0.056      339.772       13.334      851.743
04/14/2013  12:38:00        6.388        6.634       25.478       14.863       24.626       10.910      220.899      606.447      119.017        0.084        0.047        9.209        7.472        0.658      340.916       15.266      851.772
04/14/2013  12:39:00       23.978      -18.666       39.942       42.924       53.602       43.002     1842.467     2873.165     1849.211        0.454        0.328       30.387       28.440        0.876      340.548       14.645      851.774
04/14/2013  12:40:00      -52.202      -37.110       29.467       48.844       45.547       32.282     2385.714     2074.523     1042.139        0.524        0.275       64.049       29.855        0.217      340.508       14.578      851.739
04/14/2013  12:41:00      -86.716      -58.234       10.159       88.656       48.090       33.591     7859.904     2312.616     1128.333        1.116        0.565      104.455       23.346        0.050      340.231       14.108      851.727
04/14/2013  12:42:00      -36.117      -20.787       24.092       50.991       55.020       28.499     2600.064     3027.145      812.193        0.438        0.322       41.672       12.466        0.089      340.341       14.296      851.718
04/14/2013  12:43:00      -54.117      -55.779       -9.916       71.983       54.089       44.004     5181.594     2925.581     1936.381        0.809        0.502       77.717       25.769        0.110      340.292       14.212      851.684
04/14/2013  12:44:00      -17.674       -2.730       24.571       45.908       31.435       29.946     2107.561      988.130      896.743        0.246        0.200       17.883       24.109        1.817      340.971       15.361      851.629
04/14/2013  12:45:00      -34.145      -37.965       10.084       58.920       49.674       30.826     3471.519     2467.538      950.217        0.480        0.344       51.061       32.793        0.412      340.325       14.268      851.556
04/14/2013  12:46:00      -75.200      -36.345       15.584       65.223       59.652       47.653     4254.034     3558.359     2270.795        0.865        0.504       83.522       46.886        0.315      340.469       14.511      851.505
04/14/2013  12:47:00     -107.885      -67.368        3.684       76.132       66.977       38.030     5796.142     4485.907     1446.250        1.396        0.586      127.191       35.726        0.079      339.902       13.555      851.469
04/14/2013  12:48:00      -28.587      -42.767       15.327       44.059       46.401       30.987     1941.220     2153.037      960.185        0.397        0.253       51.441       26.387        0.263      340.191       14.042      851.451
04/14/2013  12:49:00      -87.610      -16.832       -5.920       51.019       77.750       29.573     2602.973     6045.040      874.550        0.876        0.476       89.213       24.188        0.074      339.907       13.563      851.444
04/14/2013  12:50:00        6.545      -23.648       25.348       54.126       72.531       59.888     2929.577     5260.754     3586.573        0.651        0.589       24.537       15.902        0.420      340.764       15.009      851.425
04/14/2013  12:51:00       77.144      -48.271       15.904       74.024       93.378       78.675     5479.584     8719.424     6189.713        1.446        1.019       91.001       67.908        0.557      340.334       14.283      851.394
04/14/2013  12:52:00       18.138       35.311       72.658       38.378       54.794       33.038     1472.896     3002.376     1091.480        0.621        0.278       39.697       20.427        0.265      340.623       14.772      851.403
04/14/2013  12:53:00       -8.265       68.857       96.290       33.796       41.152       32.975     1142.153     1693.483     1087.380        0.900        0.196       69.351       27.580        0.158      340.443       14.465      851.395
04/14/2013  12:54:00       41.166      106.862      -10.478       33.500       93.660       41.767     1122.246     8772.205     1744.460        1.243        0.582      114.517       42.371        0.137      340.079       13.851      851.452
04/14/2013  12:55:00      118.467      110.338       16.347      118.788       89.302       60.422    14110.492     7974.911     3650.763        2.610        1.287      161.892       45.932        0.080      340.211       14.074      851.480
04/14/2013  12:56:00      109.650      126.708       37.936       99.589       74.601       74.852     9918.010     5565.311     5602.767        2.530        1.054      167.565       43.485        0.067      340.329       14.273      851.495
04/14/2013  12:57:00      139.186       98.787       18.185       64.939       47.819       41.631     4217.087     2286.702     1733.108        1.885        0.412      170.679       25.862        0.023      339.893       13.537      851.483
04/14/2013  12:58:00       95.870      113.323        5.993      123.955       64.445       50.642    15364.771     4153.146     2564.568        2.207        1.104      148.435       32.369        0.048      340.034       13.775      851.445
04/14/2013  12:59:00      -25.586       12.885       34.406       83.330       31.129       34.215     6943.851      969.039     1170.657        0.554        0.454       28.647       40.348        1.984      340.513       14.586      851.409
04/14/2013  13:00:00       97.497       83.318       45.695       59.252       55.346       41.291     3510.853     3063.140     1704.937        1.341        0.414      128.248       29.833        0.054      340.364       14.332      851.425
04/14/2013  13:01:00       72.031       52.511       28.571       65.160       40.418       37.777     4245.821     1633.637     1427.106        0.803        0.365       89.140       10.758        0.015      340.411       14.413      851.431
04/14/2013  13:02:00       58.377       77.814       31.425       44.724       33.277       44.080     2000.256     1107.357     1943.058        0.775        0.253       97.278       16.431        0.029      340.184       14.031      851.399
04/14/2013  13:03:00       27.604        2.801       -0.005       23.743       27.849       24.877      563.726      775.589      618.889        0.136        0.098       27.746       21.961        0.626      340.482       14.533      851.362
04/14/2013  13:04:00      -12.653        7.870        2.840       44.675       25.253       25.636     1995.842      637.727      657.207        0.176        0.165       14.901       24.917        2.796      340.918       15.271      851.310
04/14/2013  13:05:00       16.600       20.723       14.388       25.552       22.135       28.132      652.893      489.936      791.433        0.142        0.097       26.552       11.207        0.178      341.281       15.885      851.257
04/14/2013  13:06:00       62.609       43.662       15.171       57.579       31.555       33.485     3315.320      995.741     1121.274        0.574        0.272       76.330       24.766        0.105      340.599       14.731      851.194
04/14/2013  13:07:00       72.657       94.190       95.733       75.127       64.931       78.171     5644.104     4216.097     6110.643        1.964        0.799      118.957       58.950        0.246      340.759       15.000      851.112
04/14/2013  13:08:00       24.584       49.931       33.734       62.470       40.746       46.374     3902.503     1660.272     2150.561        0.597        0.386       55.655       22.711        0.167      341.257       15.844      851.118
04/14/2013  13:09:00      140.690      105.946       22.886       66.109       45.549       46.060     4370.335     2074.738     2121.557        2.005        0.428      176.120       27.680        0.025      340.858       15.168      851.092
04/14/2013  13:10:00      235.747      113.464        4.624       78.850       61.963       50.267     6217.289     3839.360     2526.807        4.053        0.629      261.631       22.201        0.007      340.201       14.053      851.043
04/14/2013  13:11:00        9.611       26.617       35.850       47.394       39.373       28.292     2246.200     1550.219      800.449        0.334        0.230       28.299       26.553        0.880      341.182       15.718      851.106
04/14/2013  13:12:00       18.973       39.662       20.715       28.827       25.788       22.852      831.008      665.006      522.228        0.219        0.101       43.966       14.197        0.104      340.753       14.992      851.172
04/14/2013  13:13:00       15.786       75.201       19.295       42.527       59.324       40.926     1808.515     3519.304     1674.909        0.664        0.350       76.840       34.904        0.206      340.925       15.282      851.096
04/14/2013  13:14:00       22.749       90.867        1.442       42.485       70.362       42.848     1804.952     4950.837     1835.921        0.868        0.430       93.671       45.298        0.234      340.994       15.401      851.018
04/14/2013  13:15:00      -63.868      173.283      -23.281       42.486       49.150       31.050     1805.028     2415.744      964.088        1.992        0.259      184.678       27.115        0.022      340.512       14.582      851.058
04/14/2013  13:16:00      -14.654       96.718       10.174       94.275       44.180       48.272     8887.759     1951.832     2330.165        1.142        0.658       97.822       53.406        0.298      340.958       15.339      851.089
04/14/2013  13:17:00       21.569      211.593      -31.463      102.873       88.323       44.881    10582.794     7800.898     2014.331        3.331        1.020      212.690       32.645        0.024      340.488       14.540      851.017
04/14/2013  13:18:00       20.064       46.336       17.129       27.716       66.081       35.993      768.155     4366.674     1295.513        0.464        0.322       50.493       41.771        0.684      341.331       15.969      851.001
04/14/2013  13:19:00       50.885      -39.628       43.482       60.198       91.695       59.031     3623.797     8407.953     3484.668        1.078        0.776       64.496       65.671        1.037      341.124       15.619      850.962
04/14/2013  13:20:00       31.227      -34.218       79.822       60.979      128.282       75.520     3718.447    16456.287     5703.318        1.719        1.294       46.324       89.776        3.756      341.417       16.114      850.971
04/14/2013  13:21:00       57.710     -187.223       -3.585       89.661       99.890       74.056     8039.109     9978.033     5484.230        3.094        1.175      195.915       58.014        0.088      340.921       15.273      851.014
04/14/2013  13:22:00        2.305     -149.626       -6.053      117.432       82.795       48.803    13790.287     6855.086     2381.707        2.272        1.151      149.644       48.049        0.103      340.843       15.141      851.135
04/14/2013  13:23:00       82.776       62.167       17.634       82.354       71.914       61.193     6782.137     5171.576     3744.613        1.336        0.785      103.521       45.977        0.197      341.161       15.683      851.073
04/14/2013  13:24:00      -85.392      -16.086      -11.000       43.571       36.801       30.485     1898.432     1354.292      929.314        0.593        0.209       86.894       19.764        0.052      341.138       15.643      851.008
04/14/2013  13:25:00       27.410      -78.090       -2.583       78.849       74.035       40.330     6217.182     5481.122     1626.480        1.009        0.666       82.761       24.678        0.089      341.242       15.820      850.974
04/14/2013  13:26:00     -143.072       27.309        1.301       70.297       71.505       44.134     4941.660     5112.906     1947.770        1.661        0.600      145.655       34.576        0.056      341.912       16.954      850.937
04/14/2013  13:27:00     -339.228     -207.224      -18.571      222.958      192.626       77.011    49710.145    37104.667     5930.651       12.554        4.637      397.514      110.598        0.077      342.015       17.126      850.889
04/14/2013  13:28:00     -338.676     -153.051      -24.341      150.092      117.722       65.744    22527.599    13858.355     4322.297        8.971        2.035      371.653       58.119        0.024      342.092       17.255      850.864
04/14/2013  13:29:00     -193.477     -108.637       -4.188      172.399      140.780       64.167    29721.431    19819.070     4117.342        5.145        2.683      221.891       55.887        0.063      342.216       17.469      850.814
04/14/2013  13:30:00     -235.677     -148.113       10.723      234.555      173.148       95.688    55015.889    29980.140     9156.110        8.586        4.708      278.354       77.465        0.077      342.259       17.540      850.802
04/14/2013  13:31:00     -536.140     -171.339      -17.222      343.537      245.499      121.945   118017.328    60269.744    14870.697       25.510        9.658      562.852      151.444        0.072      341.862       16.868      850.780
04/14/2013  13:32:00     -551.060       39.273      -38.426      241.819      210.801       95.803    58476.321    44437.227     9178.259       20.937        5.605      552.457       99.237        0.032      341.877       16.892      850.801
04/14/2013  13:33:00     -647.106     -155.305      -23.918      252.362      174.719      103.833    63686.349    30526.797    10781.344       27.420        5.250      665.482      114.612        0.030      341.850       16.846      850.741
04/14/2013  13:34:00     -244.568      -11.303      -18.177      154.830      124.199       70.653    23972.448    15425.330     4991.851        5.232        2.219      244.829       76.921        0.099      342.159       17.372      850.715
04/14/2013  13:35:00     -293.162      -83.886        0.839      210.244      184.180       91.066    44202.555    33922.382     8293.013        8.969        4.321      304.928       98.136        0.104      342.118       17.300      850.645
04/14/2013  13:36:00     -529.198       65.083      -39.095      282.178      188.989       91.449    79624.547    35716.971     8362.862       20.474        6.185      533.185       99.593        0.035      342.177       17.401      850.569
04/14/2013  13:37:00     -326.221     -189.487        7.968      284.676      236.322      126.356    81040.147    55848.205    15965.892       14.760        7.643      377.261      127.517        0.114      342.326       17.653      850.592
04/14/2013  13:38:00     -590.012     -264.354      -10.602      327.180      219.355      119.106   107046.608    48116.527    14186.131       29.370        8.467      646.527      135.997        0.044      341.686       16.568      850.644
04/14/2013  13:39:00     -604.213      -93.415      -26.299      282.600      246.351      125.396    79862.850    60688.903    15724.221       26.536        7.814      611.392      142.882        0.055      341.750       16.676      850.670
04/14/2013  13:40:00     -411.395     -264.065      -22.308      268.148      167.803      124.387    71903.247    28157.893    15472.029       17.748        5.777      488.851      142.868        0.085      341.687       16.570      850.691
04/14/2013  13:41:00     -241.183      -51.056       11.806      223.907      129.713       86.699    50134.447    16825.383     7516.710        6.768        3.724      246.527      106.480        0.187      342.056       17.196      850.662
04/14/2013  13:42:00     -401.330     -142.175      -22.961      240.817      229.276       89.753    57992.655    52567.642     8055.648       15.019        5.931      425.769      113.977        0.072      341.986       17.078      850.694
04/14/2013  13:43:00     -271.660      -71.359        7.199      218.868      169.036       97.930    47903.020    28573.294     9590.324        8.249        4.303      280.876      111.183        0.157      342.337       17.672      850.738
04/14/2013  13:44:00     -477.451      -84.447      -40.662      248.315      194.508       94.991    61660.438    37833.373     9023.207       17.261        5.426      484.862      120.450        0.062      342.313       17.631      850.781
04/14/2013  13:45:00     -463.649     -110.188      -32.020      258.628      205.267       93.591    66888.610    42134.654     8759.354       17.294        5.889      476.563      117.216        0.060      342.029       17.149      850.804
04/14/2013  13:46:00     -270.313     -181.532        9.953      251.220      236.523      114.532    63111.267    55942.916    13117.582       11.912        6.609      325.612      129.488        0.158      342.144       17.344      850.779
04/14/2013  13:47:00     -413.409     -202.462        1.806      266.793      204.371      125.283    71178.653    41767.671    15695.731       17.025        6.432      460.324      130.694        0.081      341.756       16.686      850.780
04/14/2013  13:48:00     -369.100     -230.455       -1.613      305.283      287.114      120.850    93198.010    82434.576    14604.791       18.976        9.512      435.137      149.697        0.118      341.916       16.958      850.803
04/14/2013  13:49:00     -233.470     -123.730        9.285      205.512      170.666      102.110    42235.236    29126.811    10426.527        7.583        4.089      264.229      111.579        0.178      342.180       17.406      850.811
04/14/2013  13:50:00      -64.553      -56.584       31.901      168.402      125.893       87.350    28359.244    15849.152     7629.941        3.010        2.592       85.842       97.885        1.300      342.579       18.085      850.830
04/14/2013  13:51:00     -233.049     -105.119       27.487      265.644      166.808      102.732    70566.802    27825.022    10553.832        8.751        5.447      255.660      130.828        0.262      342.411       17.800      850.848
04/14/2013  13:52:00     -472.226     -102.852      -23.221      289.287      234.809      108.875    83686.685    55135.036    11853.707       19.237        7.534      483.297      123.460        0.065      341.701       16.594      850.801
04/14/2013  13:53:00     -641.980     -120.940      -28.799      313.276      262.439      107.642    98141.827    68874.202    11586.821       30.307        8.930      653.272      131.217        0.040      341.863       16.870      850.788
04/14/2013  13:54:00     -329.289     -117.065       -3.889      270.988      211.285       96.981    73434.533    44641.425     9405.251       12.479        6.374      349.479      101.883        0.085      341.979       17.066      850.891
04/14/2013  13:55:00     -270.305     -132.793       18.799      279.227      216.763      127.456    77967.700    46986.174    16244.941       11.610        7.060      301.162      148.766        0.244      341.755       16.684      850.912
04/14/2013  13:56:00     -413.126      -53.393       -7.656      247.159      154.896       89.691    61087.469    23992.664     8044.509       13.334        4.656      416.562      106.260        0.065      341.871       16.880      850.905
04/14/2013  13:57:00     -364.431      -69.941      -24.896      236.131      168.332       86.432    55757.825    28335.818     7470.408       11.493        4.578      371.082       97.562        0.069      342.105       17.278      850.902
04/14/2013  13:58:00     -689.305     -180.939      -44.881      329.800      289.565      137.952   108767.863    83847.933    19030.701       36.073       10.582      712.657      162.059        0.052      341.966       17.044      850.927
04/14/2013  13:59:00     -436.723     -147.398      -37.410      289.997      242.425      114.168    84098.331    58769.812    13034.273       18.485        7.795      460.926      123.510        0.072      341.903       16.935      850.980
04/14/2013  14:00:00     -334.532     -193.656      -20.533      202.366      218.589      118.917    40952.136    47781.331    14141.313       12.634        5.144      386.542      123.335        0.102      341.749       16.674      850.944
04/14/2013  14:01:00     -275.789     -135.383        8.465      277.806      244.489      130.580    77176.304    59774.843    17051.010       12.421        7.700      307.226      153.459        0.249      341.995       17.093      850.991
04/14/2013  14:02:00     -621.036     -129.195      -25.874      292.664      298.794      106.320    85651.981    89277.667    11303.919       29.461        9.312      634.331      118.173        0.035      341.586       16.397      850.952
04/14/2013  14:03:00     -336.487     -116.349      -21.597      213.567      177.977       84.523    45610.917    31675.770     7144.135       10.581        4.222      356.034       70.596        0.039      341.957       17.028      850.936
04/14/2013  14:04:00     -750.615     -186.432      -49.935      325.228      253.128      117.628   105773.006    64073.995    13836.277       39.215        9.184      773.421      124.652        0.026      341.699       16.588      850.901
04/14/2013  14:05:00     -797.540     -185.384      -31.608      337.045      247.480      161.859   113599.507    61246.237    26198.313       43.621       10.052      818.803      175.362        0.046      341.675       16.548      850.867
04/14/2013  14:06:00     -554.754     -278.074        1.207      309.256      305.996      143.397    95639.202    93633.669    20562.715       29.742       10.492      620.546      155.765        0.063      341.682       16.561      850.860
04/14/2013  14:07:00     -401.188     -342.119       13.025      269.533      219.020      141.467    72648.111    47969.955    20013.016       20.938        7.032      527.255      148.817        0.080      341.795       16.752      850.808
04/14/2013  14:08:00     -377.600     -153.099      -21.536      208.844      183.110       85.747    43615.716    33529.450     7352.479       12.548        4.225      407.457       95.966        0.055      342.038       17.165      850.853
04/14/2013  14:09:00     -351.254     -236.364       12.417      233.660      251.483      111.323    54596.863    63243.662    12392.788       15.480        6.512      423.377      120.975        0.082      341.876       16.890      850.864
04/14/2013  14:10:00     -456.457     -154.803      -10.593      299.264      184.759      119.018    89559.089    34135.939    14165.264       18.512        6.893      481.993      131.396        0.074      341.667       16.535      850.831
04/14/2013  14:11:00     -571.212     -311.577      -13.297      380.275      330.376      155.820   144609.378   109148.510    24279.936       35.074       13.902      650.664      177.158        0.074      341.673       16.546      850.757
04/14/2013  14:12:00     -671.658     -244.857      -22.295      319.305      287.926      125.040   101955.884    82901.102    15635.067       35.600       10.025      714.898      136.960        0.037      341.751       16.678      850.754
04/14/2013  14:13:00     -622.565     -166.585       -1.426      419.219      291.403      158.403   175744.964    84915.863    25091.517       35.050       14.288      644.467      188.477        0.086      341.661       16.526      850.768
04/14/2013  14:14:00     -685.551     -301.480      -14.516      394.551      248.708      142.409   155670.605    61855.699    20280.314       39.940       11.890      748.913      150.339        0.040      341.563       16.359      850.739
04/14/2013  14:15:00     -372.033     -197.528      -10.238      226.354      220.295       90.910    51236.061    48529.816     8264.540       14.276        5.402      421.219       92.943        0.049      341.816       16.788      850.744
04/14/2013  14:16:00     -746.292      -66.506      -41.540      337.397      212.342      124.729   113837.024    45089.225    15557.246       36.876        8.724      749.250      135.069        0.032      341.691       16.577      850.734
04/14/2013  14:17:00     -590.125     -170.487       -5.578      303.331      278.697      129.704    92009.585    77672.005    16823.110       28.189        9.325      614.259      146.270        0.057      341.782       16.730      850.690
04/14/2013  14:18:00     -455.980     -245.921      -26.411      298.068      266.924      133.338    88844.443    71248.399    17778.941       22.345        8.894      518.068      160.068        0.095      341.832       16.815      850.673
04/14/2013  14:19:00     -360.518     -229.976       14.834      355.962      217.387      147.631   126708.899    47257.184    21794.980       18.939        9.788      427.624      172.656        0.163      341.914       16.955      850.642
04/14/2013  14:20:00     -578.032     -472.900       -8.409      406.857      305.922      191.310   165532.512    93588.483    36599.681       42.672       14.786      746.831      221.072        0.088      341.733       16.647      850.562
04/14/2013  14:21:00     -474.527     -224.468       -4.202      384.119      254.754      150.818   147547.633    64899.813    22745.983       25.535       11.760      524.940      180.224        0.118      341.889       16.912      850.598
04/14/2013  14:22:00     -390.188     -311.183       -0.475      304.634      292.251      133.516    92802.001    85410.575    17826.643       22.253        9.802      499.081      162.601        0.106      341.957       17.027      850.564
04/14/2013  14:23:00     -532.100     -282.808       -1.475      333.947      297.561      150.576   111520.295    88542.275    22673.071       29.289       11.137      602.587      171.592        0.081      341.796       16.753      850.546
04/14/2013  14:24:00     -500.688     -342.801       20.978      314.522      238.213      127.790    98924.053    56745.588    16330.319       27.029        8.600      606.796      141.168        0.054      341.517       16.281      850.519
04/14/2013  14:25:00     -478.626     -177.760       -0.606      296.138      234.908      130.141    87697.974    55181.927    16936.711       21.022        7.991      510.570      160.822        0.099      341.638       16.487      850.486
04/14/2013  14:26:00     -615.921     -409.234      -34.877      379.191      265.363      138.391   143785.937    70417.373    19152.088       39.066       11.668      739.480      168.418        0.052      341.614       16.447      850.490
04/14/2013  14:27:00     -660.968     -211.324      -49.662      402.072      286.586      139.658   161661.918    82131.536    19504.414       37.361       13.165      693.928      166.740        0.058      341.912       16.949      850.515
04/14/2013  14:28:00     -688.669     -296.754      -17.052      354.031      268.087      140.798   125338.208    71870.769    19824.168       38.979       10.852      749.885      169.754        0.051      341.971       17.051      850.522
04/14/2013  14:29:00     -872.755     -328.420      -12.564      342.030      297.529      140.789   116984.558    88523.282    19821.565       54.749       11.266      932.503      161.974        0.030      341.507       16.265      850.567
04/14/2013  14:30:00     -663.076     -355.356      -32.257      333.564      254.369      130.042   111265.003    64703.498    16910.973       37.990        9.644      752.295      153.658        0.042      341.539       16.320      850.549
04/14/2013  14:31:00     -499.829     -259.055       -9.053      314.874      252.264      145.547    99145.907    63636.957    21183.883       25.046        9.198      562.973      151.536        0.072      341.845       16.837      850.501
04/14/2013  14:32:00     -446.323      -70.634        2.788      366.567      260.123      146.729   134371.042    67664.179    21529.446       21.385       11.178      451.878      172.708        0.146      342.057       17.196      850.600
04/14/2013  14:33:00     -697.464     -177.268      -22.623      424.392      278.009      130.519   180108.723    77289.126    17035.332       39.637       13.722      719.638      144.828        0.041      341.773       16.717      850.657
04/14/2013  14:34:00     -854.083     -135.353      -39.167      424.781      231.455      127.946   180438.967    53571.595    16370.266       49.980       12.519      864.742      159.058        0.034      341.424       16.123      850.663
04/14/2013  14:35:00     -607.718      -64.964      -14.552      335.983      203.767      125.022   112884.712    41521.033    15630.431       27.187        8.502      611.180      160.519        0.069      341.781       16.729      850.655
04/14/2013  14:36:00     -689.473     -156.760      -39.351      388.798      232.128      128.177   151164.156    53883.604    16429.325       36.145       11.074      707.069      160.522        0.052      341.808       16.775      850.640
04/14/2013  14:37:00     -519.773     -117.492       -3.578      297.912      214.888      114.140    88751.675    46176.821    13028.009       21.594        7.398      532.887      140.306        0.069      341.900       16.931      850.581
04/14/2013  14:38:00     -784.485     -182.188      -29.936      319.152      242.825      123.868   101857.820    58963.931    15343.198       41.281        8.808      805.363      110.921        0.019      341.903       16.934      850.660
04/14/2013  14:39:00     -981.006      -46.305      -63.806      322.114      280.811      136.920   103757.425    78854.906    18746.959       58.494       10.068      982.099      158.388        0.026      341.631       16.475      850.643
04/14/2013  14:40:00     -576.191     -183.181      -30.572      270.807      229.814      126.437    73336.275    52814.331    15986.298       25.429        7.107      604.608      138.104        0.052      342.066       17.212      850.580
04/14/2013  14:41:00     -803.828     -235.283      -28.794      335.311      337.756      138.951   112433.475   114078.942    19307.413       47.403       12.291      837.555      146.453        0.031      341.823       16.801      850.597
04/14/2013  14:42:00     -688.618      -60.208      -37.464      343.977      328.260      116.973   118320.279   107754.330    13682.789       35.945       11.988      691.245      109.648        0.025      341.861       16.864      850.615
04/14/2013  14:43:00     -814.307      -20.701      -61.474      408.229      265.948      160.911   166650.738    70728.454    25892.438       46.524       13.164      814.570      187.710        0.053      341.762       16.696      850.632
04/14/2013  14:44:00     -888.634     -227.684      -60.599      451.271      335.323      151.781   203645.503   112441.781    23037.456       59.210       16.956      917.339      200.738        0.048      341.635       16.482      850.547
04/14/2013  14:45:00     -738.330     -202.880      -37.001      322.441      277.492      128.853   103968.404    77001.550    16603.130       39.258        9.879      765.697      140.855        0.034      341.641       16.490      850.595
04/14/2013  14:46:00     -817.358     -152.245      -54.068      277.545      254.919      125.922    77031.112    64983.601    15856.330       42.600        7.894      831.416      115.426        0.019      341.402       16.086      850.605
04/14/2013  14:47:00     -575.303     -160.503      -10.312      301.233      227.091      114.925    90741.542    51570.267    13207.649       25.615        7.776      597.273      110.823        0.034      341.740       16.659      850.530
04/14/2013  14:48:00     -381.626       33.736      -35.280      219.340      259.902      124.172    48109.945    67549.193    15418.677       13.953        6.554      383.115      115.137        0.090      341.923       16.969      850.483
04/14/2013  14:49:00     -603.666     -170.945      -27.294      280.273      228.323       98.366    78553.178    52131.322     9675.827       26.735        7.018      627.403      117.272        0.035      341.924       16.971      850.577
04/14/2013  14:50:00     -631.180     -231.311      -19.083      258.846      217.871      121.732    67001.510    47467.776    14818.645       29.075        6.464      672.230      107.689        0.026      341.575       16.379      850.508
04/14/2013  14:51:00     -663.171     -291.825      -39.282      380.695      289.186      128.858   144928.499    83628.308    16604.417       38.579       12.258      724.540      142.734        0.039      341.612       16.442      850.569
04/14/2013  14:52:00     -523.598     -185.967       -6.333      256.260      212.668      105.529    65669.373    45227.489    11136.275       21.539        6.102      555.643      115.533        0.043      341.639       16.487      850.519
04/14/2013  14:53:00     -492.463     -258.118      -20.008      286.234      238.213      120.495    81930.090    56745.302    14519.147       23.134        7.660      556.008      114.913        0.043      341.652       16.510      850.497
04/14/2013  14:54:00     -620.138     -359.815      -23.554      350.262      246.140      145.044   122683.306    60584.908    21037.636       35.942       10.215      716.965      149.864        0.044      341.420       16.117      850.432
04/14/2013  14:55:00     -677.203     -471.368      -20.850      373.328      293.587      167.335   139373.985    86193.445    28000.991       46.736       12.678      825.101      191.191        0.054      341.148       15.656      850.388
04/14/2013  14:56:00     -558.842     -381.852      -14.276      292.516      286.942      142.218    85565.592    82335.610    20225.939       32.319        9.406      676.842      146.996        0.047      341.285       15.889      850.372
04/14/2013  14:57:00     -522.273     -397.186      -10.316      340.695      268.771      153.319   116073.005    72237.594    23506.745       32.119       10.591      656.144      167.136        0.065      341.222       15.781      850.364
04/14/2013  14:58:00     -439.650     -185.552       -3.416      241.651      215.743      109.782    58395.153    46544.879    12052.159       17.234        5.850      477.202      112.159        0.055      341.242       15.815      850.284
04/14/2013  14:59:00     -570.774     -315.848      -12.333      253.590      219.774      119.931    64307.919    48300.458    14383.443       27.632        6.350      652.337      128.495        0.039      341.222       15.782      850.287
04/14/2013  15:00:00     -557.033     -406.481      -23.141      366.937      231.594      137.948   134642.793    53635.838    19029.600       34.164       10.365      689.574      179.060        0.067      341.188       15.724      850.263
04/14/2013  15:01:00     -696.358     -439.589      -17.269      315.351      242.849      143.845    99446.493    58975.447    20691.409       42.875        8.956      823.501      160.706        0.038      341.189       15.726      850.235
04/14/2013  15:02:00     -497.163     -264.429      -29.888      320.316      223.344      115.275   102602.272    49882.659    13288.404       24.185        8.289      563.111      134.506        0.057      341.388       16.061      850.312
04/14/2013  15:03:00     -620.161      -45.308      -20.967      327.514      206.406      112.077   107265.341    42603.474    12561.194       27.473        8.122      621.814      128.320        0.043      341.700       16.591      850.354
04/14/2013  15:04:00     -592.740     -156.574      -17.377      299.699      210.941      108.708    89819.584    44496.116    11817.339       26.112        7.307      613.071      121.131        0.039      341.425       16.124      850.357
04/14/2013  15:05:00     -750.705     -117.748      -26.517      311.730      195.595      116.931    97175.831    38257.348    13672.914       36.359        7.455      759.883      156.856        0.043      341.312       15.936      850.335
04/14/2013  15:06:00     -773.717     -168.452      -35.757      289.779      194.814      128.456    83971.947    37952.421    16501.000       38.334        6.921      791.842      140.871        0.032      341.320       15.947      850.347
04/14/2013  15:07:00     -756.472     -154.079      -29.009      298.107      233.400      107.387    88867.643    54475.600    11531.948       37.583        7.744      772.004      131.868        0.029      341.223       15.783      850.324
04/14/2013  15:08:00     -744.266     -175.060      -36.395      263.392      233.077      104.579    69375.114    54324.772    10936.869       36.025        6.732      764.577      105.220        0.019      341.510       16.269      850.295
04/14/2013  15:09:00     -600.740     -234.125       -8.696      298.723      210.194      107.252    89235.644    44181.518    11503.050       28.032        7.246      644.750      110.277        0.029      341.405       16.091      850.332
04/14/2013  15:10:00     -485.630     -201.553       -8.408      320.797      251.234      117.645   102910.928    63118.757    13840.250       22.817        8.993      525.795      155.650        0.088      341.560       16.356      850.331
04/14/2013  15:11:00     -488.765        2.450      -37.989      238.649      164.708       91.420    56953.532    27128.771     8357.703       16.637        4.622      488.771       96.598        0.039      341.711       16.610      850.374
04/14/2013  15:12:00     -649.411      -71.056      -25.534      237.350      198.872       99.735    56335.004    39550.118     9947.098       26.662        5.292      653.286       98.189        0.023      341.476       16.213      850.350
04/14/2013  15:13:00     -481.304     -209.806       -9.006      292.049      204.478      119.222    85292.612    41811.404    14213.863       20.851        7.066      525.045      152.853        0.085      341.579       16.385      850.360
04/14/2013  15:14:00     -550.645     -265.048      -31.544      337.456      284.041      155.783   113876.639    80679.429    24268.321       29.660       10.941      611.114      169.272        0.077      341.420       16.116      850.343
04/14/2013  15:15:00     -599.555     -155.744      -22.345      325.317      218.198      131.082   105831.073    47610.220    17182.613       27.739        8.531      619.453      129.837        0.044      341.516       16.279      850.433
04/14/2013  15:16:00     -562.290      -58.149      -25.929      400.380      232.590      109.638   160304.151    54098.000    12020.406       27.329       11.321      565.288      145.830        0.067      341.381       16.051      850.363
04/14/2013  15:17:00     -502.790     -119.584       -8.360      229.153      270.453      111.422    52511.179    73145.024    12414.855       20.260        6.904      516.815      109.898        0.045      341.411       16.102      850.379
04/14/2013  15:18:00     -459.455     -360.298      -22.712      269.104      220.119      135.788    72417.205    48452.252    18438.443       24.035        6.965      583.878      146.320        0.063      341.413       16.105      850.357
04/14/2013  15:19:00     -441.599     -149.875       -1.411      369.276      202.441      141.356   136364.761    40982.462    19981.429       20.737        9.866      466.339      168.016        0.130      341.491       16.236      850.387
04/14/2013  15:20:00     -403.885      -86.344       -0.745      220.618      171.981       96.051    48672.134    29577.576     9225.745       12.901        4.374      413.011       97.814        0.056      341.659       16.522      850.455
04/14/2013  15:21:00     -447.614     -276.573       -4.811      381.526      323.184      119.889   145561.868   104447.606    14373.395       27.058       13.219      526.166      171.603        0.106      341.564       16.361      850.445
04/14/2013  15:22:00     -695.064     -474.117      -53.586      369.786      272.081      147.691   136741.877    74027.958    21812.505       47.164       11.629      841.368      161.874        0.037      341.384       16.056      850.391
04/14/2013  15:23:00     -407.446     -137.492       -6.555      331.714      213.932      149.944   110034.105    45767.038    22483.181       18.159        8.914      430.019      175.481        0.167      341.365       16.023      850.415
04/14/2013  15:24:00     -568.370     -234.481       -0.925      296.306      269.300      126.686    87797.517    72522.393    16049.281       27.717        8.818      614.838      151.341        0.061      341.250       15.829      850.427
04/14/2013  15:25:00     -326.529     -150.529        2.279      192.768      220.118       89.170    37159.546    48452.014     7951.275       11.141        4.678      359.555       96.250        0.072      341.531       16.305      850.384
04/14/2013  15:26:00     -441.698     -332.703       28.881      342.112      328.650      156.062   117040.561   108011.082    24355.242       27.797       12.470      552.981      186.151        0.113      341.414       16.108      850.354
04/14/2013  15:27:00     -449.338     -199.699        2.496      262.430      235.574      115.312    68869.582    55495.177    13296.884       18.970        6.883      491.716      131.926        0.072      341.560       16.356      850.475
04/14/2013  15:28:00     -460.472     -251.485       -0.690      331.796      266.297      127.241   110088.416    70913.848    16190.267       23.620        9.860      524.671      141.768        0.073      341.424       16.124      850.472
04/14/2013  15:29:00     -578.408     -224.585      -46.918      253.199      222.896      113.023    64109.512    49682.787    12774.243       25.686        6.328      620.479      120.233        0.038      341.347       15.993      850.446
04/14/2013  15:30:00     -391.521     -219.104        1.779      296.893      277.671      128.068    88145.314    77100.971    16401.467       19.144        9.082      448.659      133.437        0.088      341.286       15.890      850.381
04/14/2013  15:31:00     -420.627      -20.785       13.992      320.010      190.746      110.454   102406.245    36384.058    12199.997       16.425        7.550      421.141      127.002        0.091      341.499       16.252      850.370
04/14/2013  15:32:00     -489.128     -192.400        1.547      288.766      220.231      119.842    83385.554    48501.574    14362.150       21.123        7.312      525.608      131.827        0.063      341.347       15.992      850.384
04/14/2013  15:33:00     -395.033      -55.546        0.564      349.101      211.138      132.563   121871.620    44579.273    17572.955       17.155        9.201      398.920      154.983        0.151      341.272       15.867      850.330
04/14/2013  15:34:00     -342.822      -41.183        8.296      279.520      221.065      120.081    78131.595    48869.549    14419.403       13.033        7.071      345.287      139.755        0.164      341.304       15.921      850.186
04/14/2013  15:35:00     -606.647     -373.017      -19.137      358.961      311.113      142.563   128853.024    96791.312    20324.113       37.671       12.298      712.153      172.175        0.058      341.249       15.827      850.264
04/14/2013  15:36:00     -574.122     -179.411      -21.851      268.803      241.645      125.905    72255.187    58392.444    15851.963       25.437        7.325      601.502      120.417        0.040      341.227       15.789      850.385
04/14/2013  15:37:00     -623.074     -232.337      -26.655      309.627      208.460      110.285    95868.859    43455.520    12162.713       29.717        7.574      664.983      141.182        0.045      341.063       15.513      850.368
04/14/2013  15:38:00     -397.867     -218.066       -9.970      252.687      215.200      102.041    63850.654    46311.014    10412.402       16.324        6.029      453.708      106.028        0.055      341.121       15.611      850.358
04/14/2013  15:39:00     -504.601     -302.595       -3.407      281.784      180.215      115.167    79402.091    32477.596    13263.492       23.565        6.257      588.375      137.433        0.055      341.039       15.471      850.316
04/14/2013  15:40:00     -397.448     -170.162       17.448      259.283      184.064      120.804    67227.665    33879.633    14593.505       15.144        5.785      432.343      122.847        0.081      341.149       15.658      850.341
04/14/2013  15:41:00     -382.991     -195.693       -4.750      225.505      203.696      110.110    50852.391    41492.015    12124.299       14.472        5.223      430.090      113.749        0.070      341.263       15.851      850.365
04/14/2013  15:42:00     -494.142     -252.800       -7.315      290.791      222.263      107.071    84559.142    49400.986    11464.223       22.676        7.271      555.053      142.565        0.066      341.058       15.503      850.343
04/14/2013  15:43:00     -460.702      -63.259      -36.251      224.058      185.477      105.776    50201.790    34401.728    11188.567       15.666        4.790      465.025      103.966        0.050      341.227       15.789      850.335
04/14/2013  15:44:00     -333.747      -53.178       15.285      221.565      220.627       96.759    49090.981    48676.157     9362.386       11.077        5.356      337.957       92.756        0.075      341.204       15.752      850.331
04/14/2013  15:45:00     -360.023      -62.702       -3.292      198.984      198.862       85.676    39594.808    39545.948     7340.448       11.001        4.324      365.443       92.445        0.064      341.309       15.930      850.316
04/14/2013  15:46:00     -332.069      -70.375      -13.809      205.155      165.860       69.509    42088.482    27509.514     4831.492        9.491        3.721      339.444       84.665        0.062      341.246       15.823      850.322
04/14/2013  15:47:00     -171.285      -85.694        9.430      158.502      149.770       73.644    25123.005    22431.093     5423.445        4.487        2.649      191.526       82.706        0.186      341.359       16.014      850.352
04/14/2013  15:48:00     -427.232      -34.845       -8.960      184.482      170.702       87.473    34033.478    29139.080     7651.510       12.731        3.541      428.651       94.558        0.049      341.253       15.834      850.341
04/14/2013  15:49:00     -275.919      -90.501       16.804      195.839      171.601       96.478    38352.765    29446.785     9308.003        8.084        3.855      290.382       92.847        0.102      341.333       15.969      850.350
04/14/2013  15:50:00     -437.699     -194.113       -4.977      258.669      217.603      103.803    66909.431    47351.030    10775.022       17.714        6.252      478.812      126.790        0.070      341.064       15.513      850.290
04/14/2013  15:51:00     -518.623     -163.212      -10.046      244.367      202.689      100.584    59715.217    41082.705    10117.221       20.329        5.546      543.699      113.126        0.043      341.146       15.654      850.276
04/14/2013  15:52:00     -419.703      -68.543      -19.939      176.916      226.773       89.350    31299.390    51426.042     7983.440       13.596        4.535      425.263       80.854        0.036      341.254       15.836      850.280
04/14/2013  15:53:00     -372.898     -175.342      -19.532      183.691      163.942       85.400    33742.498    26877.050     7293.083       11.903        3.396      412.065       89.327        0.047      341.314       15.937      850.234
04/14/2013  15:54:00     -664.224     -146.534      -49.746      250.479      164.107      110.171    62739.846    26931.105    12137.621       28.346        5.090      680.196      121.504        0.032      341.179       15.708      850.245
04/14/2013  15:55:00     -355.266      -88.336       14.693      272.680      160.479      105.067    74354.493    25753.533    11039.090       12.267        5.557      366.084      139.071        0.144      341.434       16.142      850.209
04/14/2013  15:56:00     -590.626      -87.202      -30.148      250.392      200.996       93.676    62695.913    40399.362     8775.142       23.459        5.594      597.029      105.618        0.031      341.532       16.306      850.201
04/14/2013  15:57:00     -458.816     -180.561      -12.303      226.752      169.880       95.085    51416.393    28859.267     9041.224       16.628        4.466      493.066       96.310        0.038      341.607       16.433      850.236
04/14/2013  15:58:00     -317.367      -50.973        5.669      231.458      128.631       80.387    53572.869    16546.061     6462.012        8.995        3.829      321.434      100.479        0.098      341.784       16.734      850.238
04/14/2013  15:59:00     -464.253     -203.285       -8.345      346.739      238.174      138.719   120227.859    56726.975    19243.068       22.653        9.810      506.810      173.362        0.117      341.501       16.254      850.172
04/14/2013  16:00:00     -273.982     -130.149        9.381      209.963      173.720       95.407    44084.290    30178.603     9102.432        8.772        4.168      303.323       83.448        0.076      341.578       16.385      850.177
04/14/2013  16:01:00     -541.308     -143.964      -27.252      257.273      196.740       95.682    66189.612    38706.464     9154.999       21.425        5.703      560.125       96.728        0.030      341.337       15.975      850.230
04/14/2013  16:02:00     -568.062     -203.994      -38.480      265.285      227.375       99.691    70376.202    51699.294     9938.343       24.888        6.601      603.579      105.534        0.031      341.149       15.659      850.143
04/14/2013  16:03:00     -522.433     -122.092      -30.465      326.070      226.692      111.690   106321.763    51389.466    12474.681       22.945        8.509      536.509      135.000        0.063      341.201       15.747      850.182
04/14/2013  16:04:00     -271.808     -110.441        8.473      202.361      207.049      107.874    40949.809    42869.105    11636.709        9.079        4.773      293.389      101.254        0.119      341.363       16.020      850.183
04/14/2013  16:05:00     -403.392     -145.128       -7.505      280.425      208.938      105.779    78637.905    43655.259    11189.185       15.864        6.674      428.704      130.870        0.093      341.300       15.914      850.167
04/14/2013  16:06:00     -425.507     -228.117       -6.009      226.326      175.965      120.613    51223.447    30963.744    14547.559       16.492        4.837      482.798      128.257        0.071      341.142       15.647      850.102
04/14/2013  16:07:00     -447.688     -229.471      -23.018      231.546      186.010      102.563    53613.699    34599.545    10519.269       17.616        4.937      503.072       89.581        0.032      341.385       16.057      850.140
04/14/2013  16:08:00     -780.647     -245.671      -22.774      275.617      189.271      108.481    75964.843    35823.534    11768.201       39.690        6.178      818.391      121.654        0.022      340.933       15.292      850.111
04/14/2013  16:09:00     -854.958     -210.106      -46.333      274.007      194.833      143.715    75079.568    37959.939    20654.033       45.545        6.685      880.396      156.345        0.032      340.805       15.077      850.071
04/14/2013  16:10:00     -487.717     -263.725      -29.339      274.078      201.043      124.475    75118.930    40418.141    15494.054       21.963        6.552      554.453      115.692        0.044      340.936       15.298      850.076
04/14/2013  16:11:00     -299.572     -232.705       23.091      264.751      275.224      152.519    70093.148    75748.285    23262.155       15.674        8.455      379.334      168.455        0.197      340.945       15.312      850.107
04/14/2013  16:12:00     -492.480       13.734      -16.403      283.640      180.550      100.534    80451.885    32598.474    10107.171       18.306        6.158      492.672      122.308        0.062      341.004       15.413      850.144
04/14/2013  16:13:00     -430.938      -43.533      -20.391      255.897      172.057      101.875    65483.106    29603.449    10378.423       14.672        5.273      433.131      104.900        0.059      340.967       15.351      850.072
04/14/2013  16:14:00     -691.906      -96.851      -39.263      336.244      217.029      125.068   113060.155    47101.680    15641.903       33.270        8.790      698.652      153.131        0.048      340.797       15.061      850.099
04/14/2013  16:15:00     -574.488     -114.088      -14.670      229.598      169.327       95.664    52715.076    28671.497     9151.652       21.689        4.527      585.707      104.837        0.032      340.816       15.094      850.103
04/14/2013  16:16:00     -662.742     -122.073      -29.643      311.378      221.479      139.140    96956.467    49052.774    19359.813       31.016        8.268      673.891      154.384        0.052      340.805       15.075      850.102
04/14/2013  16:17:00     -470.739      -58.577       -8.538      281.467      275.774      117.229    79223.671    76051.274    13742.682       19.703        8.451      474.370      127.142        0.072      340.861       15.170      850.040
04/14/2013  16:18:00     -406.168      -43.789      -34.012      230.905      150.501       92.365    53317.201    22650.586     8531.274       12.626        4.225      408.522      102.370        0.063      340.971       15.356      850.059
04/14/2013  16:19:00     -165.251      -88.441       12.157      138.367      150.498       74.398    19145.364    22649.699     5535.065        4.130        2.367      187.430       82.131        0.192      341.255       15.837      850.025
04/14/2013  16:20:00     -381.487     -231.670       -6.160      231.684      172.820       98.778    53677.357    29866.658     9757.049       14.626        4.665      446.322       94.971        0.045      341.082       15.544      850.020
04/14/2013  16:21:00     -496.334     -153.876       -5.991      350.386      241.630      127.035   122770.110    58385.036    16137.955       23.364        9.865      519.639      166.450        0.103      341.121       15.611      849.974
04/14/2013  16:22:00     -411.127     -319.535       -6.037      273.548      285.742      125.323    74828.659    81648.224    15705.756       22.164        8.609      520.700      133.977        0.066      341.025       15.449      849.905
04/14/2013  16:23:00     -205.130        0.903       -2.965      185.655      138.395       81.268    34467.723    19153.088     6604.547        5.115        3.011      205.132       83.959        0.168      341.290       15.896      849.987
04/14/2013  16:24:00     -465.497     -320.772      -35.720      235.893      227.777      102.965    55645.328    51882.365    10601.854       21.947        5.906      565.316      115.843        0.042      340.934       15.296      849.933
04/14/2013  16:25:00     -656.232     -273.408        4.015      360.381      212.904      111.958   129874.535    45328.276    12534.508       34.654        9.387      710.910      140.582        0.039      340.803       15.072      849.961
04/14/2013  16:26:00     -348.536      -36.907        8.119      341.905      204.537      120.687   116898.953    41835.432    14565.338       14.807        8.665      350.485      157.798        0.203      340.833       15.124      849.976
04/14/2013  16:27:00     -338.979     -157.443      -12.596      283.288      169.400      102.511    80252.108    28696.395    10508.561       12.964        5.973      373.758      117.467        0.099      340.806       15.078      849.998
04/14/2013  16:28:00     -327.172     -118.464       -9.736      198.473      148.086       90.855    39391.686    21929.338     8254.705        9.536        3.479      347.958       94.311        0.073      340.890       15.221      850.070
04/14/2013  16:29:00     -526.104      -99.998       -9.947      266.147      199.920       97.440    70834.456    39968.088     9494.603       20.357        6.015      535.523      115.730        0.047      340.841       15.137      850.051
04/14/2013  16:30:00     -682.079     -221.040      -43.650      317.806      262.045      125.461   101000.930    68667.570    15740.434       35.067        9.270      717.001      142.479        0.039      340.592       14.716      850.068
04/14/2013  16:31:00     -248.793      -58.684       26.987      212.126      193.385      111.930    44997.632    37397.728    12528.266        8.048        4.746      255.621      120.014        0.220      340.698       14.896      850.029
04/14/2013  16:32:00     -440.578      -83.521        9.142      227.931      211.804       93.467    51952.627    44861.145     8736.077       15.334        5.277      448.424      103.674        0.053      340.647       14.809      850.065
04/14/2013  16:33:00     -688.593      -89.005      -42.997      225.499      206.597       98.710    50849.967    42682.370     9743.731       29.359        5.164      694.321       92.133        0.018      340.610       14.747      850.065
04/14/2013  16:34:00     -601.479     -234.892       -8.371      320.917      243.397      124.667   102987.730    59242.290    15541.790       29.737        8.889      645.717      141.731        0.048      340.584       14.701      850.061
04/14/2013  16:35:00     -625.221     -103.368      -15.946      390.467      210.876      110.833   152464.451    44468.573    12283.896       30.549       10.461      633.709      148.826        0.055      340.541       14.629      850.064
04/14/2013  16:36:00     -419.892     -169.685       -3.532      290.043      217.731      106.938    84125.207    47406.582    11435.681       17.402        7.148      452.883      123.762        0.075      340.653       14.820      850.064
04/14/2013  16:37:00     -555.434     -290.951      -20.280      288.755      251.961      139.577    83379.278    63484.162    19481.626       27.993        8.317      627.024      143.957        0.053      340.613       14.751      850.036
04/14/2013  16:38:00     -613.478     -177.828      -32.792      410.722      321.985      149.655   168692.915   103674.445    22396.532       35.186       14.738      638.731      191.788        0.090      340.654       14.819      850.075
04/14/2013  16:39:00     -441.116     -239.267      -29.892      296.308      199.812      130.209    87798.471    39924.727    16954.508       19.868        7.234      501.829      136.106        0.074      340.685       14.871      850.080
04/14/2013  16:40:00     -356.231     -129.289       -8.371      320.960      228.861      125.309   103015.165    52377.349    15702.367       15.736        8.555      378.967      139.193        0.135      340.671       14.850      850.111
04/14/2013  16:41:00     -512.341      -57.128       -4.298      280.205      207.539      114.697    78514.791    43072.325    13155.361       20.024        6.737      515.516      127.075        0.061      340.606       14.739      850.137
04/14/2013  16:42:00     -350.353     -152.261       -9.668      219.038      192.154       97.633    47977.824    36922.988     9532.290       12.021        4.722      382.009       91.459        0.057      340.618       14.760      850.189
04/14/2013  16:43:00     -453.395      -84.146       -4.657      314.856      178.944      105.841    99134.202    32021.100    11202.342       17.749        7.118      461.137      145.005        0.099      340.547       14.639      850.198
04/14/2013  16:44:00     -524.288      -47.555      -34.256      194.688      200.463      100.571    37903.382    40185.567    10114.482       18.324        4.410      526.440       94.952        0.033      340.573       14.682      850.203
04/14/2013  16:45:00     -390.514      -87.634      -30.059      281.098      190.069      108.430    79015.905    36126.230    11756.969       14.397        6.345      400.226      109.654        0.075      340.606       14.739      850.225
04/14/2013  16:46:00     -657.704       28.608      -30.058      348.862      257.508      119.076   121704.944    66310.283    14179.181       31.821       10.110      658.326      157.660        0.057      340.455       14.484      850.171
04/14/2013  16:47:00     -631.493     -136.567      -20.949      272.117      215.807      116.360    74047.913    46572.539    13539.714       27.599        6.708      646.091      104.505        0.026      340.468       14.506      850.148
04/14/2013  16:48:00     -410.523     -293.362        9.874      370.372      211.478      146.695   137175.440    44722.739    21519.484       22.902       10.171      504.570      175.527        0.121      340.548       14.640      850.158
04/14/2013  16:49:00     -540.453     -299.732      -15.659      247.702      258.044      112.760    61356.065    66586.721    12714.850       26.139        7.033      618.004      126.059        0.042      340.553       14.650      850.151
04/14/2013  16:50:00     -442.471      -88.673      -30.300      193.647      137.528       94.165    37499.250    18914.075     8867.069       13.491        3.264      451.269       93.994        0.043      340.607       14.739      850.227
04/14/2013  16:51:00     -360.544     -179.262       -8.159      268.536      198.958      125.097    72111.622    39584.383    15649.322       14.475        6.367      402.650      135.436        0.113      340.517       14.589      850.145
04/14/2013  16:52:00     -575.305     -170.517      -31.691      313.765      268.400      146.437    98448.637    72038.445    21443.929       27.646        9.597      600.044      165.724        0.076      340.463       14.496      850.128
04/14/2013  16:53:00     -331.009     -144.032        0.223      220.053      227.387      113.107    48423.219    51704.650    12793.210       12.160        5.646      360.988      118.783        0.108      340.486       14.537      850.128
04/14/2013  16:54:00     -446.157     -198.517       -8.137      271.608      185.091      100.318    73771.020    34258.671    10063.617       17.829        5.905      488.329      126.791        0.067      340.546       14.636      850.130
04/14/2013  16:55:00     -482.001     -204.153      -12.867      236.186      195.289      108.919    55783.672    38137.826    11863.378       18.996        5.289      523.453      116.970        0.050      340.545       14.635      850.108
04/14/2013  16:56:00     -282.560     -216.233       12.426      242.312      193.924      123.100    58715.253    37606.621    15153.590       11.909        5.574      355.805      122.104        0.118      340.567       14.673      850.141
04/14/2013  16:57:00     -441.465     -270.772      -13.840      312.614      261.547      136.059    97727.352    68407.023    18511.952       22.649        9.232      517.889      137.326        0.070      340.490       14.544      850.069
04/14/2013  16:58:00     -495.819     -205.921       -6.149      299.346      274.065      139.086    89608.205    75111.821    19344.855       23.614        9.203      536.880      156.249        0.085      340.504       14.565      850.074
04/14/2013  16:59:00     -614.201     -124.628      -34.018      336.331      224.135      123.384   113118.419    50236.604    15223.489       28.623        8.929      626.717      128.601        0.042      340.479       14.525      850.193
04/14/2013  17:00:00     -492.267     -189.049        1.238      333.317      273.990      130.786   111100.398    75070.661    17105.020       24.064       10.164      527.320      147.526        0.078      340.436       14.453      850.190
04/14/2013  17:01:00     -790.743     -406.060      -28.843      364.036      237.809      155.845   132522.156    56553.202    24287.558       50.214       10.668      888.909      184.491        0.043      340.311       14.240      850.219
04/14/2013  17:02:00     -499.401     -301.016      -24.296      357.962      279.484      145.036   128137.055    78111.086    21035.488       28.390       11.364      583.106      178.885        0.094      340.308       14.236      850.175
04/14/2013  17:03:00     -524.026     -367.282        3.479      369.780      239.065      134.452   136737.212    57151.845    18077.338       31.070       10.598      639.921      164.693        0.066      340.292       14.207      850.111
04/14/2013  17:04:00     -652.384     -367.242       10.031      454.310      290.886      153.763   206397.893    84614.946    23642.957       43.756       15.733      748.646      216.868        0.084      340.202       14.057      850.115
04/14/2013  17:05:00     -517.722     -231.848      -15.193      277.462      227.390      126.973    76985.078    51706.435    16122.117       23.339        7.241      567.265      125.661        0.049      340.196       14.045      850.119
04/14/2013  17:06:00     -417.887     -197.901       14.763      288.853      181.760      116.902    83435.938    33036.620    13666.139       17.205        6.507      462.379      135.874        0.086      340.221       14.089      850.076
04/14/2013  17:07:00     -323.059     -237.757       -7.769      215.523      205.484      109.674    46450.215    42223.527    12028.351       13.081        5.035      401.117      113.134        0.080      340.229       14.101      850.067
04/14/2013  17:08:00     -380.165     -308.968      -18.235      242.652      192.574      119.775    58879.768    37084.823    14346.103       17.530        5.516      489.884      137.787        0.079      340.210       14.070      850.041
04/14/2013  17:09:00     -487.468     -326.465      -19.333      267.722      239.941      123.703    71674.936    57571.686    15302.427       24.454        7.227      586.690      146.741        0.063      340.109       13.899      849.988
04/14/2013  17:10:00     -464.716     -165.879       -6.340      274.209      216.767      115.423    75190.592    46988.028    13322.449       18.949        6.775      493.434      138.840        0.079      340.109       13.899      850.029
04/14/2013  17:11:00     -406.405     -181.349      -25.539      271.986      172.582      106.329    73976.353    29784.655    11305.836       15.687        5.753      445.031      139.406        0.098      340.174       14.009      850.040
04/14/2013  17:12:00     -576.930     -320.849      -31.510      385.754      311.502      133.123   148805.918    97033.680    17721.799       35.013       13.178      660.146      171.774        0.068      340.046       13.794      850.032
04/14/2013  17:13:00     -503.522     -288.340        2.453      320.774      334.834      153.744   102896.186   112114.141    23637.183       28.762       11.932      580.236      164.536        0.080      339.998       13.712      850.037
04/14/2013  17:14:00     -370.692     -249.232      -12.481      310.322      194.426      124.677    96299.963    37801.439    15544.299       17.464        7.482      446.687      126.101        0.080      339.928       13.593      850.048
04/14/2013  17:15:00     -444.098     -326.386      -14.992      318.656      212.262      142.032   101541.574    45054.987    20173.221       23.534        8.338      551.136      174.174        0.100      339.917       13.574      849.998
04/14/2013  17:16:00     -650.941     -214.951      -17.283      425.411      255.785      129.912   180974.458    65426.101    16877.111       36.671       13.164      685.513      149.086        0.047      339.891       13.531      849.996
04/14/2013  17:17:00     -313.135     -191.489        1.358      292.372      218.311      119.006    85481.569    47659.686    14162.312       14.099        7.365      367.044      145.221        0.157      340.002       13.717      850.029
04/14/2013  17:18:00     -703.026     -268.095      -41.009      269.481      227.261      114.273    72620.121    51647.337    13058.337       35.254        6.866      752.410      102.539        0.019      339.907       13.558      849.982
04/14/2013  17:19:00     -455.330     -141.023        2.846      207.573      197.096      112.304    43086.710    38846.818    12612.224       16.087        4.727      476.669      111.563        0.055      339.936       13.607      849.929
04/14/2013  17:20:00     -527.867     -209.748      -50.014      265.668      210.277      113.428    70579.354    44216.505    12866.010       22.638        6.383      568.012      123.077        0.047      339.995       13.708      849.909
04/14/2013  17:21:00     -441.830     -265.197      -26.847      290.383      225.898      119.546    84322.011    51029.904    14291.163       20.793        7.482      515.309      126.648        0.060      339.976       13.674      849.929
04/14/2013  17:22:00     -414.124     -313.592        3.770      285.598      236.359      140.046    81566.108    55865.587    19612.978       21.342        7.852      519.459      147.370        0.080      339.860       13.480      849.883
04/14/2013  17:23:00     -516.745     -336.347      -14.792      278.587      232.229      121.907    77610.820    53930.156    14861.199       26.336        7.320      616.567      125.130        0.041      339.827       13.423      849.944
04/14/2013  17:24:00     -601.807     -266.972      -16.036      337.048      257.370      141.792   113601.087    66239.313    20104.900       31.679        9.997      658.366      146.794        0.050      339.786       13.356      849.911
04/14/2013  17:25:00     -746.506     -287.721      -41.739      348.653      338.059      144.602   121558.762   114283.889    20909.853       44.923       12.838      800.034      166.535        0.043      339.740       13.277      849.979
04/14/2013  17:26:00     -752.788     -156.714      -38.060      314.132      263.350      113.278    98678.697    69353.029    12831.849       38.675        9.043      768.927      127.122        0.027      339.734       13.269      849.983
04/14/2013  17:27:00     -633.195      -91.115      -34.746      300.947      214.182      114.459    90569.077    45873.735    13100.812       27.997        7.477      639.717      135.676        0.045      339.749       13.292      849.983
04/14/2013  17:28:00     -734.477     -111.067      -45.255      300.811      251.395      130.979    90487.484    63199.626    17155.514       36.231        8.542      742.828      133.105        0.032      339.736       13.270      849.989
04/14/2013  17:29:00     -408.398     -150.792        5.754      301.585      258.512      118.832    90953.443    66828.249    14120.942       18.070        8.595      435.347      141.538        0.106      339.834       13.435      850.027
04/14/2013  17:30:00     -598.661     -342.840      -23.997      338.523      202.642      133.069   114598.031    41063.953    17707.460       32.491        8.668      689.880      152.988        0.049      339.758       13.308      850.017
04/14/2013  17:31:00     -348.447     -158.325       17.273      276.118      221.120      136.346    76241.263    48894.232    18590.242       14.523        7.186      382.729      143.697        0.141      339.797       13.375      850.054
04/14/2013  17:32:00     -496.722     -128.437      -33.904      321.486      246.666      122.199   103353.280    60844.165    14932.601       22.172        8.957      513.058      107.166        0.044      339.757       13.306      850.149
04/14/2013  17:33:00     -577.084     -102.029      -13.645      276.957      201.670      113.457    76705.219    40670.778    12872.600       23.691        6.512      586.034      127.067        0.047      339.628       13.088      850.125
04/14/2013  17:34:00     -443.646      -71.475      -11.138      244.711      157.054      104.635    59883.617    24665.834    10948.548       14.876        4.775      449.367      128.770        0.082      339.681       13.179      850.150
04/14/2013  17:35:00     -504.736     -140.051      -38.582      229.787      189.286      105.608    52802.035    35829.136    11153.083       18.781        4.989      523.806      111.603        0.045      339.708       13.224      850.145
04/14/2013  17:36:00     -542.621     -134.798        3.629      278.664      197.459      111.252    77653.792    38989.901    12376.978       22.080        6.451      559.114      121.735        0.047      339.695       13.200      850.093
04/14/2013  17:37:00     -517.416     -226.831      -17.697      389.390      244.487      124.027   151624.313    59774.020    15382.690       27.310       11.339      564.953      148.965        0.070      339.686       13.186      850.071
04/14/2013  17:38:00     -512.554     -123.278       -7.535      372.623      218.327      132.989   138848.147    47666.569    17686.082       24.105       10.210      527.171      165.857        0.099      339.652       13.131      850.081
04/14/2013  17:39:00     -685.517     -145.598      -24.554      316.909      237.229      134.234   100431.401    56277.391    18018.763       33.320        8.736      700.808      141.894        0.041      339.596       13.035      850.090
04/14/2013  17:40:00     -578.493      -68.308      -19.634      284.866      157.840       99.922    81148.762    24913.553     9984.363       22.786        5.802      582.512      116.006        0.040      339.591       13.027      850.096
04/14/2013  17:41:00     -545.976     -113.621      -23.528      186.171      149.594       86.081    34659.804    22378.311     7409.884       18.799        3.222      557.674       83.688        0.023      339.631       13.094      850.104
04/14/2013  17:42:00     -496.965      -99.270      -32.967      281.645      162.535      101.667    79323.782    26417.652    10336.239       18.698        5.804      506.783      122.985        0.059      339.642       13.113      850.065
04/14/2013  17:43:00     -679.439     -151.883      -39.001      298.708      196.918      129.399    89226.537    38776.818    16744.168       31.546        7.237      696.208      151.010        0.047      339.588       13.020      850.058
04/14/2013  17:44:00     -653.747     -178.776      -42.050      317.171      271.380      118.397   100597.474    73647.298    14017.952       32.466        9.413      677.751      135.971        0.040      339.625       13.084      850.083
04/14/2013  17:45:00     -722.178     -279.519      -24.688      246.014      221.499      118.043    60522.738    49061.879    13934.260       36.188        6.176      774.385      131.307        0.029      339.545       12.950      850.066
04/14/2013  17:46:00     -430.795     -179.653       -6.876      229.802      189.776      105.369    52808.925    36014.846    11102.718       15.890        4.996      466.754      116.058        0.062      339.601       13.042      850.080
04/14/2013  17:47:00     -315.738     -161.299       10.314      251.020      199.987      120.071    63010.842    39994.661    14416.961       12.160        5.871      354.553      130.147        0.135      339.637       13.103      850.053
04/14/2013  17:48:00     -279.903      -84.692       -9.624      179.950      161.885       83.213    32382.096    26206.753     6924.419        7.555        3.276      292.436       94.708        0.105      339.695       13.204      850.141
04/14/2013  17:49:00     -552.588     -191.100      -13.736      313.311      309.710      116.890    98163.522    95920.550    13663.242       27.487       10.387      584.699      139.878        0.057      339.621       13.077      850.070
04/14/2013  17:50:00     -486.681     -227.902        1.972      299.189      185.275      115.590    89513.839    34326.674    13361.119       21.298        6.860      537.399      137.818        0.066      339.631       13.094      850.033
04/14/2013  17:51:00     -348.848     -112.254      -10.421      214.225      198.912       85.334    45892.519    39565.815     7281.836       11.356        4.637      366.464       78.682        0.046      339.641       13.110      850.046
04/14/2013  17:52:00     -572.138     -188.831      -42.093      285.648      201.615      139.518    81594.630    40648.436    19465.219       25.322        7.085      602.495      129.378        0.046      339.609       13.057      850.023
04/14/2013  17:53:00     -617.381     -175.459      -25.810      206.874      224.767      105.940    42797.019    50520.394    11223.313       25.856        5.227      641.830      107.106        0.028      339.583       13.013      850.030
04/14/2013  17:54:00     -397.845     -160.961       -3.820      199.510      201.186       96.409    39804.158    40475.637     9294.644       13.687        4.479      429.172      103.469        0.058      339.637       13.104      850.059
04/14/2013  17:55:00     -430.784      -79.242       -8.291      228.866      171.438       87.313    52379.570    29391.037     7623.561       14.064        4.470      438.011       99.751        0.052      339.649       13.123      850.070
04/14/2013  17:56:00     -627.476     -183.340      -14.397      232.913      214.747      114.313    54248.607    46116.233    13067.527       27.047        5.672      653.712      123.502        0.036      339.557       12.968      850.039
04/14/2013  17:57:00     -446.886      -38.355      -28.134      198.027      161.814       92.240    39214.651    26183.917     8508.289       13.793        3.695      448.529       89.225        0.040      339.602       13.045      850.043
04/14/2013  17:58:00     -628.993     -198.556      -20.362      308.161      190.915      102.182    94963.425    36448.347    10441.083       28.864        7.093      659.588       98.424        0.022      339.529       12.921      850.070
04/14/2013  17:59:00     -502.653     -113.714       -7.115      300.405      190.350       97.160    90243.119    36233.113     9439.991       20.076        6.796      515.355      116.262        0.051      339.531       12.924      850.061
04/14/2013  18:00:00     -583.916      -41.940      -24.158      254.231      157.818       97.665    64633.182    24906.662     9538.525       22.117        4.954      585.420      107.189        0.034      339.507       12.885      850.098
04/14/2013  18:01:00     -489.946      -89.516       11.116      280.024      178.524      101.547    78413.650    31870.827    10311.824       18.437        6.030      498.056      143.338        0.083      339.529       12.922      850.090
04/14/2013  18:02:00     -461.804      -55.882       -0.193      326.620      197.121      110.366   106680.811    38856.849    12180.746       18.703        7.886      465.172      145.968        0.098      339.510       12.888      850.078
04/14/2013  18:03:00     -800.550     -248.406      -38.701      350.490      308.933      125.500   122843.582    95439.797    15750.245       46.902       11.702      838.204      151.256        0.033      339.442       12.776      850.041
04/14/2013  18:04:00     -583.911      -37.522      -38.185      374.630      209.181      112.036   140347.286    43756.836    12552.018       27.020        9.833      585.115      155.392        0.071      339.449       12.788      850.061
04/14/2013  18:05:00     -712.837      -67.037      -39.465      299.240      235.666      120.364    89544.353    55538.409    14487.537       33.685        7.979      715.982      136.925        0.037      339.429       12.753      850.038
04/14/2013  18:06:00     -717.455     -115.530      -35.626      258.488      232.857      111.851    66815.835    54222.402    12510.609       33.143        6.677      726.697       90.357        0.015      339.435       12.763      850.029
04/14/2013  18:07:00     -379.650      -82.279      -12.713      184.896      164.078       98.364    34186.606    26921.543     9675.472       11.091        3.539      388.464       97.264        0.063      339.505       12.879      850.085
04/14/2013  18:08:00     -607.125      -71.220      -26.656      294.350      222.628      122.205    86641.839    49563.326    14934.097       26.274        7.557      611.288      134.142        0.048      339.452       12.792      850.117
04/14/2013  18:09:00     -601.521     -118.752      -27.019      284.330      238.196      125.482    80843.772    56737.239    15745.822       26.497        7.666      613.131      130.880        0.046      339.417       12.731      850.107
04/14/2013  18:10:00     -721.782     -314.411      -47.605      250.939      210.582      127.397    62970.342    44344.732    16230.010       37.280        6.177      787.289      123.114        0.024      339.359       12.634      850.060
04/14/2013  18:11:00     -706.342      -45.835      -47.478      354.763      201.070      123.659   125856.777    40429.004    15291.613       34.240        9.079      707.828      162.277        0.053      339.377       12.665      850.026
04/14/2013  18:12:00     -222.931      -83.026       24.582      202.439      125.422       84.937    40981.719    15730.732     7214.310        6.055        3.196      237.890       89.477        0.141      339.494       12.863      850.039
04/14/2013  18:13:00     -390.673     -111.586      -26.184      217.930      149.502       76.357    47493.700    22350.895     5830.405       12.071        3.784      406.296       79.506        0.038      339.512       12.893      850.080
04/14/2013  18:14:00     -326.822      -39.633       -4.723      162.579      166.569       76.787    26431.976    27745.351     5896.248        8.423        3.004      329.216       77.369        0.055      339.519       12.904      850.132
04/14/2013  18:15:00     -427.643     -139.543      -12.052      280.432      222.371      103.153    78642.211    49448.782    10640.634       17.059        6.937      449.834      111.940        0.062      339.518       12.903      850.113
04/14/2013  18:16:00     -579.263     -100.215      -38.382      226.553      221.051      112.347    51326.240    48863.382    12621.846       22.992        5.641      587.868       98.486        0.028      339.475       12.832      850.122
04/14/2013  18:17:00     -335.177     -154.537       -8.353      242.005      182.671      104.461    58566.452    33368.665    10912.199       11.955        5.142      369.087      129.439        0.123      339.510       12.890      850.129
04/14/2013  18:18:00     -430.580      -46.213       -1.237      256.578      187.974       92.668    65832.165    35334.108     8587.437       14.863        5.488      433.053      100.404        0.054      339.490       12.855      850.137
04/14/2013  18:19:00     -532.857     -207.823      -14.396      283.392      204.198      115.218    80311.000    41696.831    13275.249       23.129        6.764      571.950      129.212        0.051      339.436       12.764      850.145
04/14/2013  18:20:00     -225.116     -166.208       20.712      196.523      185.087      108.216    38621.272    34257.287    11710.689        8.165        4.229      279.825      120.765        0.186      339.471       12.825      850.164
04/14/2013  18:21:00     -312.769     -206.078       -1.889      221.093      194.164      112.297    48882.259    37699.495    12610.642       11.973        4.960      374.557      108.251        0.084      339.465       12.812      850.158
04/14/2013  18:22:00     -421.158     -214.838       -2.129      236.481      221.297      118.986    55923.311    48972.566    14157.685       17.127        5.953      472.789      132.662        0.079      339.409       12.720      850.192
04/14/2013  18:23:00     -522.765     -156.107      -16.637      380.502      244.649      143.595   144781.998    59853.000    20619.630       26.155       11.263      545.576      196.790        0.130      339.398       12.700      850.174
04/14/2013  18:24:00     -491.315     -128.568      -11.901      277.258      194.636       99.646    76872.028    37883.037     9929.320       19.135        6.234      507.858      124.312        0.060      339.368       12.651      850.200
04/14/2013  18:25:00     -301.899     -126.188       23.134      201.698      221.785      100.444    40682.054    49188.380    10089.072       10.376        4.998      327.210      110.502        0.114      339.388       12.683      850.243
04/14/2013  18:26:00     -486.947      -39.834      -35.858      275.952      229.563      109.947    76149.463    52699.373    12088.375       19.044        7.047      488.574      117.778        0.058      339.353       12.623      850.279
04/14/2013  18:27:00     -467.977     -142.501      -20.039      228.687      204.915      105.620    52297.692    41989.968    11155.504       17.256        5.272      489.192      104.041        0.045      339.364       12.642      850.297
04/14/2013  18:28:00     -428.067     -257.588        0.809      309.178      218.108      133.402    95591.262    47571.256    17796.188       20.525        8.048      499.593      149.167        0.089      339.352       12.623      850.228
04/14/2013  18:29:00     -459.611     -288.261        5.873      319.816      260.769      125.378   102282.300    68000.461    15719.613       24.016        9.300      542.528      148.032        0.074      339.269       12.483      850.163
04/14/2013  18:30:00     -435.182     -298.685       -7.200      285.094      263.370      137.909    81278.667    69363.705    19018.953       22.413        8.483      527.822      157.963        0.090      339.269       12.483      850.174
04/14/2013  18:31:00     -622.220     -234.794      -38.823      253.498      200.579      118.414    64261.145    40231.977    14021.942       28.113        5.926      665.045      124.033        0.035      339.211       12.386      850.236
04/14/2013  18:32:00     -377.033     -102.240       13.800      219.754      217.622      116.671    48291.831    47359.225    13612.041       13.101        5.463      390.649      126.045        0.104      339.261       12.469      850.219
04/14/2013  18:33:00     -451.414     -240.284       -4.238      281.198      234.525      123.547    79072.583    55001.801    15263.772       20.541        7.467      511.381      130.461        0.065      339.215       12.393      850.228
04/14/2013  18:34:00     -265.702     -224.249       20.077      251.136      228.691      115.378    63069.141    52299.758    13312.153       12.496        6.434      347.685      128.973        0.138      339.193       12.356      850.232
04/14/2013  18:35:00     -571.332     -266.924       -0.070      392.919      262.787      160.482   154385.552    69057.021    25754.395       32.339       12.460      630.610      188.102        0.089      339.105       12.207      850.250
04/14/2013  18:36:00     -641.757     -418.049      -20.984      293.643      298.867      120.974    86225.984    89321.482    14634.776       38.859        9.509      765.909      123.590        0.026      339.029       12.081      850.202
04/14/2013  18:37:00     -514.450     -218.366      -24.519      255.589      187.998      106.266    65325.640    35343.274    11292.497       21.243        5.598      558.876      122.962        0.048      339.094       12.190      850.259
04/14/2013  18:38:00     -505.551     -228.086      -16.256      285.851      225.570      124.480    81710.593    50881.889    15495.173       22.795        7.404      554.621      150.028        0.073      339.109       12.214      850.291
04/14/2013  18:39:00     -458.042     -132.646      -22.981      167.356      217.738       78.898    28008.038    47409.662     6224.862       15.477        4.082      476.862       81.538        0.029      339.143       12.272      850.277
04/14/2013  18:40:00     -530.836     -245.211       -8.099      294.771      211.897      109.320    86889.983    44900.530    11950.793       24.284        7.187      584.735      126.541        0.047      339.107       12.213      850.342
04/14/2013  18:41:00     -527.460     -370.179      -26.582      352.634      266.261      149.163   124350.454    70894.705    22249.721       31.669       10.875      644.396      164.898        0.065      339.060       12.131      850.282
04/14/2013  18:42:00     -350.717     -266.785       15.833      270.075      218.715      138.609    72940.652    47836.452    19212.366       16.718        6.999      440.655      140.896        0.102      339.070       12.149      850.245
04/14/2013  18:43:00     -368.869     -132.972       11.586      209.401      151.634       85.935    43848.759    22992.753     7384.772       11.404        3.711      392.104       86.896        0.049      339.103       12.203      850.316
04/14/2013  18:44:00     -212.695     -163.874       11.401      254.175      167.454      110.729    64604.709    28040.980    12260.816        8.855        5.245      268.503      119.849        0.199      339.122       12.236      850.336
04/14/2013  18:45:00     -400.244     -236.605        6.293      305.872      221.216      116.707    93557.580    48936.685    13620.493       18.614        7.806      464.949      139.197        0.090      339.095       12.191      850.345
04/14/2013  18:46:00     -611.785     -252.157      -39.076      317.210      300.704      125.126   100622.089    90422.608    15656.614       32.301       10.335      661.713      147.889        0.050      339.015       12.057      850.343
04/14/2013  18:47:00     -653.771     -263.925      -37.017      304.979      260.101      119.588    93012.415    67652.733    14301.328       33.668        8.748      705.034      125.994        0.032      338.963       11.969      850.361
04/14/2013  18:48:00     -697.951     -139.357      -59.571      277.389      256.282      117.135    76944.705    65680.566    13720.576       33.320        7.817      711.727      130.200        0.033      338.948       11.944      850.379
04/14/2013  18:49:00     -400.697     -159.812       -8.237      302.003      280.672      125.643    91205.531    78777.031    15786.263       18.594        9.288      431.391      149.339        0.120      338.971       11.983      850.363
04/14/2013  18:50:00     -547.523     -263.951        2.797      315.847      256.004      129.850    99759.082    65538.101    16860.968       27.578        9.108      607.825      156.794        0.067      338.917       11.892      850.358
04/14/2013  18:51:00     -697.550     -413.174       -5.083      350.978      318.389      143.018   123185.894   101371.456    20454.106       45.112       12.251      810.734      182.781        0.051      338.853       11.783      850.328
04/14/2013  18:52:00     -551.452     -260.622      -20.676      279.130      246.838      125.198    77913.468    60928.913    15674.584       26.346        7.726      609.937      127.454        0.044      338.869       11.811      850.387
04/14/2013  18:53:00     -590.174     -402.218      -20.234      246.569      214.213      126.551    60796.227    45887.205    16015.239       31.658        6.135      714.202      106.974        0.022      338.807       11.706      850.377
04/14/2013  18:54:00     -384.533     -245.075       14.021      252.805      270.712      132.533    63910.151    73284.775    17564.924       18.142        7.738      455.991      140.263        0.095      338.900       11.862      850.430
04/14/2013  18:55:00     -307.470     -107.113      -11.061      184.884      153.790       81.517    34182.092    23651.365     6644.958        8.530        3.224      325.593       89.522        0.076      338.935       11.921      850.461
04/14/2013  18:56:00     -533.467      -66.195      -17.080      280.082      196.626       95.137    78445.662    38661.944     9050.985       20.769        6.308      537.558      109.798        0.042      338.873       11.818      850.429
04/14/2013  18:57:00     -528.168     -231.979      -25.568      314.569      218.806      122.668    98953.834    47875.876    15047.425       24.763        8.094      576.867      144.916        0.063      338.839       11.760      850.428
04/14/2013  18:58:00     -524.872     -158.363      -39.763      358.660      193.417      117.116   128637.132    37410.202    13716.049       24.093        8.988      548.243      110.276        0.040      338.837       11.756      850.434
04/14/2013  18:59:00     -559.702     -199.791        6.158      313.989      224.328      131.606    98589.382    50323.196    17320.178       25.970        8.312      594.291      143.632        0.058      338.735       11.586      850.386
04/14/2013  19:00:00     -451.623      -64.223      -15.236      274.810      264.522      129.099    75520.644    69972.052    16666.506       18.521        8.108      456.166      129.077        0.080      338.704       11.534      850.366
04/14/2013  19:01:00     -600.242      -39.444      -30.902      245.145      185.540      108.965    60096.259    34425.199    11873.362       23.458        5.320      601.537      122.442        0.041      338.688       11.506      850.425
04/14/2013  19:02:00     -470.790     -156.932      -11.602      228.735      188.244       90.408    52319.839    35435.909     8173.589       17.115        4.796      496.257       97.465        0.039      338.695       11.518      850.414
04/14/2013  19:03:00     -481.478     -247.117      -19.394      226.528      194.037       98.510    51315.051    37650.353     9704.176       19.595        4.933      541.191      110.731        0.042      338.688       11.505      850.436
04/14/2013  19:04:00     -461.986     -103.506       -3.999      274.544      222.786      112.702    75374.308    49633.823    12701.638       18.091        6.885      473.439      132.514        0.078      338.671       11.478      850.394
04/14/2013  19:05:00     -438.006     -265.097        7.393      335.509      236.414      127.111   112566.577    55891.650    16157.112       22.337        9.231      511.982      161.116        0.099      338.663       11.463      850.393
04/14/2013  19:06:00     -368.855     -250.010       -4.973      264.881      212.422      124.520    70161.814    45123.077    15505.122       16.467        6.540      445.600      145.113        0.106      338.665       11.469      850.391
04/14/2013  19:07:00     -427.735     -133.810        3.832      303.295      182.233      107.709    91987.579    33208.838    11601.249       16.881        6.840      448.176      131.970        0.087      338.650       11.442      850.358
04/14/2013  19:08:00     -368.542     -264.823        1.165      303.894      192.954      125.896    92351.563    37231.314    15849.826       17.567        7.272      453.822      119.507        0.069      338.631       11.410      850.350
04/14/2013  19:09:00     -377.126     -301.982       11.973      255.048      198.101      123.988    65049.324    39243.926    15372.941       17.659        5.983      483.133      140.198        0.084      338.612       11.379      850.390
04/14/2013  19:10:00     -292.814     -191.628        2.903      261.170      200.904      116.770    68209.907    40362.334    13635.161       12.232        6.110      349.945      131.883        0.142      338.622       11.395      850.427
04/14/2013  19:11:00     -289.448      -78.119       -4.791      215.757      182.681       94.964    46551.116    33372.431     9018.136        8.941        4.447      299.804       94.495        0.099      338.618       11.389      850.454
04/14/2013  19:12:00     -409.110      -19.285      -24.043      308.947      174.993      102.238    95448.319    30622.450    10452.633       15.240        6.826      409.564      104.886        0.066      338.603       11.363      850.436
04/14/2013  19:13:00     -644.882     -197.065      -30.532      208.021      180.298       90.185    43272.688    32507.259     8133.244       26.976        4.196      674.320       89.434        0.018      338.532       11.245      850.421
04/14/2013  19:14:00     -525.841     -172.154       -8.279      275.444      295.963      128.429    75869.351    87594.045    16493.999       24.306        8.998      553.304      155.983        0.079      338.500       11.191      850.393
04/14/2013  19:15:00     -454.757     -149.056       -9.896      280.304      205.869      108.940    78570.272    42382.163    11867.925       18.095        6.641      478.562      135.221        0.080      338.507       11.202      850.407
04/14/2013  19:16:00     -405.829     -227.427      -18.437      214.092      193.286       95.671    45835.224    37359.335     9152.913       15.454        4.617      465.210      113.595        0.060      338.522       11.226      850.460
04/14/2013  19:17:00     -505.907     -182.865       -0.210      281.602      301.808      123.668    79299.845    91088.217    15293.845       23.750        9.284      537.942      135.944        0.064      338.493       11.178      850.457
04/14/2013  19:18:00     -464.577     -175.884       14.837      352.565      246.776      137.905   124301.954    60898.614    19017.789       22.557       10.211      496.757      169.134        0.116      338.452       11.111      850.479
04/14/2013  19:19:00     -496.262      -78.570      -35.309      286.870      152.542       89.874    82294.290    23269.036     8077.407       18.365        5.682      502.444      120.685        0.058      338.448       11.104      850.505
04/14/2013  19:20:00     -504.007     -281.761        7.218      271.635      269.509      113.219    73785.803    72634.880    12818.624       24.633        7.962      577.419      123.147        0.045      338.401       11.023      850.505
04/14/2013  19:21:00     -547.388     -105.983      -27.549      239.533      286.930      100.938    57375.897    82328.921    10188.445       23.073        7.495      557.554      107.099        0.037      338.420       11.056      850.512
04/14/2013  19:22:00     -248.020      -40.563       18.602      230.082      126.197       87.600    52937.653    15925.710     7673.789        7.001        3.827      251.315       95.976        0.146      338.463       11.128      850.550
04/14/2013  19:23:00     -360.531      -13.276      -25.119      218.048      154.913       86.560    47545.141    23998.149     7492.572       10.490        3.952      360.775      100.911        0.078      338.453       11.111      850.581
04/14/2013  19:24:00     -585.742     -123.083      -32.276      267.109      187.359      102.186    71347.019    35103.538    10441.888       23.807        5.845      598.534      118.950        0.039      338.348       10.935      850.549
04/14/2013  19:25:00     -544.155      -88.117      -13.353      233.759      206.843       95.763    54643.191    42783.938     9170.470       20.530        5.330      551.244       94.251        0.029      338.302       10.858      850.515
04/14/2013  19:26:00     -359.682     -108.297       -7.704      263.383      165.973      111.668    69370.715    27547.044    12469.719       12.525        5.469      375.632      139.931        0.139      338.359       10.954      850.533
04/14/2013  19:27:00     -493.328     -192.886      -13.804      308.988      207.376      116.330    95473.863    43004.711    13532.598       21.636        7.601      529.695      133.397        0.063      338.333       10.910      850.547
04/14/2013  19:28:00     -454.306     -247.390      -15.128      282.870      199.700      104.017    80015.240    39879.892    10819.570       19.925        6.536      517.296      136.437        0.070      338.331       10.907      850.564
04/14/2013  19:29:00     -455.060     -229.660        7.723      281.296      197.246      104.525    79127.164    38905.906    10925.431       19.440        6.448      509.729      109.557        0.046      338.302       10.858      850.552
04/14/2013  19:30:00     -359.567     -211.745      -11.576      273.490      273.852      113.219    74796.536    74995.186    12818.496       16.841        8.131      417.282      152.200        0.133      338.307       10.867      850.595
04/14/2013  19:31:00     -453.883     -182.677      -12.040      259.027      193.891      110.888    67094.898    37593.727    12296.055       17.824        5.849      489.266      126.100        0.066      338.279       10.821      850.601
04/14/2013  19:32:00     -504.707     -238.094       -7.866      295.534      232.428      113.430    87340.608    54022.691    12866.399       23.283        7.711      558.049      130.502        0.055      338.239       10.753      850.610
04/14/2013  19:33:00     -455.628     -159.964       -7.815      378.858      225.158      125.324   143533.226    50696.285    15706.152       22.156       10.497      482.892      170.572        0.125      338.236       10.748      850.575
04/14/2013  19:34:00     -540.027     -131.193      -13.082      290.280      213.214      104.876    84262.575    45460.334    10998.917       22.484        7.036      555.734      129.582        0.054      338.214       10.710      850.618
04/14/2013  19:35:00     -662.162     -215.454      -31.406      298.280      208.158      124.655    88971.233    43329.724    15538.952       31.683        7.392      696.333      145.691        0.044      338.197       10.680      850.626
04/14/2013  19:36:00     -505.128     -265.450      -10.558      280.962      213.349      115.611    78939.711    45517.693    13365.919       23.175        6.891      570.629      132.810        0.054      338.189       10.668      850.619
04/14/2013  19:37:00     -343.066     -143.847        4.239      234.228      179.284       99.810    54862.890    32142.921     9961.991       11.767        4.848      372.003      113.088        0.092      338.197       10.680      850.616
04/14/2013  19:38:00     -444.169     -233.321      -12.846      292.511      222.961      105.268    85562.574    49711.473    11081.349       19.910        7.318      501.721      127.993        0.065      338.159       10.618      850.602
04/14/2013  19:39:00     -552.874     -169.515      -16.423      296.928      218.562      107.600    88166.266    47769.438    11577.863       24.107        7.376      578.278      107.091        0.034      338.119       10.549      850.582
04/14/2013  19:40:00     -538.431     -322.633      -17.489      255.467      227.125      122.795    65263.171    51585.869    15078.642       26.309        6.596      627.694      144.639        0.053      338.119       10.551      850.576
04/14/2013  19:41:00     -469.960     -147.868        0.129      333.334      196.719      126.166   111111.314    38698.272    15917.777       20.420        8.286      492.673      162.013        0.108      338.121       10.555      850.607
04/14/2013  19:42:00     -374.876     -131.351       -3.691      199.568      186.137       92.993    39827.360    34646.826     8647.760       12.045        4.156      397.222       98.300        0.061      338.117       10.547      850.616
04/14/2013  19:43:00     -444.895     -201.236       -1.896      210.037      252.869      111.601    44115.613    63942.782    12454.737       17.945        6.026      488.290      120.517        0.061      338.081       10.487      850.616
04/14/2013  19:44:00     -477.897     -104.864      -17.004      218.654      186.227      101.221    47809.416    34680.493    10245.699       16.619        4.637      489.267      103.875        0.045      338.079       10.485      850.629
04/14/2013  19:45:00     -393.140      -22.722      -18.719      186.522      152.211       84.591    34790.604    23168.068     7155.621       11.026        3.256      393.796       81.200        0.043      338.087       10.497      850.630
04/14/2013  19:46:00     -277.666     -132.952       12.844      268.547      189.549      101.635    72117.336    35928.963    10329.671       10.664        5.919      307.855      131.264        0.182      338.087       10.498      850.621
04/14/2013  19:47:00     -273.371     -118.033      -10.048      209.034      163.388       96.392    43695.030    26695.799     9291.346        8.421        3.984      297.764       97.961        0.108      338.087       10.498      850.673
04/14/2013  19:48:00     -471.937     -196.910      -10.200      242.691      197.700      122.582    58898.738    39085.175    15026.444       18.729        5.651      511.369      138.938        0.074      338.052       10.440      850.672
04/14/2013  19:49:00     -522.790     -137.908      -12.576      287.200      215.982      108.676    82483.938    46648.322    11810.504       21.669        7.047      540.674      133.915        0.061      338.029       10.400      850.651
04/14/2013  19:50:00     -222.462     -108.070        3.821      138.178      133.320       76.053    19093.243    17774.328     5784.003        5.191        2.133      247.322       75.023        0.092      338.103       10.523      850.667
04/14/2013  19:51:00     -190.265      -49.783       13.613      162.644      113.580       68.522    26452.926    12900.418     4695.297        4.145        2.202      196.670       70.436        0.128      338.105       10.530      850.681
04/14/2013  19:52:00     -315.520     -190.488       -8.938      193.466      163.365       92.302    37428.996    26688.033     8519.669       10.427        3.632      368.563       88.710        0.058      338.059       10.450      850.675
04/14/2013  19:53:00     -350.715      -60.072       -8.086      208.556      164.440       86.912    43495.711    27040.434     7553.770       10.237        3.904      355.822       99.172        0.078      338.046       10.428      850.647
04/14/2013  19:54:00     -522.346     -175.883      -32.530      247.809      194.849      104.041    61409.365    37966.149    10824.548       20.750        5.510      551.162      101.739        0.034      338.016       10.379      850.608
04/14/2013  19:55:00     -540.206     -193.028      -25.447      255.710      172.298      101.382    65387.538    29686.447    10278.324       21.752        5.268      573.656      102.654        0.032      338.012       10.371      850.644
04/14/2013  19:56:00     -398.280     -241.101      -34.095      260.404      197.721      104.208    67810.404    39093.689    10859.279       16.782        5.888      465.571      118.452        0.065      338.046       10.428      850.617
04/14/2013  19:57:00     -511.930     -225.361      -37.294      265.885      214.695      109.181    70694.719    46093.813    11920.530       22.146        6.435      559.339      122.126        0.048      338.016       10.379      850.638
04/14/2013  19:58:00     -508.134     -119.567      -47.015      229.980      205.474       89.080    52890.833    42219.665     7935.287       18.886        5.152      522.012       89.481        0.029      338.029       10.401      850.646
04/14/2013  19:59:00     -207.643      -54.638       15.587      205.419      169.024       84.842    42197.158    28569.103     7198.092        6.214        3.898      214.711      101.045        0.221      338.051       10.438      850.644
04/14/2013  20:00:00     -317.439      -73.950       11.800      340.971      168.560      125.777   116261.237    28412.396    15819.832       13.341        8.025      325.939      159.945        0.241      338.035       10.411      850.618
04/14/2013  20:01:00     -643.925      -85.911      -23.981      261.540      247.980      105.303    68403.051    61494.303    11088.676       28.177        7.049      649.631      112.253        0.030      337.985       10.326      850.586
04/14/2013  20:02:00     -403.583     -122.696       -4.642      156.086      193.748       80.046    24362.904    37538.256     6407.342       12.312        3.415      421.822       66.069        0.025      338.016       10.378      850.593
04/14/2013  20:03:00     -352.471     -119.383       15.095      223.462      188.936      105.391    49935.421    35696.728    11107.241       11.771        4.837      372.140      114.722        0.095      338.012       10.371      850.574
04/14/2013  20:04:00     -511.014     -239.603       -9.328      239.653      245.840      120.822    57433.506    60437.221    14597.949       22.553        6.623      564.398      112.061        0.039      338.018       10.381      850.552
04/14/2013  20:05:00     -399.674     -115.691       10.426      266.457      197.234       99.892    70999.544    38901.098     9978.395       14.654        5.994      416.081      108.839        0.068      338.016       10.380      850.566
04/14/2013  20:06:00     -343.780     -159.539        4.106      233.263      220.311      133.589    54411.440    48536.913    17846.004       13.220        6.040      378.996      120.959        0.102      338.039       10.416      850.556
04/14/2013  20:07:00     -480.063     -106.422       -5.918      341.184      270.929      149.148   116406.683    73402.601    22245.172       22.690       10.603      491.718      141.484        0.083      338.010       10.368      850.526
04/14/2013  20:08:00     -250.417     -136.060       12.539      228.809      199.098      115.881    52353.665    39639.829    13428.326        9.338        5.271      284.993      119.419        0.176      338.025       10.394      850.516
04/14/2013  20:09:00     -480.274     -223.261       -9.910      277.114      202.730      117.851    76792.142    41099.463    13888.765       20.617        6.589      529.631      148.625        0.079      338.016       10.379      850.553
04/14/2013  20:10:00     -506.027     -221.169      -26.062      249.193      196.488      129.052    62096.981    38607.626    16654.469       21.149        5.868      552.249      128.096        0.054      338.009       10.367      850.553
04/14/2013  20:11:00     -338.303     -132.997        1.268      212.016      170.499       90.635    44950.630    29069.939     8214.669       10.717        4.112      363.507       81.902        0.051      338.027       10.397      850.546
04/14/2013  20:12:00     -404.252     -216.386      -16.631      267.768      182.745      107.296    71699.700    33395.718    11512.384       16.354        5.830      458.522      132.168        0.083      338.005       10.360      850.544
04/14/2013  20:13:00     -386.500     -177.237       -2.041      186.807      138.440       83.231    34896.856    19165.571     6927.316       12.088        3.049      425.200       91.517        0.046      338.007       10.363      850.528
04/14/2013  20:14:00     -310.420      -92.750       -1.408      194.382      169.133       90.750    37784.235    28605.861     8235.596        8.978        3.731      323.980      102.233        0.100      338.004       10.358      850.524
04/14/2013  20:15:00     -415.721      -84.635      -23.550      251.864      176.990       94.473    63435.671    31325.433     8925.145       14.210        5.184      424.249      118.865        0.078      337.978       10.315      850.545
04/14/2013  20:16:00     -443.967     -132.457        1.039      304.529      148.988       83.341    92737.998    22197.301     6945.712       16.825        6.094      463.306      101.506        0.048      337.998       10.348      850.584
04/14/2013  20:17:00     -502.404      -50.222      -19.770      189.390      155.813      101.874    35868.760    24277.789    10378.263       16.291        3.526      504.908       99.048        0.038      337.989       10.333      850.582
04/14/2013  20:18:00     -438.981     -110.004      -35.476      214.689      142.899      100.280    46091.299    20420.096    10056.134       14.130        3.828      452.554      120.294        0.071      338.008       10.364      850.610
04/14/2013  20:19:00     -362.599     -169.313       -2.761      230.965      193.378       95.786    53344.721    37395.123     9174.978       13.002        4.996      400.182      113.128        0.080      338.019       10.382      850.584
04/14/2013  20:20:00     -333.218      -76.546        9.967      240.147      180.624       96.281    57670.552    32624.991     9270.061       10.826        4.978      341.897      117.001        0.117      338.028       10.398      850.570
04/14/2013  20:21:00     -584.561     -220.756      -20.902      340.218      201.363      117.665   115748.610    40547.128    13845.134       28.048        8.507      624.856      131.239        0.044      337.992       10.338      850.552
04/14/2013  20:22:00     -460.126      -31.541      -25.722      194.665      151.887       87.122    37894.601    23069.677     7590.183       14.095        3.428      461.206       80.428        0.030      337.982       10.321      850.597
04/14/2013  20:23:00     -393.118     -139.424       -3.218      235.763      191.465      109.531    55584.206    36658.779    11997.087       13.910        5.212      417.110      119.512        0.082      338.000       10.352      850.590
04/14/2013  20:24:00     -556.372      -74.595       -4.065      250.418      200.490      104.686    62708.946    40196.286    10959.085       21.448        5.693      561.351      117.565        0.044      337.986       10.328      850.561
04/14/2013  20:25:00     -405.204     -158.579      -16.660      262.643      213.187      103.432    68981.485    45448.756    10698.231       15.735        6.256      435.129      127.656        0.086      337.992       10.338      850.542
04/14/2013  20:26:00     -413.546     -202.410       -1.231      298.152      156.299      105.553    88894.826    24429.317    11141.507       16.821        6.223      460.424      124.591        0.073      338.001       10.354      850.580
04/14/2013  20:27:00     -242.337     -118.647       -1.626      183.411      150.477       79.975    33639.522    22643.223     6396.019        6.773        3.134      269.823       95.327        0.125      338.017       10.380      850.569
04/14/2013  20:28:00     -328.839      -87.906        2.977      208.256      138.133       68.460    43370.362    19080.776     4686.803        9.149        3.357      340.386       79.485        0.055      337.991       10.336      850.587
04/14/2013  20:29:00     -379.216      -81.406      -18.663      170.111      125.922       77.428    28937.646    15856.366     5995.055       10.078        2.539      387.856       66.836        0.030      337.997       10.347      850.612
04/14/2013  20:30:00     -370.042      -67.445      -15.090      262.594      161.857       97.520    68955.692    26197.680     9510.061       12.317        5.233      376.138      110.096        0.086      338.011       10.370      850.585
04/14/2013  20:31:00     -470.778     -166.136      -10.129      388.875      201.006      133.293   151223.377    40403.346    17766.946       22.933       10.470      499.233      178.589        0.128      338.019       10.383      850.573
04/14/2013  20:32:00     -472.710     -101.916      -26.183      232.900      213.828       92.474    54242.320    45722.491     8551.408       17.150        5.426      483.572      102.151        0.045      338.022       10.388      850.570
04/14/2013  20:33:00     -680.880      -48.312      -44.929      242.979      182.411      104.429    59038.957    33273.601    10905.444       28.557        5.161      682.591      120.731        0.031      337.980       10.318      850.550
04/14/2013  20:34:00     -319.675     -122.832       21.840      248.296      190.117       94.037    61651.101    36144.525     8842.970       11.218        5.332      342.461      125.957        0.135      338.018       10.382      850.615
04/14/2013  20:35:00     -354.069      -76.494      -21.397      166.219      180.762       96.177    27628.903    32675.074     9250.033       10.060        3.478      362.238       86.946        0.058      338.020       10.384      850.618
04/14/2013  20:36:00     -437.644      -16.879      -27.784      198.367      160.954       91.925    39349.435    25906.179     8450.253       13.314        3.685      437.969       85.220        0.038      338.004       10.358      850.607
04/14/2013  20:37:00     -253.534      -31.511        6.262      205.568      147.215       83.828    42258.121    21672.252     7027.184        6.812        3.548      255.485       92.853        0.132      338.022       10.389      850.607
04/14/2013  20:38:00     -298.586     -123.674       13.408      262.161      182.672      105.408    68728.353    33369.137    11110.801       10.890        5.660      323.185      134.441        0.173      338.006       10.363      850.607
04/14/2013  20:39:00     -533.442     -111.938      -16.889      187.530      171.964       92.376    35167.381    29571.524     8533.320       18.531        3.664      545.060       95.417        0.031      338.001       10.354      850.618
04/14/2013  20:40:00     -320.511      -82.884       -5.453      169.978      141.150       79.711    28892.645    19923.282     6353.862        8.239        2.758      331.055       87.265        0.069      338.004       10.358      850.624
04/14/2013  20:41:00     -578.857     -140.754      -19.399      209.324      202.141       80.602    43816.706    40860.813     6496.729       22.320        4.559      595.724       69.893        0.014      338.003       10.356      850.633
04/14/2013  20:42:00     -416.173     -161.940      -11.153      246.336      183.808       96.323    60681.603    33785.227     9278.116       15.163        5.187      446.569      112.595        0.064      338.025       10.395      850.620
04/14/2013  20:43:00     -349.212     -189.002       -4.897      224.706      176.944       86.974    50492.778    31309.256     7564.466       12.352        4.468      397.078      102.196        0.066      338.023       10.389      850.645
04/14/2013  20:44:00     -597.800     -181.426      -20.615      215.818      165.103      101.536    46577.533    27258.923    10309.555       23.741        4.207      624.725       95.080        0.023      338.022       10.389      850.635
04/14/2013  20:45:00     -492.968     -221.748       -8.097      217.671      179.249      105.306    47380.759    32130.318    11089.380       19.141        4.530      540.546      107.930        0.040      338.037       10.412      850.634
04/14/2013  20:46:00     -547.866     -145.954      -29.137      250.513      172.377       98.382    62756.628    29713.700     9679.043       21.221        5.107      566.974      116.415        0.042      338.040       10.418      850.616
04/14/2013  20:47:00     -379.708     -199.569       -1.782      195.119      161.479      104.304    38071.501    26075.520    10879.239       12.951        3.751      428.959      121.240        0.080      338.042       10.424      850.625
04/14/2013  20:48:00     -218.152     -110.876        7.052      207.389      151.751       93.384    43010.003    23028.224     8720.585        6.733        3.738      244.711      110.687        0.205      338.073       10.475      850.642
04/14/2013  20:49:00     -187.170     -114.221        7.954      151.682      124.165       81.297    23007.307    15417.003     6609.228        4.658        2.252      219.269       90.374        0.170      338.067       10.464      850.666
04/14/2013  20:50:00     -296.973     -102.986        4.326      179.982      136.811       85.022    32393.592    18717.205     7228.663        7.857        2.917      314.323       93.328        0.088      338.046       10.429      850.710
04/14/2013  20:51:00     -304.704     -136.268      -12.160      150.847      141.074       80.419    22754.967    19901.995     6467.235        8.033        2.456      333.786       84.716        0.064      338.062       10.455      850.702
04/14/2013  20:52:00     -350.961      -81.017      -19.321      158.639      166.527       73.244    25166.184    27731.227     5364.692        9.418        2.913      360.191       75.724        0.044      338.036       10.411      850.672
04/14/2013  20:53:00     -155.081      -89.531       10.400      193.066      171.019       76.624    37274.342    29247.441     5871.184        5.227        3.620      179.070       83.742        0.219      338.057       10.449      850.649
04/14/2013  20:54:00     -278.519      -57.275      -33.072      167.963      165.144       79.687    28211.503    27272.629     6350.059        7.188        3.092      284.347       80.658        0.080      338.065       10.460      850.661
04/14/2013  20:55:00     -157.710     -130.197      -10.258      140.246       85.778       68.665    19668.975     7357.933     4714.891        3.683        1.587      204.508       77.952        0.145      338.045       10.428      850.661
04/14/2013  20:56:00      -97.635      -50.812       16.369       91.695       88.761       56.720     8408.046     7878.481     3217.204        1.594        0.975      110.065       59.136        0.289      338.074       10.477      850.681
04/14/2013  20:57:00     -305.974     -248.202       -7.519      200.356      155.587       98.580    40142.327    24207.355     9717.926       11.466        3.703      393.985      103.971        0.070      338.026       10.396      850.700
04/14/2013  20:58:00     -412.788     -178.726       -7.429      234.980      198.842       99.737    55215.438    39537.943     9947.485       15.353        5.235      449.819      120.600        0.072      338.045       10.425      850.670
04/14/2013  20:59:00     -299.631     -230.340      -18.676      156.173      135.790       90.276    24389.933    18438.918     8149.778        9.707        2.549      377.936       89.689        0.056      338.041       10.420      850.668
04/14/2013  21:00:00     -306.047     -142.646       -6.841      193.370      134.033       71.102    37392.082    17964.910     5055.452        8.723        3.021      337.657       83.351        0.061      338.039       10.417      850.726
04/14/2013  21:01:00     -333.191      -76.055      -22.874      222.735      127.348       73.357    49610.798    16217.482     5381.184        9.425        3.560      341.761       92.824        0.074      338.016       10.379      850.728
04/14/2013  21:02:00     -240.297       55.495       -6.981      109.975       85.638       47.398    12094.422     7333.818     2246.604        4.127        1.084      246.622       54.204        0.048      338.015       10.376      850.652
04/14/2013  21:03:00     -306.589      -58.424      -12.638      127.804      113.113       59.377    16333.925    12794.551     3525.600        6.511        1.633      312.106       64.794        0.043      337.993       10.339      850.696
04/14/2013  21:04:00     -175.463      -11.965        9.345      188.821      107.192       66.082    35653.250    11490.133     4366.871        4.126        2.576      175.870       82.121        0.218      337.996       10.347      850.697
04/14/2013  21:05:00     -347.429      -96.078      -11.637      175.852       94.210       59.151    30923.912     8875.472     3498.884        8.668        2.165      360.469       58.719        0.027      337.996       10.345      850.637
04/14/2013  21:06:00     -515.829     -110.728      -20.125      174.341      160.847       87.923    30394.768    25871.609     7730.473       17.136        3.200      527.580       90.317        0.029      337.986       10.329      850.648
04/14/2013  21:07:00     -280.041     -111.552        6.683      168.393      147.771       67.674    28356.261    21836.188     4579.747        7.283        2.739      301.441       73.961        0.060      338.002       10.355      850.685
04/14/2013  21:08:00     -216.287     -216.008        9.163      199.144      159.197       87.397    39658.156    25343.824     7638.154        8.307        3.632      305.679       99.773        0.107      338.009       10.367      850.659
04/14/2013  21:09:00     -285.329      -60.985       -6.898      146.517      160.967       75.346    21467.165    25910.267     5677.071        6.911        2.653      291.774       74.323        0.065      337.999       10.350      850.655
04/14/2013  21:10:00     -264.409      -69.534      -15.500      155.896      112.124       43.895    24303.567    12571.680     1926.790        5.689        1.940      273.399       33.570        0.015      338.025       10.393      850.684
04/14/2013  21:11:00     -278.934      -41.166       -8.969      167.454      123.627       57.387    28040.825    15283.669     3293.253        6.309        2.331      281.955       54.423        0.037      338.000       10.352      850.673
04/14/2013  21:12:00     -388.805     -108.565      -11.958      143.147      128.057       69.171    20491.205    16398.538     4784.657       10.238        2.084      403.678       74.800        0.034      337.989       10.333      850.656
04/14/2013  21:13:00     -448.240     -101.615      -32.880      150.875      131.453       66.606    22763.288    17279.946     4436.383       12.840        2.224      459.614       70.297        0.023      338.006       10.361      850.647
04/14/2013  21:14:00     -275.619      -19.521        0.603      135.588       89.446       61.718    18384.208     8000.655     3809.085        5.327        1.510      276.310       66.204        0.057      337.988       10.331      850.664
04/14/2013  21:15:00     -150.219      -13.094       12.849      111.275       88.949       58.147    12382.163     7911.919     3381.042        2.328        1.184      150.788       64.286        0.182      337.982       10.323      850.666
04/14/2013  21:16:00     -522.612      -65.376      -26.500      200.137      161.392       73.752    40054.739    26047.487     5439.367       17.481        3.577      526.685       87.691        0.028      337.971       10.302      850.650
04/14/2013  21:17:00     -411.213     -142.516      -13.578      149.917      139.991       75.371    22475.075    19597.542     5680.787       11.866        2.388      435.209       77.483        0.032      337.975       10.309      850.635
04/14/2013  21:18:00     -380.139     -137.927       -8.368      150.990      131.145       68.894    22797.888    17199.046     4746.325       10.416        2.237      404.388       73.734        0.033      337.968       10.298      850.634
04/14/2013  21:19:00     -233.981      -38.791        0.386      149.408      152.414       68.112    22322.616    23229.914     4639.212        5.321        2.510      237.175       72.348        0.093      337.965       10.294      850.643
04/14/2013  21:20:00     -370.352     -161.755      -23.783      239.953      165.601       88.367    57577.315    27423.681     7808.729       12.833        4.640      404.135       83.209        0.042      337.987       10.330      850.628
04/14/2013  21:21:00     -364.523      -82.530        4.254      154.397      116.076       73.004    23838.409    13473.708     5329.637        9.117        2.132      373.749       79.660        0.045      337.987       10.329      850.620
04/14/2013  21:22:00     -236.282      -82.079        2.421      166.975       99.751       73.337    27880.576     9950.302     5378.312        5.288        2.160      250.132       90.133        0.130      337.985       10.325      850.636
04/14/2013  21:23:00     -348.597      -97.088        1.594      161.114      166.621       91.816    25957.666    27762.589     8430.176        9.654        3.108      361.865       94.845        0.069      337.978       10.315      850.617
04/14/2013  21:24:00     -356.642      -47.745      -15.614      139.347      142.579       73.490    19417.457    20328.828     5400.825        8.742        2.257      359.824       75.326        0.044      337.977       10.313      850.587
04/14/2013  21:25:00     -357.969      -71.147      -20.637      190.133      158.767       91.447    36150.547    25206.959     8362.507       10.166        3.486      364.971       81.710        0.050      337.984       10.324      850.576
04/14/2013  21:26:00     -385.106     -149.081        7.789      261.986      172.629       97.481    68636.867    29800.807     9502.616       13.925        5.397      412.955      121.725        0.087      337.978       10.314      850.570
04/14/2013  21:27:00     -282.813     -157.499      -10.296      158.394      132.044       77.147    25088.549    17435.741     5951.586        7.668        2.424      323.712       80.663        0.062      337.998       10.348      850.599
04/14/2013  21:28:00     -312.192      -97.130       -6.450      241.909      117.099       78.012    58519.871    13712.220     6085.857        9.262        3.916      326.952       95.561        0.085      337.990       10.335      850.622
04/14/2013  21:29:00     -250.324     -107.597        3.878      158.351      125.158       73.227    25074.892    15664.573     5362.250        6.017        2.305      272.468       92.291        0.115      338.017       10.380      850.631
04/14/2013  21:30:00     -335.567     -186.688       16.949      191.664      158.724       99.298    36735.107    25193.262     9860.005       10.975        3.589      384.003      105.751        0.076      338.003       10.357      850.637
04/14/2013  21:31:00     -370.634     -142.002       -0.256      226.961      131.990       69.785    51511.319    17421.384     4869.941       11.566        3.690      396.906       72.209        0.033      337.996       10.346      850.677
04/14/2013  21:32:00     -455.766     -186.905      -16.715      220.851      142.862       81.560    48774.992    20409.414     6651.971       15.937        3.792      492.601       91.315        0.034      337.996       10.346      850.651
04/14/2013  21:33:00     -370.760     -136.444       -4.840      144.393      141.998       77.452    20849.331    20163.385     5998.741       10.155        2.351      395.070       89.543        0.051      338.004       10.358      850.669
04/14/2013  21:34:00     -399.292      -86.672      -12.809      202.363      121.070       69.144    40950.907    14658.057     4780.950       11.374        3.019      408.590       85.057        0.043      338.003       10.358      850.680
04/14/2013  21:35:00     -399.190      -98.157       -1.697      185.618      130.120       81.954    34453.982    16931.132     6716.387       11.354        2.905      411.081       77.113        0.035      338.032       10.405      850.700
04/14/2013  21:36:00     -627.467     -160.527      -12.964      230.020      185.887       98.248    52909.188    34553.825     9652.762       25.837        4.856      647.676      100.477        0.024      338.013       10.373      850.629
04/14/2013  21:37:00     -478.812     -178.694      -13.239      171.639      155.023       99.674    29459.996    24032.195     9934.922       16.239        3.171      511.070       89.550        0.031      338.031       10.403      850.625
04/14/2013  21:38:00     -510.428     -178.743      -15.310      215.667      152.806       81.855    46512.292    23349.675     6700.237       18.463        3.828      540.819       99.178        0.034      338.027       10.397      850.660
04/14/2013  21:39:00     -543.043     -115.062      -26.660      243.153      183.893      100.696    59123.502    33816.496    10139.636       20.595        5.154      555.099      119.197        0.046      338.023       10.391      850.653
04/14/2013  21:40:00     -458.063     -201.198      -16.991      228.191      229.637      105.050    52071.108    52733.080    11035.460       18.320        5.792      500.302      115.147        0.053      338.045       10.429      850.632
04/14/2013  21:41:00     -361.961     -170.370        7.388      292.206      214.612      104.075    85384.200    46058.324    10831.590       15.116        7.114      400.052      129.331        0.105      338.036       10.412      850.601
04/14/2013  21:42:00     -448.075     -200.256       -2.353      239.837      151.753      103.489    57521.646    23028.828    10709.981       16.605        4.563      490.789       94.167        0.037      338.006       10.364      850.590
04/14/2013  21:43:00     -381.211     -111.830      -11.602      146.010      114.779       63.720    21318.816    13174.152     4060.250        9.825        1.928      397.275       58.305        0.022      338.019       10.385      850.603
04/14/2013  21:44:00     -385.818      -45.164      -20.998      169.783      122.203       74.462    28826.359    14933.581     5544.543       10.031        2.465      388.452       80.532        0.043      337.993       10.340      850.613
04/14/2013  21:45:00     -382.082      -62.488       -5.702      176.440      108.537       63.959    31131.178    11780.216     4090.725        9.846        2.350      387.158       72.043        0.035      337.968       10.298      850.579
04/14/2013  21:46:00     -206.803      -22.854       -7.420      136.008      101.732       50.460    18498.182    10349.463     2546.196        3.736        1.570      208.062       42.947        0.043      337.990       10.334      850.550
04/14/2013  21:47:00     -266.690      -65.169      -11.834      121.979      117.944       56.282    14878.840    13910.777     3167.678        5.373        1.598      274.537       57.495        0.044      337.965       10.294      850.558
04/14/2013  21:48:00     -530.171       13.967      -62.975      157.539      139.094       79.113    24818.477    19347.161     6258.793       16.782        2.521      530.355       78.368        0.022      337.950       10.269      850.561
04/14/2013  21:49:00     -298.214      -91.379       -3.352      226.300      159.758       74.216    51211.745    25522.566     5507.968        8.975        4.112      311.900      102.267        0.108      337.942       10.254      850.550
04/14/2013  21:50:00     -380.520     -110.923      -20.747      157.919      129.593       71.697    24938.550    16794.327     5140.438       10.219        2.344      396.358       73.661        0.035      337.944       10.257      850.538
04/14/2013  21:51:00     -362.001      -35.508       -0.869      222.325      158.084       97.075    49428.289    24990.621     9423.479       10.806        4.192      363.739      114.987        0.100      337.928       10.231      850.530
04/14/2013  21:52:00     -320.623     -242.650      -27.950      202.133      169.045       98.729    40857.580    28576.142     9747.437       12.081        3.959      402.092       81.478        0.041      337.974       10.308      850.532
04/14/2013  21:53:00     -222.145      -33.400      -14.522      136.915       76.468       60.823    18745.744     5847.416     3699.455        3.948        1.415      224.642       67.195        0.089      337.952       10.272      850.565
04/14/2013  21:54:00     -397.722      -75.716      -14.527      201.821      151.365       78.015    40731.659    22911.496     6086.339       11.692        3.486      404.865       74.416        0.034      337.912       10.203      850.589
04/14/2013  21:55:00     -472.282      -40.698      -30.491      159.064      134.090       86.100    25301.374    17980.232     7413.248       13.816        2.535      474.033       87.248        0.034      337.902       10.185      850.577
04/14/2013  21:56:00     -433.540     -121.017      -10.753      173.279      153.060       76.694    30025.690    23427.482     5881.957       13.102        2.967      450.114       60.168        0.018      337.903       10.188      850.568
04/14/2013  21:57:00     -342.369      -66.127       -5.190      172.192      120.620       68.325    29649.958    14549.204     4668.326        8.523        2.443      348.697       75.479        0.047      337.921       10.216      850.611
04/14/2013  21:58:00     -382.320     -179.523      -12.847      215.751      167.694       81.237    46548.346    28121.445     6599.440       12.990        4.063      422.371       73.702        0.030      337.939       10.249      850.570
04/14/2013  21:59:00     -277.779     -160.085        2.499      229.710      198.766      111.127    52766.561    39508.044    12349.280       10.369        5.231      320.606      128.465        0.161      337.968       10.299      850.529
04/14/2013  22:00:00     -404.168     -194.864       -4.712      205.528      141.855       80.944    42241.683    20122.772     6551.874       13.512        3.446      448.691       85.567        0.036      337.942       10.254      850.529
04/14/2013  22:01:00     -122.536      -49.132       29.044      172.731      150.691      103.544    29836.171    22707.905    10721.431        4.076        3.163      132.019       89.435        0.459      337.958       10.283      850.541
04/14/2013  22:02:00     -515.378      -87.757      -24.219      324.376      169.102       95.636   105219.485    28595.366     9146.224       20.841        7.148      522.796      127.314        0.059      337.929       10.233      850.538
04/14/2013  22:03:00     -395.266     -159.097       -5.603      225.074      173.400      103.281    50658.459    30067.674    10666.881       13.647        4.570      426.083      107.417        0.064      337.936       10.243      850.507
04/14/2013  22:04:00     -394.533      -72.267      -12.141      144.795      130.812       78.286    20965.453    17111.755     6128.661       10.261        2.210      401.097       64.857        0.026      337.938       10.248      850.538
04/14/2013  22:05:00     -288.644      -63.432        2.341      142.844      133.039       61.263    20404.461    17699.472     3753.127        6.459        2.093      295.531       68.075        0.053      337.926       10.227      850.552
04/14/2013  22:06:00     -343.210      -11.064       -3.678      224.694      143.649       72.177    50487.271    20634.935     5209.480        9.712        3.817      343.388       96.225        0.079      337.935       10.244      850.564
04/14/2013  22:07:00     -389.670     -142.496      -12.795      199.639      111.805       72.801    39855.892    12500.401     5300.050       11.497        2.883      414.907       84.546        0.042      337.948       10.264      850.542
04/14/2013  22:08:00     -242.039      -70.511        1.013      194.964      101.607       61.041    38010.941    10323.902     3726.011        5.780        2.603      252.100       84.284        0.112      337.945       10.259      850.553
04/14/2013  22:09:00     -508.851     -107.262      -22.140      174.706      131.126       84.282    30522.311    17193.909     7103.432       16.286        2.741      520.033       92.957        0.032      337.970       10.302      850.550
04/14/2013  22:10:00     -319.601      -90.591      -19.468      144.293      170.339       83.444    20820.378    29015.245     6962.975        8.376        2.840      332.192       84.520        0.065      337.982       10.320      850.579
04/14/2013  22:11:00     -268.543      -88.759      -19.790      154.716      104.532       60.781    23937.127    10927.032     3694.309        5.947        1.928      282.831       71.174        0.063      338.003       10.357      850.599
04/14/2013  22:12:00     -411.048      -71.206      -19.989      149.364      159.550       69.139    22309.608    25456.138     4780.136       11.348        2.627      417.170       65.395        0.025      337.994       10.341      850.627
04/14/2013  22:13:00     -581.376       -8.141      -23.370      217.631      186.310       98.506    47363.058    34711.533     9703.397       21.518        4.589      581.433      111.747        0.037      337.970       10.303      850.617
04/14/2013  22:14:00     -339.239      -68.009       -4.914      176.148      124.620       79.470    31028.106    15530.090     6315.413        8.629        2.644      345.989       83.038        0.058      338.001       10.354      850.636
04/14/2013  22:15:00     -206.504     -115.473        3.997      184.190      113.009       79.771    33925.982    12770.927     6363.339        5.452        2.653      236.596       93.333        0.156      338.003       10.358      850.666
04/14/2013  22:16:00     -253.024      -22.832        1.756      140.801      111.384       58.153    19825.018    12406.306     3381.754        5.007        1.781      254.052       62.289        0.060      338.002       10.357      850.650
04/14/2013  22:17:00     -205.641        0.263       -3.576      115.388       99.384       50.280    13314.399     9877.139     2528.104        3.401        1.286      205.641       42.509        0.043      338.017       10.379      850.655
04/14/2013  22:18:00     -270.560      -13.354       -6.715      165.400      124.351       66.132    27356.999    15463.292     4373.462        6.030        2.360      270.889       83.343        0.095      337.987       10.331      850.655
04/14/2013  22:19:00     -455.536      -48.774      -23.730      170.996      138.113       71.240    29239.642    19075.244     5075.192       13.191        2.670      458.140       63.712        0.019      337.971       10.302      850.632
04/14/2013  22:20:00     -477.215      -87.556      -18.062      159.872      156.950       80.821    25558.998    24633.369     6532.076       14.622        2.836      485.180       84.672        0.030      337.967       10.297      850.618
04/14/2013  22:21:00     -400.171      -80.386      -21.575      161.689      115.389       71.459    26143.334    13314.682     5106.456       10.581        2.228      408.165       68.470        0.028      337.969       10.298      850.641
04/14/2013  22:22:00     -446.704      -79.233      -16.669      202.568      126.212       76.715    41033.738    15929.401     5885.127       13.446        3.142      453.676       97.596        0.046      337.962       10.289      850.616
04/14/2013  22:23:00     -315.397      -95.343      -25.218      133.382       87.851       64.174    17790.826     7717.770     4118.353        6.941        1.481      329.493       63.781        0.037      337.970       10.301      850.601
04/14/2013  22:24:00     -245.714      -15.417      -15.447      108.654       94.531       58.917    11805.730     8936.065     3471.269        4.253        1.211      246.197       60.794        0.061      337.974       10.307      850.627
04/14/2013  22:25:00     -407.231      -78.664      -13.623      184.498      116.757       80.563    34039.682    13632.165     6490.432       11.318        2.708      414.759       89.942        0.047      337.952       10.270      850.616
04/14/2013  22:26:00     -259.277      -49.406        3.531      169.864      114.124       78.801    28853.867    13024.257     6209.629        5.887        2.404      263.942       91.486        0.120      337.955       10.278      850.595
04/14/2013  22:27:00     -329.069      -44.437      -12.590      156.155      113.697       69.127    24384.358    12927.054     4778.535        7.625        2.104      332.056       82.542        0.062      337.953       10.274      850.613
04/14/2013  22:28:00     -370.721      -32.475      -19.617      155.351      132.888       67.098    24134.011    17659.131     4502.135        9.258        2.315      372.141       70.516        0.036      337.948       10.265      850.621
04/14/2013  22:29:00     -371.638      -99.670       -1.639      169.055      166.213       79.973    28579.523    27626.811     6395.659       10.532        3.130      384.771       83.662        0.047      337.944       10.257      850.608
04/14/2013  22:30:00     -160.224      -71.875       13.442      144.414       89.169       57.136    20855.439     7951.134     3264.484        3.154        1.604      175.607       62.679        0.127      338.008       10.366      850.567
04/14/2013  22:31:00     -119.115      -63.939       34.690      175.467      122.599       81.376    30788.843    15030.599     6622.011        3.595        2.622      135.191       91.543        0.459      338.010       10.369      850.534
04/14/2013  22:32:00     -271.159      -32.861      -18.595      180.599       95.051       56.298    32615.979     9034.731     3169.487        5.988        2.241      273.143       55.770        0.042      337.982       10.322      850.535
04/14/2013  22:33:00     -344.009      -68.230      -12.758      175.429      113.188       74.734    30775.209    12811.415     5585.120        8.616        2.459      350.710       91.464        0.068      337.950       10.268      850.507
04/14/2013  22:34:00     -221.483      -19.296      -15.772      120.133       85.016       52.830    14432.024     7227.773     2791.024        3.706        1.223      222.322       48.148        0.047      337.973       10.307      850.495
04/14/2013  22:35:00     -229.241      -16.317       -0.690      133.983       87.536       61.130    17951.364     7662.476     3736.861        4.108        1.468      229.821       74.324        0.105      337.961       10.288      850.507
04/14/2013  22:36:00     -308.066      -66.533       -9.904      122.033       89.737       55.428    14891.976     8052.812     3072.267        6.272        1.301      315.168       61.561        0.038      337.940       10.250      850.496
04/14/2013  22:37:00     -280.885       14.776      -23.649      120.287       76.089       48.488    14468.989     5789.499     2351.044        5.114        1.130      281.273       57.571        0.042      337.953       10.273      850.477
04/14/2013  22:38:00     -226.700      -59.953       -4.858      121.902       77.474       52.090    14860.028     6002.192     2713.362        3.929        1.179      234.494       62.066        0.070      337.981       10.320      850.497
04/14/2013  22:39:00     -343.295      -36.469       -7.716      160.449      105.560       67.407    25744.033    11142.824     4543.764        8.033        2.072      345.226       73.864        0.046      337.926       10.226      850.465
04/14/2013  22:40:00     -321.493       32.608      -24.445       97.301       94.034       47.383     9467.408     8842.407     2245.185        6.278        1.028      323.142       43.835        0.018      337.928       10.229      850.468
04/14/2013  22:41:00     -430.310      -68.130      -24.856      167.476      141.324       77.288    28048.119    19972.357     5973.484       12.220        2.700      435.670       69.851        0.026      337.923       10.220      850.431
04/14/2013  22:42:00     -312.518       -2.867       -7.453      158.366      107.268       67.453    25079.799    11506.386     4549.958        6.943        2.057      312.531       68.468        0.048      337.927       10.229      850.425
04/14/2013  22:43:00     -277.099      -42.310       -0.573      164.132      101.110       62.137    26939.242    10223.296     3861.021        5.979        2.051      280.311       61.865        0.049      337.931       10.236      850.413
04/14/2013  22:44:00     -461.376     -182.739      -12.184      168.941      158.911       82.188    28540.904    25252.800     6754.858       15.347        3.027      496.248       86.455        0.030      337.929       10.231      850.366
04/14/2013  22:45:00     -343.461     -147.345      -18.046      135.933      114.366       78.057    18477.787    13079.494     6092.930        8.882        1.883      373.732       65.012        0.030      337.935       10.241      850.339
04/14/2013  22:46:00     -381.072      -66.282      -19.394      194.968      118.446       69.026    38012.679    14029.339     4764.651       10.339        2.840      386.794       83.555        0.047      337.925       10.224      850.354
04/14/2013  22:47:00     -184.159      -21.071       -1.942      105.349       68.855       42.985    11098.347     4740.989     1847.729        2.602        0.884      185.360       46.060        0.062      337.929       10.233      850.375
04/14/2013  22:48:00     -285.732      -88.364      -10.582      158.285      135.546       77.016    25054.044    18372.734     5931.441        6.945        2.468      299.083       86.772        0.084      337.919       10.214      850.382
04/14/2013  22:49:00     -197.868      -28.525        7.656      131.949      101.683       57.270    17410.528    10339.438     3279.822        3.552        1.551      199.914       57.257        0.082      337.923       10.222      850.377
04/14/2013  22:50:00     -386.701     -196.704      -14.563      163.654      120.725       75.681    26782.499    14574.567     5727.547       11.776        2.354      433.855       80.624        0.035      337.935       10.241      850.371
04/14/2013  22:51:00     -237.050     -121.614       -4.449      124.971      105.932       64.545    15617.719    11221.555     4166.103        5.100        1.550      266.426       63.436        0.057      337.911       10.201      850.376
04/14/2013  22:52:00     -254.550      -70.087       -6.135      121.173      103.804       47.449    14682.936    10775.266     2251.399        4.872        1.385      264.023       48.135        0.033      337.906       10.193      850.381
04/14/2013  22:53:00     -292.106      -78.015      -18.112      109.220       75.144       55.609    11929.001     5646.578     3092.309        5.620        1.033      302.345       47.390        0.025      337.910       10.198      850.385
04/14/2013  22:54:00     -423.884     -122.028      -34.627      171.709      179.059       80.270    29484.045    32062.035     6443.222       13.187        3.399      441.099       87.432        0.039      337.936       10.244      850.328
04/14/2013  22:55:00     -410.081      -68.935      -24.638      146.600      116.843       66.169    21491.593    13652.277     4378.348       10.652        1.976      415.835       67.296        0.026      337.913       10.203      850.323
04/14/2013  22:56:00     -346.235      -44.737      -14.208      147.204       98.957       52.366    21669.148     9792.434     2742.231        7.814        1.710      349.114       55.576        0.025      337.921       10.218      850.335
04/14/2013  22:57:00     -214.757      -75.897       -3.635      130.838      106.229       59.255    17118.565    11284.683     3511.198        4.190        1.596      227.773       31.315        0.019      337.930       10.235      850.316
04/14/2013  22:58:00     -261.379      -90.853        4.099      151.952       86.086       55.982    23089.479     7410.817     3133.993        5.511        1.682      276.718       67.051        0.059      337.918       10.213      850.337
04/14/2013  22:59:00     -256.911      -74.937       -1.533      175.130      109.232       60.893    30670.517    11931.533     3707.940        5.896        2.315      267.617       78.579        0.086      337.921       10.219      850.348
04/14/2013  23:00:00     -230.829      -22.571       -8.420      114.062       90.774       51.324    13010.084     8239.939     2634.114        3.887        1.194      231.930       58.426        0.063      337.909       10.198      850.355
04/14/2013  23:01:00     -245.221      -66.031        4.262      183.312      105.399       63.818    33603.169    11108.868     4072.707        5.664        2.439      253.956       69.473        0.075      337.909       10.199      850.336
04/14/2013  23:02:00     -173.997      -27.036        3.032      132.092       89.863       53.257    17448.231     8075.349     2836.327        2.968        1.418      176.085       62.001        0.124      337.917       10.212      850.345
04/14/2013  23:03:00     -238.884       -7.687       -1.597      146.380       98.795       62.473    21427.130     9760.424     3902.842        4.610        1.755      239.008       77.326        0.105      337.910       10.201      850.368
04/14/2013  23:04:00     -359.056     -195.570      -17.696      136.472      115.592       76.018    18624.689    13361.461     5778.729       10.262        1.888      408.863       73.110        0.032      337.929       10.232      850.384
04/14/2013  23:05:00     -251.590      -99.209      -14.921      117.188      121.995       56.105    13732.995    14882.687     3147.738        5.256        1.588      270.444       60.576        0.050      337.932       10.237      850.374
04/14/2013  23:06:00     -192.290      -80.572        7.175      130.518      100.193       59.364    17034.875    10038.648     3524.035        3.705        1.530      208.488       72.240        0.120      337.929       10.233      850.396
04/14/2013  23:07:00     -201.044     -211.910       -1.035      165.588      117.611       61.613    27419.231    13832.295     3796.126        6.518        2.252      292.103       61.243        0.044      337.954       10.275      850.383
04/14/2013  23:08:00     -457.103     -254.666      -18.760      197.896      153.237       89.636    39162.744    23481.666     8034.600       17.240        3.534      523.258       82.578        0.025      337.913       10.205      850.323
04/14/2013  23:09:00     -347.393     -248.765       -3.345      178.826      138.234       86.654    31978.767    19108.650     7508.875       12.058        2.930      427.277       91.411        0.046      337.930       10.232      850.305
04/14/2013  23:10:00     -248.468      -78.936       -2.551      143.709      129.960       60.507    20652.282    16889.724     3661.069        5.458        2.060      260.705       68.236        0.069      337.939       10.249      850.334
04/14/2013  23:11:00     -134.093        5.399        4.266      126.395       79.836       41.622    15975.595     6373.853     1732.350        2.105        1.204      134.202       49.935        0.138      337.953       10.275      850.336
04/14/2013  23:12:00     -151.876      -78.921       -1.832       65.257       75.440       44.754     4258.411     5691.236     2002.915        2.062        0.598      171.157       34.579        0.041      337.989       10.334      850.346
04/14/2013  23:13:00     -220.030     -138.257      -18.152      185.073      118.297       69.280    34251.916    13994.214     4799.785        6.044        2.652      259.862       77.394        0.089      337.931       10.234      850.335
04/14/2013  23:14:00     -227.763     -155.768      -12.236      138.415      108.559       56.518    19158.718    11785.099     3194.242        5.521        1.707      275.935       41.288        0.022      337.941       10.251      850.324
04/14/2013  23:15:00     -189.281      -62.713       -2.700      115.979       81.380       46.493    13451.071     6622.691     2161.571        3.100        1.112      199.400       44.277        0.049      337.910       10.201      850.328
04/14/2013  23:16:00     -165.902      -56.693        8.162      124.448       98.415       60.259    15487.389     9685.503     3631.185        2.980        1.440      175.321       69.311        0.156      337.918       10.212      850.339
04/14/2013  23:17:00     -111.565      -98.685       16.828      121.779      125.532       59.903    14830.109    15758.379     3588.327        2.832        1.709      148.948       65.791        0.195      337.915       10.210      850.351
04/14/2013  23:18:00     -178.013      -86.627        8.131      142.834       89.801       56.903    20401.545     8064.279     3237.926        3.548        1.585      197.972       66.533        0.113      337.905       10.192      850.353
04/14/2013  23:19:00     -316.430     -115.028        1.513      133.349       94.430       60.056    17782.028     8917.072     3606.670        7.183        1.515      336.689       58.510        0.030      337.894       10.172      850.357
04/14/2013  23:20:00     -227.200      -31.527       -3.661      100.876       91.092       47.558    10176.011     8297.702     2261.801        3.668        1.037      229.377       50.026        0.048      337.884       10.156      850.379
04/14/2013  23:21:00     -228.944      -92.637        1.687      125.707      157.242       68.153    15802.229    24724.980     4644.768        5.308        2.259      246.976       57.929        0.055      337.906       10.192      850.384
04/14/2013  23:22:00     -315.352      -60.429       -8.613      207.677      157.573       73.923    43129.575    24829.132     5464.566        8.829        3.671      321.090       86.009        0.072      337.894       10.172      850.368
04/14/2013  23:23:00     -241.233     -105.667       15.480      182.878      149.271       75.388    33444.197    22281.972     5683.425        6.549        3.070      263.361       84.657        0.103      337.894       10.175      850.346
04/14/2013  23:24:00     -345.169     -113.575      -23.742      246.767      135.008       97.739    60894.103    18227.212     9553.003       11.062        4.434      363.374      124.170        0.117      337.914       10.205      850.347
04/14/2013  23:25:00     -337.439     -102.910       -9.843      180.778      144.219       86.306    32680.655    20799.144     7448.804        9.273        3.046      352.782       79.511        0.051      337.933       10.237      850.320
04/14/2013  23:26:00     -341.936      -39.011      -24.723      207.155      117.514       70.541    42913.268    13809.501     4976.090        9.037        3.085      344.154       75.989        0.049      337.897       10.176      850.344
04/14/2013  23:27:00     -227.267     -133.644       -3.714      115.092       98.123       57.785    13246.208     9628.148     3339.144        4.786        1.311      263.649       52.714        0.040      337.936       10.244      850.355
04/14/2013  23:28:00     -158.242      -32.309       13.183      130.181       99.787       51.006    16947.138     9957.387     2601.592        2.788        1.475      161.507       59.690        0.137      337.916       10.211      850.363
04/14/2013  23:29:00     -295.834      -54.880       -9.313      165.026      100.998       55.877    27233.428    10200.677     3122.293        6.558        2.028      300.881       74.408        0.061      337.875       10.142      850.373
04/14/2013  23:30:00     -215.726     -116.981      -12.499      190.695      128.825       80.386    36364.467    16595.842     6461.829        5.989        2.971      245.402       92.359        0.142      337.931       10.234      850.318
04/14/2013  23:31:00     -362.271      -79.505       -3.943      174.074      128.444       78.593    30301.664    16497.848     6176.840        9.527        2.649      370.893       86.027        0.054      337.883       10.153      850.321
04/14/2013  23:32:00     -225.781      -30.321      -11.704      115.516       76.575       50.516    13343.881     5863.776     2551.859        3.689        1.088      227.807       50.547        0.049      337.902       10.185      850.330
04/14/2013  23:33:00     -339.947     -130.236       -2.527      138.549      145.246       67.167    19195.884    21096.386     4511.384        8.866        2.240      364.041       69.767        0.037      337.880       10.148      850.318
04/14/2013  23:34:00     -412.699     -123.036      -33.418      166.690      121.545       70.976    27785.712    14773.072     5037.642       11.708        2.380      430.648       80.972        0.035      337.895       10.173      850.290
04/14/2013  23:35:00     -228.463      -87.677       -2.889      112.965      119.797       52.424    12761.034    14351.290     2748.267        4.487        1.493      244.709       54.444        0.049      337.915       10.207      850.319
04/14/2013  23:36:00     -346.378      -89.179      -16.515      151.552       88.892       57.674    22967.930     7901.819     3326.310        8.119        1.710      357.673       60.183        0.028      337.888       10.162      850.354
04/14/2013  23:37:00     -267.138      -33.025       -8.675      119.324      102.406       60.654    14238.270    10486.895     3678.852        5.046        1.420      269.172       57.213        0.045      337.880       10.151      850.372
04/14/2013  23:38:00     -217.215      -68.963       -8.484      116.319       93.592       50.716    13530.213     8759.455     2572.104        3.843        1.243      227.899       61.582        0.073      337.897       10.175      850.368
04/14/2013  23:39:00     -196.888       16.309      -12.571      117.649       75.870       51.771    13841.226     5756.211     2680.264        3.073        1.114      197.563       53.099        0.072      337.879       10.150      850.358
04/14/2013  23:40:00     -124.371      -51.994       -3.885       81.169       86.638       36.039     6588.388     7506.089     1298.787        1.679        0.770      134.802       28.620        0.045      337.877       10.145      850.342
04/14/2013  23:41:00     -280.471     -163.389       -2.093      137.072      142.683       81.999    18788.800    20358.315     6723.785        7.561        2.294      324.592       85.925        0.070      337.847       10.094      850.309
04/14/2013  23:42:00     -311.429     -178.790      -15.970      120.476      114.932       55.886    14514.358    13209.427     3123.212        8.002        1.542      359.102       54.361        0.023      337.850       10.099      850.295
04/14/2013  23:43:00     -315.288      -37.190      -16.229      125.352      101.561       61.398    15713.223    10314.538     3769.733        6.542        1.490      317.474       69.784        0.048      337.846       10.092      850.303
04/14/2013  23:44:00     -271.236      -89.697        1.306      109.060      101.450       58.429    11894.038    10292.098     3413.999        5.360        1.280      285.683       62.245        0.047      337.849       10.097      850.306
04/14/2013  23:45:00     -287.286      -50.427      -15.046      125.647       86.693       55.998    15787.215     7515.720     3135.721        5.587        1.322      291.678       56.083        0.037      337.835       10.073      850.303
04/14/2013  23:46:00     -238.239       14.926      -11.300       95.772       83.979       53.906     9172.220     7052.527     2905.840        3.812        0.957      238.706       51.554        0.047      337.825       10.056      850.317
04/14/2013  23:47:00     -134.604      -19.402       11.128      127.108      123.279       54.193    16156.318    15197.744     2936.914        2.645        1.715      135.995       58.650        0.186      337.836       10.076      850.311
04/14/2013  23:48:00     -271.298     -178.205        5.058      171.027      138.878       69.160    29250.156    19287.142     4783.089        7.934        2.666      324.591       72.821        0.050      337.862       10.119      850.291
04/14/2013  23:49:00     -136.057     -170.421        0.856      126.270      101.643       51.637    15944.134    10331.366     2666.369        3.824        1.447      218.070       60.430        0.077      337.860       10.115      850.293
04/14/2013  23:50:00     -118.735     -104.306       -0.709       92.828       72.879       52.889     8617.086     5311.417     2797.262        2.085        0.836      158.043       57.677        0.133      337.855       10.108      850.316
04/14/2013  23:51:00     -202.514      -93.356       -6.426      115.270       70.021       53.764    13287.164     4902.930     2890.575        3.542        1.054      222.997       57.122        0.066      337.876       10.142      850.313
04/14/2013  23:52:00     -191.421      -41.859      -10.192       78.195       59.956       36.285     6114.418     3594.763     1316.582        2.476        0.551      195.944       35.520        0.033      337.859       10.113      850.336
04/14/2013  23:53:00     -123.469      -70.252       -1.325      139.236       65.654       47.381    19386.575     4310.468     2244.927        2.306        1.297      142.056       64.208        0.204      337.891       10.169      850.329
04/14/2013  23:54:00     -278.788      -63.652      -11.539      167.639       96.638       63.819    28102.784     9338.992     4072.870        6.170        2.076      285.962       69.483        0.059      337.832       10.068      850.318
04/14/2013  23:55:00     -109.768       -4.341        9.992      101.390       61.105       44.030    10279.962     3733.789     1938.608        1.406        0.798      109.853       44.471        0.164      337.826       10.062      850.311
04/14/2013  23:56:00     -339.699      -76.895      -27.899      108.198       74.391       50.219    11706.822     5533.979     2521.960        7.092        0.988      348.293       48.399        0.019      337.810       10.033      850.302
04/14/2013  23:57:00     -274.907     -104.926      -10.878      140.357      119.386       57.095    19699.951    14253.108     3259.785        6.195        1.861      294.251       74.205        0.064      337.820       10.048      850.279
04/14/2013  23:58:00     -243.851     -153.133       -3.239      150.135      116.456       72.075    22540.406    13561.973     5194.789        6.210        2.065      287.947       76.908        0.071      337.843       10.086      850.246
04/14/2013  23:59:00      -80.744      -59.882       27.098      122.131       98.900       44.912    14915.955     9781.266     2017.120        1.877        1.336      100.526       56.799        0.319      337.810       10.034      850.220
